Date StartTime U_cm/s V_cm/s W_cm/s Ustd_cm/s Vstd_cm/s Wstd_cm/s Uvar_(cm/s)^2 Vvar_(cm/s)^2 Wvar_(cm/s)^2 KE_(m/s)^2 TurbulentKE_(m/s)^2 HorizWindSpeed_cm/s FrictionSpeec_cm/s DragCoef SpeedOfSound_m/s SonicTemperature_C Pressure_mb 
03/12/2014  00:00:00       82.979       44.320       17.952       28.057       22.989       22.630      787.173      528.510      512.123        0.550        0.091       94.073       11.764        0.016      334.363        4.286      868.677
03/12/2014  00:01:00       92.150       43.602       26.525       25.089       19.995       24.093      629.478      399.812      580.469        0.635        0.080      101.945       12.742        0.016      334.478        4.478      868.660
03/12/2014  00:02:00       92.591       45.389       30.155       29.874       23.425       25.805      892.480      548.747      665.886        0.682        0.105      103.118       18.538        0.032      334.509        4.529      868.651
03/12/2014  00:03:00      101.759       21.877       21.990       56.692       31.729       31.745     3213.967     1006.704     1007.754        0.827        0.261      104.084       21.302        0.042      334.482        4.484      868.659
03/12/2014  00:04:00      124.103       42.831        1.849       45.094       34.369       25.922     2033.506     1181.244      671.955        1.056        0.194      131.286       15.744        0.014      334.441        4.417      868.658
03/12/2014  00:05:00      118.361       73.663        4.577       30.242       29.342       20.268      914.555      860.952      410.798        1.082        0.109      139.411       12.126        0.008      334.322        4.219      868.650
03/12/2014  00:06:00      120.056       68.104        4.329       44.240       33.865       23.688     1957.135     1146.845      561.131        1.137        0.183      138.028       17.052        0.015      334.322        4.219      868.638
03/12/2014  00:07:00       91.980       43.129        9.599       45.909       32.399       24.310     2107.672     1049.667      590.972        0.708        0.187      101.590       22.520        0.049      334.218        4.047      868.625
03/12/2014  00:08:00      145.246       67.500       11.428       43.994       31.400       27.385     1935.491      985.932      749.936        1.473        0.184      160.164       20.810        0.017      334.250        4.098      868.627
03/12/2014  00:09:00      134.491       57.935       10.820       43.446       31.758       31.795     1887.527     1008.551     1010.937        1.273        0.195      146.439       18.961        0.017      334.195        4.007      868.647
03/12/2014  00:10:00      111.197       68.513       12.933       42.876       38.478       30.620     1838.345     1480.589      937.606        1.074        0.213      130.609       28.479        0.048      334.090        3.834      868.642
03/12/2014  00:11:00      102.675       71.594       18.042       40.282       30.993       28.827     1622.643      960.537      831.007        0.970        0.171      125.171       19.170        0.023      334.069        3.799      868.639
03/12/2014  00:12:00      126.721       76.171       28.322       50.453       36.624       37.736     2545.535     1341.350     1423.982        1.399        0.266      147.853       18.744        0.016      334.035        3.741      868.641
03/12/2014  00:13:00      183.621       74.022       41.099       77.292       55.114       40.324     5973.986     3037.498     1625.988        2.576        0.532      197.980       36.303        0.034      334.125        3.889      868.631
03/12/2014  00:14:00      163.890       97.714       30.671       64.348       53.369       43.381     4140.679     2848.254     1881.888        2.311        0.444      190.808       39.338        0.043      334.239        4.077      868.618
03/12/2014  00:15:00      175.817      118.853       44.784       64.111       44.033       40.892     4110.192     1938.916     1672.126        2.738        0.386      212.220       15.907        0.006      334.105        3.854      868.615
03/12/2014  00:16:00      188.865      126.319       61.129       62.927       43.443       39.562     3959.851     1887.301     1565.170        3.139        0.371      227.214       28.552        0.016      334.179        3.978      868.601
03/12/2014  00:17:00      226.730      143.887       54.620       95.688       67.171       46.987     9156.261     4511.988     2207.792        4.548        0.794      268.533       26.212        0.010      334.200        4.012      868.600
03/12/2014  00:18:00      194.495      106.997       31.964       86.822       57.334       47.658     7538.052     3287.166     2271.256        3.169        0.655      221.983       23.946        0.012      334.196        4.006      868.603
03/12/2014  00:19:00      162.300      115.374       45.176       61.599       62.793       53.632     3794.389     3942.973     2876.368        2.615        0.531      199.129       34.882        0.031      334.083        3.818      868.605
03/12/2014  00:20:00      210.035      147.135       36.363       58.412       41.183       40.612     3411.950     1696.076     1649.329        3.692        0.338      256.444       22.282        0.008      334.045        3.754      868.606
03/12/2014  00:21:00      207.687      149.179       43.592       57.287       45.840       43.163     3281.761     2101.318     1863.005        3.727        0.362      255.712       25.790        0.010      334.074        3.801      868.599
03/12/2014  00:22:00      209.846      137.729       26.588       67.915       53.526       46.387     4612.499     2865.059     2151.723        3.667        0.481      251.007       27.749        0.012      334.124        3.885      868.581
03/12/2014  00:23:00      192.511      123.479       35.350       88.246       62.567       46.811     7787.322     3914.686     2191.283        3.372        0.695      228.708       39.575        0.030      334.178        3.977      868.567
03/12/2014  00:24:00      225.225      161.632       48.237       65.544       55.621       53.520     4295.965     3093.692     2864.350        4.471        0.513      277.220       29.135        0.011      334.267        4.121      868.549
03/12/2014  00:25:00      265.841      197.846       47.409       79.260       69.949       74.932     6282.096     4892.803     5614.733        6.442        0.839      331.382       54.208        0.027      334.305        4.185      868.555
03/12/2014  00:26:00      175.931      153.381        8.061      124.348       79.289       79.835    15462.450     6286.808     6373.633        4.133        1.406      233.404       51.514        0.049      334.392        4.333      868.535
03/12/2014  00:27:00      168.691      125.450       25.467       89.372       70.139       71.277     7987.429     4919.466     5080.427        3.141        0.899      210.225       46.130        0.048      334.366        4.289      868.527
03/12/2014  00:28:00      104.455      113.281        7.203       83.013       62.993       57.678     6891.077     3968.172     3326.699        1.899        0.709      154.089       47.223        0.094      334.376        4.307      868.524
03/12/2014  00:29:00      171.503      104.773       28.178       64.807       59.322       49.226     4199.959     3519.070     2423.234        2.566        0.507      200.974       33.479        0.028      334.227        4.058      868.553
03/12/2014  00:30:00      233.995      154.063       42.492       90.631       65.049       51.871     8213.905     4231.422     2690.634        4.771        0.757      280.159       31.244        0.012      334.182        3.982      868.565
03/12/2014  00:31:00      257.906      176.689       39.717       91.116       61.398       61.914     8302.157     3769.655     3833.379        5.761        0.795      312.625       38.588        0.015      334.255        4.102      868.561
03/12/2014  00:32:00      287.541      184.039       24.116      151.717      144.691       98.832    23018.124    20935.473     9767.796        8.542        2.686      341.395       61.217        0.032      334.415        4.367      868.542
03/12/2014  00:33:00      342.284      194.988       43.884      179.829      130.150       95.467    32338.471    16939.045     9113.974       10.774        2.920      393.927       33.200        0.007      334.497        4.504      868.540
03/12/2014  00:34:00      354.739      183.145       56.018      153.486      115.162       96.267    23558.081    13262.233     9267.369       10.429        2.304      399.227       52.394        0.017      334.645        4.750      868.520
03/12/2014  00:35:00      268.614      148.729       14.622       84.152       77.733       61.941     7081.567     6042.369     3836.722        5.572        0.848      307.040       43.988        0.021      334.533        4.563      868.543
03/12/2014  00:36:00      287.650      186.931       52.555      127.790      113.058       94.077    16330.346    12782.154     8850.547        7.920        1.898      343.054       82.463        0.058      334.592        4.662      868.542
03/12/2014  00:37:00      269.921      171.007       57.469      173.550      101.809       76.753    30119.747    10365.084     5891.084        7.588        2.319      319.532       52.609        0.027      334.660        4.776      868.537
03/12/2014  00:38:00      322.183      197.721       27.150      120.843       75.032       73.751    14602.942     5629.820     5439.166        8.465        1.284      378.016       19.375        0.003      334.636        4.734      868.581
03/12/2014  00:39:00      428.972      278.285       59.290      147.819      102.732       94.118    21850.519    10553.783     8858.220       15.311        2.063      511.331       67.480        0.017      334.866        5.118      868.563
03/12/2014  00:40:00      304.224      187.025       43.130      117.362       85.825       79.934    13773.921     7365.874     6389.453        7.845        1.376      357.114       48.941        0.019      334.771        4.960      868.570
03/12/2014  00:41:00      224.435      173.441        3.094      130.409       85.485       62.870    17006.543     7307.749     3952.620        5.436        1.413      283.642       51.768        0.033      334.661        4.776      868.582
03/12/2014  00:42:00      236.414      167.486       49.168      143.268       95.087       76.012    20525.749     9041.475     5777.865        6.085        1.767      289.729       49.687        0.029      334.616        4.702      868.574
03/12/2014  00:43:00      242.167      194.546       16.165       98.680       72.999       54.971     9737.807     5328.923     3021.830        5.742        0.904      310.633       39.767        0.016      334.526        4.554      868.582
03/12/2014  00:44:00      283.013      203.031       36.986      142.278       94.195       97.223    20242.968     8872.748     9452.247        8.062        1.928      348.307       56.798        0.027      334.547        4.587      868.570
03/12/2014  00:45:00      282.694      217.039       29.215      151.367      100.935       91.756    22911.983    10187.883     8419.222        8.469        2.076      356.401       62.219        0.030      334.631        4.728      868.548
03/12/2014  00:46:00      235.307      152.804       27.124      138.010      100.946       82.710    19046.818    10190.154     6840.963        5.776        1.804      280.568       32.357        0.013      334.572        4.629      868.548
03/12/2014  00:47:00      261.566      181.387       33.512      111.345       78.662       74.508    12397.725     6187.709     5551.387        6.328        1.207      318.305       19.750        0.004      334.550        4.591      868.544
03/12/2014  00:48:00      272.718      193.000       32.877      108.248       73.096       69.789    11717.691     5343.051     4870.463        6.731        1.097      334.102       26.606        0.006      334.537        4.570      868.553
03/12/2014  00:49:00      281.896      192.576       28.825       82.923       77.397       68.274     6876.199     5990.286     4661.326        6.745        0.876      341.395       51.333        0.023      334.473        4.467      868.561
03/12/2014  00:50:00      285.691      179.088       45.985      118.617       93.170       75.797    14070.000     8680.646     5745.201        7.215        1.425      337.183       47.915        0.020      334.523        4.546      868.572
03/12/2014  00:51:00      217.732      134.722       47.016      107.860       70.277       60.363    11633.750     4938.852     3643.730        4.399        1.011      256.042       51.834        0.041      334.420        4.378      868.597
03/12/2014  00:52:00      240.065      166.074       31.743       65.970       70.345       66.191     4352.098     4948.374     4381.244        4.995        0.684      291.911       16.480        0.003      334.423        4.381      868.612
03/12/2014  00:53:00      238.365      164.860       40.330      133.096       83.348       68.629    17714.472     6946.854     4709.914        5.749        1.469      289.822       15.326        0.003      334.409        4.360      868.618
03/12/2014  00:54:00      182.275       96.053       34.449      174.247       70.080       76.285    30362.044     4911.205     5819.391        4.236        2.055      206.035       14.375        0.005      334.435        4.403      868.622
03/12/2014  00:55:00      265.248      168.893       23.292      129.887       70.122       75.597    16870.641     4917.072     5714.860        6.346        1.375      314.454       46.011        0.021      334.441        4.411      868.618
03/12/2014  00:56:00      230.936      145.525       31.420       75.597       62.961       54.805     5714.959     3964.136     3003.613        4.409        0.634      272.963       36.625        0.018      334.375        4.303      868.607
03/12/2014  00:57:00      278.363      181.056       62.280       94.007       67.867       56.509     8837.324     4605.870     3193.265        6.539        0.832      332.066       36.293        0.012      334.404        4.351      868.627
03/12/2014  00:58:00      275.344      167.881       48.904       86.596       81.268       60.510     7498.873     6604.495     3661.496        6.207        0.888      322.488       23.492        0.005      334.401        4.345      868.614
03/12/2014  00:59:00      246.422      169.491       26.517       81.718       68.032       68.166     6677.850     4628.339     4646.589        5.305        0.798      299.084       32.180        0.012      334.349        4.260      868.608
03/12/2014  01:00:00      254.587      175.838       47.483      101.382       85.413       71.562    10278.332     7295.382     5121.142        6.034        1.135      309.409       37.406        0.015      334.415        4.370      868.598
03/12/2014  01:01:00      308.133      196.491       25.963       97.596      100.082       72.837     9524.969    10016.502     5305.183        7.953        1.242      365.451       45.790        0.016      334.437        4.405      868.606
03/12/2014  01:02:00      300.458      216.231       55.154      105.574       88.489       82.387    11145.956     7830.218     6787.662        8.291        1.288      370.176       50.674        0.019      334.550        4.591      868.593
03/12/2014  01:03:00      254.566      170.359       22.349      132.692      102.012       83.635    17607.113    10406.465     6994.781        6.466        1.750      306.310       50.024        0.027      334.513        4.529      868.607
03/12/2014  01:04:00      272.659      162.696       10.099      122.734       93.555       82.555    15063.693     8752.575     6815.355        6.577        1.532      317.511       44.869        0.020      334.492        4.497      868.612
03/12/2014  01:05:00      242.385      167.933       24.618      117.637       83.380       66.259    13838.518     6952.230     4390.292        5.636        1.259      294.877       39.413        0.018      334.482        4.480      868.641
03/12/2014  01:06:00      198.563      124.920       51.948      109.582       81.257       61.068    12008.210     6602.623     3729.253        4.003        1.117      234.589       25.649        0.012      334.444        4.417      868.636
03/12/2014  01:07:00      240.733      145.148       58.654      102.953       91.481       73.374    10599.264     8368.782     5383.807        5.340        1.218      281.106       33.268        0.014      334.469        4.458      868.618
03/12/2014  01:08:00      270.559      163.518       35.503      143.758      103.766       92.175    20666.448    10767.433     8496.181        7.056        1.997      316.133       56.924        0.032      334.515        4.535      868.607
03/12/2014  01:09:00      195.144      126.530       36.788       96.537       67.829       64.466     9319.435     4600.718     4155.885        3.676        0.904      232.575       28.400        0.015      334.422        4.381      868.600
03/12/2014  01:10:00      260.605      158.455       26.505       90.813       76.301       69.563     8247.006     5821.905     4839.071        5.631        0.945      304.996       52.777        0.030      334.424        4.383      868.590
03/12/2014  01:11:00      166.139      124.424       34.383       73.381       72.980       57.880     5384.791     5326.025     3350.044        2.916        0.703      207.566       34.803        0.028      334.296        4.174      868.576
03/12/2014  01:12:00      240.687      138.882       40.234       96.339       75.752       56.982     9281.209     5738.355     3246.982        4.855        0.913      277.882       32.113        0.013      334.293        4.165      868.571
03/12/2014  01:13:00      251.671      147.251       28.056       95.200       76.341       60.773     9062.965     5827.886     3693.352        5.219        0.929      291.584       29.640        0.010      334.314        4.201      868.573
03/12/2014  01:14:00      225.268      137.363       45.413      105.318       74.280       46.378    11091.881     5517.551     2150.911        4.521        0.938      263.846       35.073        0.018      334.298        4.177      868.567
03/12/2014  01:15:00      231.053      161.353       34.388       91.713       67.063       65.261     8411.311     4497.415     4258.981        4.888        0.858      281.816       43.713        0.024      334.268        4.125      868.564
03/12/2014  01:16:00      276.347      144.864       22.644      109.931       85.264       75.375    12084.934     7269.917     5681.388        6.145        1.252      312.015       33.111        0.011      334.230        4.061      868.551
03/12/2014  01:17:00      253.357      160.762       56.963       96.171       76.613       56.816     9248.832     5869.517     3228.015        5.581        0.917      300.057       25.591        0.007      334.214        4.034      868.535
03/12/2014  01:18:00      191.553      112.134       31.783       86.546       76.675       51.782     7490.163     5879.032     2681.325        3.316        0.803      221.961       16.468        0.006      334.126        3.888      868.552
03/12/2014  01:19:00      218.468      113.980       24.506       87.513       66.870       52.432     7658.441     4471.570     2749.096        3.810        0.744      246.414       18.692        0.006      334.169        3.960      868.528
03/12/2014  01:20:00      171.851       73.003       32.249       91.350       76.066       53.385     8344.795     5786.024     2849.973        2.644        0.849      186.714       38.715        0.043      334.084        3.820      868.543
03/12/2014  01:21:00      225.141      131.914       43.574       80.849       71.401       55.461     6536.554     5098.156     3075.926        4.235        0.736      260.940       27.021        0.011      334.081        3.815      868.543
03/12/2014  01:22:00      189.665       97.816       28.918       93.341       68.154       40.468     8712.472     4644.985     1637.640        3.068        0.750      213.403       10.967        0.003      334.050        3.764      868.546
03/12/2014  01:23:00      178.853       98.882       21.362       88.318       56.341       44.844     7800.022     3174.293     2010.991        2.760        0.649      204.368       15.823        0.006      334.033        3.737      868.576
03/12/2014  01:24:00      233.911      153.110       45.203       80.836       73.778       53.343     6534.477     5443.176     2845.445        4.751        0.741      279.566       30.288        0.012      334.048        3.761      868.591
03/12/2014  01:25:00      221.430      150.035       31.371       93.134       68.056       55.490     8673.991     4631.609     3079.128        4.445        0.819      267.473       32.280        0.015      334.004        3.688      868.591
03/12/2014  01:26:00      214.567      156.810       33.665      104.203       67.391       78.459    10858.238     4541.551     6155.788        4.665        1.078      265.760       46.447        0.031      333.993        3.670      868.572
03/12/2014  01:27:00      144.670       99.398       19.046       57.827       51.656       51.543     3343.980     2668.293     2656.645        1.992        0.433      175.526       27.045        0.024      333.944        3.589      868.545
03/12/2014  01:28:00      180.174      128.800       24.191       98.091       71.665       48.956     9621.851     5135.896     2396.734        3.339        0.858      221.477       32.533        0.022      333.937        3.580      868.553
03/12/2014  01:29:00      151.397       94.528       43.727       73.686       65.694       52.575     5429.639     4315.657     2764.165        2.314        0.625      178.484       25.647        0.021      333.869        3.463      868.559
03/12/2014  01:30:00      216.432      135.664       41.915      107.293       69.862       58.514    11511.839     4880.689     3423.875        4.341        0.991      255.436       28.947        0.013      333.970        3.630      868.539
03/12/2014  01:31:00      196.560       86.619       34.073       79.871       69.722       51.843     6379.326     4861.118     2687.718        3.061        0.696      214.800       23.631        0.012      333.963        3.618      868.530
03/12/2014  01:32:00      173.405      120.197       29.606       68.383       59.383       54.545     4676.291     3526.344     2975.207        2.828        0.559      210.989       28.924        0.019      333.974        3.638      868.534
03/12/2014  01:33:00      235.800      129.285       34.046       84.285       75.287       45.179     7103.991     5668.097     2041.115        4.414        0.741      268.917       12.427        0.002      334.011        3.698      868.528
03/12/2014  01:34:00      212.381      138.794       49.023       77.544       72.455       66.593     6013.019     5249.707     4434.589        4.123        0.785      253.711       48.274        0.036      334.049        3.761      868.529
03/12/2014  01:35:00      178.748       73.853       51.671      130.933       82.510       75.383    17143.462     6807.908     5682.567        3.485        1.482      193.404       50.353        0.068      334.153        3.935      868.522
03/12/2014  01:36:00      219.664       95.488       45.366      108.424       84.831       69.222    11755.771     7196.309     4791.649        4.158        1.187      239.521       38.881        0.026      334.201        4.013      868.510
03/12/2014  01:37:00      248.606      128.577       47.259       97.326       83.346       72.840     9472.309     6946.515     5305.710        5.114        1.086      279.888       34.087        0.015      334.260        4.111      868.513
03/12/2014  01:38:00      214.831      140.053       60.597      126.398      104.026       76.911    15976.483    10821.419     5915.344        5.107        1.636      256.451       49.695        0.038      334.299        4.177      868.527
03/12/2014  01:39:00      255.411      191.760       61.843       67.473       70.734       73.170     4552.620     5003.250     5353.893        6.037        0.745      319.385       44.491        0.019      334.310        4.195      868.544
03/12/2014  01:40:00      219.976      130.962       53.244       99.570       77.300       67.770     9914.148     5975.342     4592.711        4.442        1.024      256.009       41.562        0.026      334.290        4.161      868.553
03/12/2014  01:41:00      264.971      140.369       54.183       91.481       75.375       72.870     8368.738     5681.319     5310.050        5.610        0.968      299.855       41.006        0.019      334.315        4.203      868.561
03/12/2014  01:42:00      195.852      110.135       44.635       65.077       55.592       49.904     4235.073     3090.429     2490.384        3.115        0.491      224.695       26.913        0.014      334.276        4.137      868.566
03/12/2014  01:43:00      162.768      105.507       32.115       91.898       72.895       50.208     8445.160     5313.708     2520.814        2.746        0.814      193.972       36.445        0.035      334.279        4.144      868.571
03/12/2014  01:44:00      175.463      107.090       25.785       73.177       55.410       55.105     5354.843     3070.285     3036.550        2.719        0.573      205.562       33.814        0.027      334.273        4.135      868.577
03/12/2014  01:45:00      163.665      106.022       14.271       58.082       50.328       46.559     3373.490     2532.957     2167.760        2.315        0.404      195.005       24.201        0.015      334.256        4.106      868.589
03/12/2014  01:46:00      181.437       95.159       20.451       76.647       72.275       50.596     5874.729     5223.651     2559.996        2.802        0.683      204.877       10.342        0.003      334.257        4.106      868.591
03/12/2014  01:47:00      150.341       88.417       21.880       92.815       73.704       46.888     8614.676     5432.287     2198.531        2.357        0.812      174.413       19.571        0.013      334.225        4.056      868.591
03/12/2014  01:48:00      194.600      126.937       16.317       62.386       53.262       45.537     3892.022     2836.790     2073.614        3.152        0.440      232.340       32.655        0.020      334.241        4.079      868.600
03/12/2014  01:49:00      183.557      107.297       28.727       70.405       75.686       55.445     4956.824     5728.420     3074.203        2.989        0.688      212.617       22.050        0.011      334.251        4.097      868.600
03/12/2014  01:50:00      139.098      117.898       33.748       87.211       70.154       54.018     7605.814     4921.581     2917.893        2.491        0.772      182.341       35.739        0.038      334.231        4.063      868.601
03/12/2014  01:51:00      187.751      134.604       19.967       82.046       65.573       69.481     6731.481     4299.873     4827.647        3.481        0.793      231.016       47.559        0.042      334.231        4.062      868.625
03/12/2014  01:52:00       84.625       68.482       12.062       75.426       50.467       44.699     5689.127     2546.882     1997.990        1.111        0.512      108.863       23.702        0.047      334.128        3.895      868.646
03/12/2014  01:53:00      138.436       74.461       41.138       83.863       53.049       53.836     7032.924     2814.178     2898.330        1.957        0.637      157.191       33.050        0.044      334.169        3.962      868.651
03/12/2014  01:54:00      177.333      100.760       37.933      100.289       92.811       53.921    10057.825     8613.853     2907.498        3.230        1.079      203.960       22.815        0.013      334.236        4.073      868.663
03/12/2014  01:55:00      150.601      115.156       47.099       57.995       56.532       47.522     3363.402     3195.892     2258.316        2.349        0.441      189.583       37.109        0.038      334.223        4.051      868.673
03/12/2014  01:56:00      127.012       69.214       16.218       73.840       71.133       44.406     5452.388     5059.932     1971.915        1.683        0.624      144.647       29.950        0.043      334.141        3.916      868.679
03/12/2014  01:57:00      125.247       90.167       33.739       76.365       61.344       56.035     5831.539     3763.124     3139.975        1.884        0.637      154.327       16.035        0.011      334.171        3.966      868.674
03/12/2014  01:58:00      101.641       84.058       27.400       80.648       63.086       46.207     6504.170     3979.804     2135.086        1.538        0.631      131.896       18.672        0.020      334.203        4.018      868.683
03/12/2014  01:59:00      147.290       68.266       16.999       52.835       43.674       37.615     2791.522     1907.457     1414.874        1.638        0.306      162.341       26.656        0.027      334.200        4.015      868.703
03/12/2014  02:00:00      107.425       83.257       35.407       77.694       66.173       48.171     6036.373     4378.915     2320.422        1.623        0.637      135.911       41.070        0.091      334.223        4.052      868.731
03/12/2014  02:01:00      163.756      119.128       46.430      107.896       82.448       57.059    11641.441     6797.746     3255.696        3.242        1.085      202.503       43.565        0.046      334.297        4.175      868.758
03/12/2014  02:02:00      108.667       55.215       37.484       75.584       56.723       49.089     5712.982     3217.536     2409.722        1.380        0.567      121.890       21.175        0.030      334.286        4.157      868.758
03/12/2014  02:03:00       73.931       44.299       26.413       44.268       49.995       29.734     1959.691     2499.524      884.102        0.673        0.267       86.187       16.358        0.036      334.273        4.138      868.767
03/12/2014  02:04:00       26.270       22.755        2.681       26.124       34.837       30.745      682.460     1213.604      945.231        0.203        0.142       34.755       15.363        0.195      334.275        4.143      868.774
03/12/2014  02:05:00       68.720       20.310       25.122       59.450       58.287       30.280     3534.249     3397.326      916.882        0.681        0.392       71.658       15.646        0.048      334.301        4.183      868.774
03/12/2014  02:06:00       44.113       19.105        6.650       29.231       22.911       19.758      854.426      524.929      390.390        0.206        0.088       48.072        5.823        0.015      334.316        4.208      868.780
03/12/2014  02:07:00       14.977       17.892       18.671       30.089       26.319       14.962      905.372      692.677      223.864        0.136        0.091       23.333       14.897        0.408      334.319        4.215      868.782
03/12/2014  02:08:00       84.646       58.384       37.251       40.893       45.578       36.979     1672.257     2077.336     1367.412        0.854        0.256      102.828       11.535        0.013      334.425        4.389      868.776
03/12/2014  02:09:00       22.244        7.231       22.032       20.562       26.207       21.267      422.804      686.803      452.302        0.130        0.078       23.390       16.867        0.520      334.378        4.311      868.776
03/12/2014  02:10:00       24.524      -26.478       10.737       35.885       24.740       23.230     1287.700      612.076      539.634        0.193        0.122       36.091       10.731        0.088      334.471        4.467      868.759
03/12/2014  02:11:00      -17.618      -58.071        7.240       49.956       38.756       26.295     2495.647     1502.009      691.420        0.421        0.234       60.685       17.483        0.083      334.395        4.340      868.718
03/12/2014  02:12:00      -29.349      -82.972        5.828       48.047       62.728       33.490     2308.528     3934.860     1121.594        0.757        0.368       88.010       34.231        0.151      334.351        4.267      868.681
03/12/2014  02:13:00      -78.524     -138.464      -11.964       51.421       59.273       22.424     2644.150     3513.316      502.842        1.607        0.333      159.180       23.632        0.022      334.257        4.109      868.672
03/12/2014  02:14:00      -49.903     -137.372      -12.141       48.984       46.780       29.287     2399.444     2188.405      857.731        1.348        0.272      146.155       21.637        0.022      334.243        4.087      868.666
03/12/2014  02:15:00     -105.655     -119.142       -5.341       45.424       40.258       27.248     2063.327     1620.690      742.465        1.491        0.221      159.241       23.849        0.022      334.125        3.890      868.635
03/12/2014  02:16:00     -100.488      -68.147       -3.017       49.370       36.629       27.407     2437.354     1341.647      751.154        0.964        0.227      121.416       24.967        0.042      334.113        3.870      868.595
03/12/2014  02:17:00     -133.658     -137.200        6.200       78.897       71.192       45.046     6224.754     5068.298     2029.175        2.502        0.666      191.542       46.674        0.059      334.198        4.009      868.570
03/12/2014  02:18:00     -171.581     -138.842        1.102       82.732       75.212       41.808     6844.509     5656.919     1747.948        3.148        0.712      220.720       40.140        0.033      334.290        4.162      868.560
03/12/2014  02:19:00     -188.952     -125.204       -5.381       66.766       77.486       43.575     4457.691     6004.039     1898.740        3.188        0.618      226.669       43.126        0.036      334.309        4.193      868.564
03/12/2014  02:20:00     -175.449      -71.018       -8.879       61.159       62.235       37.455     3740.374     3873.197     1402.881        2.246        0.451      189.277       35.499        0.035      334.227        4.058      868.566
03/12/2014  02:21:00     -106.451      -75.867        2.814       57.282       50.400       35.584     3281.178     2540.192     1266.188        1.209        0.354      130.720       32.675        0.062      334.132        3.903      868.576
03/12/2014  02:22:00     -113.234      -86.923       -2.358       70.737       65.775       35.148     5003.658     4326.295     1235.401        1.547        0.528      142.750       36.648        0.066      334.145        3.923      868.600
03/12/2014  02:23:00      -84.708      -33.195        2.422       43.324       36.414       20.844     1876.934     1325.943      434.459        0.596        0.182       90.980       24.084        0.070      334.046        3.759      868.608
03/12/2014  02:24:00     -120.956      -12.325       -4.808       41.717       29.148       22.731     1740.271      849.614      516.721        0.896        0.155      121.582       21.792        0.032      333.891        3.502      868.615
03/12/2014  02:25:00     -134.413      -51.826       -2.138       87.286       44.046       29.347     7618.876     1940.088      861.273        1.559        0.521      144.058       30.887        0.046      333.779        3.315      868.630
03/12/2014  02:26:00     -206.499      -61.323       -5.643       65.311       38.120       24.746     4265.551     1453.138      612.377        2.638        0.317      215.412       14.268        0.004      333.717        3.210      868.638
03/12/2014  02:27:00     -196.027      -52.803       -8.945       62.844       47.243       31.349     3949.340     2231.906      982.770        2.423        0.358      203.014       29.540        0.021      333.668        3.132      868.644
03/12/2014  02:28:00     -211.371      -79.416       -4.377       63.711       44.807       34.507     4059.108     2007.699     1190.765        2.913        0.363      225.797       32.866        0.021      333.621        3.053      868.643
03/12/2014  02:29:00     -237.812      -90.887      -12.502       54.206       52.678       27.431     2938.277     2774.950      752.444        3.572        0.323      254.588       23.539        0.009      333.643        3.086      868.627
03/12/2014  02:30:00     -137.894      -39.596        2.768       63.203       66.280       36.181     3994.609     4392.998     1309.048        1.514        0.485      143.467       36.974        0.066      333.594        3.011      868.619
03/12/2014  02:31:00     -144.192      -67.598       -6.451       48.877       57.161       28.343     2388.930     3267.376      803.326        1.593        0.323      159.250       26.247        0.027      333.677        3.147      868.583
03/12/2014  02:32:00     -175.771      -44.375        0.645       62.059       56.009       33.628     3851.261     3136.979     1130.819        2.049        0.406      181.285       31.658        0.030      333.626        3.062      868.569
03/12/2014  02:33:00      -98.241      -83.315        1.996       65.614       78.155       33.166     4305.248     6108.194     1099.996        1.405        0.576      128.813       31.864        0.061      333.731        3.236      868.572
03/12/2014  02:34:00     -120.789      -52.956        3.295       49.836       39.005       30.033     2483.630     1521.399      901.994        1.116        0.245      131.887       22.951        0.030      333.695        3.177      868.561
03/12/2014  02:35:00      -39.164      -15.868       13.371       33.612       24.527       19.352     1129.749      601.591      374.510        0.203        0.105       42.256       17.132        0.164      333.668        3.133      868.562
03/12/2014  02:36:00      -43.146      -10.089        4.167       28.922       26.446       15.155      836.455      699.387      229.671        0.187        0.088       44.310        6.546        0.022      333.676        3.149      868.585
03/12/2014  02:37:00     -106.798       -4.032       -8.657       32.879       31.164       21.310     1081.027      971.175      454.096        0.700        0.125      106.874       17.775        0.028      333.619        3.053      868.586
03/12/2014  02:38:00     -134.428      -34.803        2.574       54.758       53.621       30.732     2998.455     2875.180      944.468        1.305        0.341      138.860       22.516        0.026      333.554        2.946      868.562
03/12/2014  02:39:00     -177.204      -76.040       -0.611       60.684       52.712       30.954     3682.539     2778.539      958.140        2.230        0.371      192.829       21.622        0.013      333.559        2.950      868.551
03/12/2014  02:40:00     -133.221      -79.476        8.619       75.017       50.659       35.172     5627.477     2566.342     1237.071        1.678        0.472      155.127       37.364        0.058      333.452        2.773      868.548
03/12/2014  02:41:00     -116.090      -14.674        7.663       57.232       34.349       25.809     3275.531     1179.846      666.098        0.944        0.256      117.014       24.206        0.043      333.453        2.778      868.557
03/12/2014  02:42:00     -117.395      -31.745      -12.520       27.684       31.559       17.535      766.423      995.974      307.490        0.851        0.103      121.611       11.874        0.010      333.427        2.733      868.579
03/12/2014  02:43:00     -107.373      -40.023      -15.270       25.698       30.707       18.045      660.364      942.911      325.624        0.765        0.096      114.590       11.692        0.010      333.370        2.641      868.569
03/12/2014  02:44:00     -150.258      -66.503       -7.682       52.393       53.432       22.574     2745.062     2854.977      509.584        1.658        0.305      164.318       16.386        0.010      333.447        2.766      868.522
03/12/2014  02:45:00     -183.777      -75.783       -2.691       79.903       56.393       38.234     6384.516     3180.136     1461.859        2.527        0.551      198.789       35.570        0.032      333.510        2.870      868.487
03/12/2014  02:46:00     -162.274     -121.930       -3.249       60.675       69.188       28.628     3681.507     4786.972      819.573        2.525        0.464      202.977       21.912        0.012      333.607        3.029      868.486
03/12/2014  02:47:00      -65.272      -71.029        1.218       46.104       43.286       25.926     2125.564     1873.673      672.137        0.699        0.234       96.465       25.102        0.068      333.745        3.261      868.500
03/12/2014  02:48:00      -40.399      -89.635        5.903       49.353       22.459       26.824     2435.694      504.398      719.545        0.668        0.183       98.319       16.262        0.027      333.855        3.444      868.511
03/12/2014  02:49:00      -97.154      -77.834        6.919       86.770       50.321       38.907     7528.997     2532.242     1513.764        1.356        0.579      124.487       42.635        0.117      333.793        3.341      868.512
03/12/2014  02:50:00      -49.351      -81.626       -7.777       58.106       53.780       28.063     3376.330     2892.248      787.511        0.811        0.353       95.385       29.313        0.094      333.882        3.488      868.499
03/12/2014  02:51:00      -74.901      -57.687       13.106       54.003       32.942       31.584     2916.296     1085.182      997.563        0.705        0.250       94.540       26.671        0.080      333.813        3.373      868.478
03/12/2014  02:52:00     -125.045      -86.267      -12.995       59.303       32.847       30.027     3516.830     1078.942      901.631        1.437        0.275      151.915       26.890        0.031      333.764        3.292      868.444
03/12/2014  02:53:00      -88.700      -69.210        1.540       59.170       28.298       29.710     3501.134      800.783      882.686        0.892        0.259      112.506       27.373        0.059      333.761        3.287      868.423
03/12/2014  02:54:00      -71.642      -64.077        3.105       38.327       42.040       26.713     1468.984     1767.361      713.568        0.660        0.197       96.117       24.626        0.066      333.736        3.248      868.424
03/12/2014  02:55:00      -79.840      -57.740        2.917       50.121       30.087       19.357     2512.138      905.227      374.676        0.675        0.190       98.531       23.915        0.059      333.736        3.247      868.423
03/12/2014  02:56:00      -87.184      -29.219       10.401       53.318       32.050       24.500     2842.768     1027.218      600.243        0.652        0.224       91.950       25.874        0.079      333.775        3.310      868.413
03/12/2014  02:57:00      -85.452      -74.301       -7.497       56.648       33.473       24.847     3209.031     1120.413      617.369        0.891        0.247      113.237       27.674        0.060      333.887        3.497      868.402
03/12/2014  02:58:00      -87.138      -82.621        2.125       71.824       64.563       29.468     5158.680     4168.415      868.352        1.231        0.510      120.080       33.877        0.080      333.911        3.537      868.394
03/12/2014  02:59:00      -84.165      -74.509        1.272       62.882       46.172       31.800     3954.176     2131.876     1011.243        0.987        0.355      112.407       31.758        0.080      333.887        3.497      868.383
03/12/2014  03:00:00     -103.596      -58.515        1.318       31.796       29.202       20.044     1010.973      852.763      401.779        0.821        0.113      118.980        8.992        0.006      333.799        3.351      868.368
03/12/2014  03:01:00      -88.055      -59.266       -3.650       36.337       18.932       17.517     1320.345      358.439      306.832        0.663        0.099      106.142        2.226        0.000      333.761        3.289      868.360
03/12/2014  03:02:00      -37.367      -74.644        3.814       33.728       28.850       22.123     1137.571      832.342      489.416        0.472        0.123       83.475       18.727        0.050      333.889        3.501      868.345
03/12/2014  03:03:00      -49.847      -58.792       12.002       43.781       32.977       19.028     1916.746     1087.485      362.071        0.473        0.168       77.079       15.546        0.041      333.838        3.415      868.346
03/12/2014  03:04:00      -82.001      -83.094        2.129       42.837       41.866       28.115     1835.027     1752.740      790.456        0.900        0.219      116.742       29.433        0.064      333.961        3.619      868.362
03/12/2014  03:05:00      -96.905     -131.249        0.460       35.494       44.912       25.754     1259.831     2017.082      663.257        1.528        0.197      163.146       22.157        0.018      334.213        4.037      868.365
03/12/2014  03:06:00     -102.967      -83.047       -4.965       50.453       34.881       25.279     2545.514     1216.655      639.019        1.096        0.220      132.284       23.903        0.033      334.134        3.907      868.351
03/12/2014  03:07:00      -68.247      -86.927        0.309       53.193       40.896       26.207     2829.519     1672.451      686.832        0.870        0.259      110.517       29.099        0.069      334.241        4.083      868.339
03/12/2014  03:08:00      -17.366      -39.361       18.321       40.368       30.061       21.068     1629.575      903.683      443.864        0.258        0.149       43.021       22.144        0.265      334.208        4.030      868.328
03/12/2014  03:09:00      -62.704      -71.161       -5.589       47.631       34.479       23.104     2268.755     1188.823      533.793        0.651        0.200       94.845       22.479        0.056      334.352        4.269      868.321
03/12/2014  03:10:00      -35.216      -25.428        6.459       49.766       40.344       20.352     2476.618     1627.644      414.202        0.322        0.226       43.437       22.098        0.259      334.254        4.105      868.322
03/12/2014  03:11:00      -17.228        2.163        5.019       23.460        8.895       12.258      550.378       79.129      150.259        0.055        0.039       17.364        7.967        0.211      334.112        3.869      868.326
03/12/2014  03:12:00      -24.749      -12.836       -2.170       25.139        8.401        6.318      631.952       70.570       39.914        0.076        0.037       27.880        8.865        0.101      334.226        4.059      868.326
03/12/2014  03:13:00      -36.364      -22.249       -3.993       18.549       10.164        6.413      344.049      103.306       41.128        0.116        0.024       42.630        5.480        0.017      334.122        3.887      868.317
03/12/2014  03:14:00        7.966       -1.115       -3.753       12.485        8.377        8.175      155.884       70.178       66.830        0.019        0.015        8.044        5.772        0.515      334.157        3.945      868.307
03/12/2014  03:15:00      -47.739      -13.070      -11.648       29.260       15.643        9.216      856.124      244.711       84.938        0.189        0.059       49.496        8.881        0.032      334.235        4.075      868.280
03/12/2014  03:16:00      -70.777       -2.444       -3.182       15.558       11.220        7.329      242.067      125.892       53.718        0.272        0.021       70.819        6.684        0.009      334.351        4.267      868.247
03/12/2014  03:17:00      -68.399       -4.972       -4.769       32.668       17.958       11.917     1067.231      322.479      142.014        0.313        0.077       68.580        9.285        0.018      334.110        3.865      868.231
03/12/2014  03:18:00     -107.810       -3.794      -12.859       18.244       15.500       12.410      332.835      240.239      154.012        0.626        0.036      107.877        5.743        0.003      334.095        3.843      868.217
03/12/2014  03:19:00      -25.468       -9.086        0.508       27.595       15.072        9.121      761.493      227.157       83.190        0.090        0.054       27.040        5.852        0.047      333.917        3.548      868.223
03/12/2014  03:20:00       -6.171        5.409      -10.621       10.568        8.968        6.694      111.685       80.425       44.809        0.021        0.012        8.206        5.337        0.423      333.893        3.507      868.235
03/12/2014  03:21:00       44.700       37.705        7.359       20.690       15.289       17.020      428.083      233.763      289.669        0.221        0.048       58.479       10.929        0.035      334.115        3.876      868.224
03/12/2014  03:22:00       50.963        7.142        2.496       21.900       17.214       14.588      479.590      296.324      212.809        0.182        0.049       51.461        7.256        0.020      334.391        4.334      868.189
03/12/2014  03:23:00      -21.861       -1.123       -5.998       27.404       16.501       12.652      751.005      272.282      160.075        0.085        0.059       21.890        9.136        0.174      334.227        4.062      868.161
03/12/2014  03:24:00      -68.296        6.141       -9.854       18.894       11.186       10.996      356.981      125.133      120.921        0.270        0.030       68.572        9.860        0.021      333.858        3.448      868.144
03/12/2014  03:25:00      -91.736        7.680      -11.635       17.587       16.064       13.332      309.298      258.063      177.732        0.468        0.037       92.057        9.803        0.011      333.807        3.364      868.119
03/12/2014  03:26:00      -62.937       23.514       -9.159       20.829       37.703       14.274      433.834     1421.518      203.751        0.333        0.103       67.186       15.331        0.052      333.890        3.501      868.133
03/12/2014  03:27:00      -19.381       51.536      -12.905       28.586       23.411       11.237      817.148      548.062      126.262        0.234        0.075       55.060       11.811        0.046      334.189        3.996      868.169
03/12/2014  03:28:00       18.679      125.723      -18.475       17.941       32.534       16.949      321.883     1058.492      287.269        0.908        0.083      127.103       17.496        0.019      333.992        3.670      868.204
03/12/2014  03:29:00       32.461      120.919      -19.833       22.571       31.379       19.256      509.462      984.667      370.802        0.897        0.093      125.200       15.095        0.015      333.758        3.283      868.220
03/12/2014  03:30:00       -6.948      122.166      -21.486       13.832       15.676        8.344      191.315      245.742       69.621        0.797        0.025      122.363        8.438        0.005      334.091        3.835      868.224
03/12/2014  03:31:00      -61.401       75.199      -16.089       33.068       38.947       18.153     1093.488     1516.894      329.533        0.631        0.147       97.082        9.823        0.010      334.019        3.715      868.193
03/12/2014  03:32:00      -77.304       -0.486      -15.619       19.560       19.936       12.597      382.588      397.424      158.697        0.358        0.047       77.305       10.710        0.019      333.550        2.939      868.157
03/12/2014  03:33:00      -57.373      -24.259       -9.735       16.447       11.861        9.547      270.505      140.679       91.152        0.224        0.025       62.290        9.050        0.021      333.409        2.704      868.147
03/12/2014  03:34:00      -62.477       -0.725      -11.597       22.931       29.221       15.366      525.809      853.856      236.124        0.283        0.081       62.481        9.964        0.025      333.289        2.505      868.142
03/12/2014  03:35:00      -96.411       24.494      -18.110       24.983       23.025       14.121      624.130      530.147      199.410        0.579        0.068       99.474        8.667        0.008      333.564        2.960      868.135
03/12/2014  03:36:00      -65.701      -17.461       -5.015       27.121       23.677       18.318      735.526      560.591      335.556        0.314        0.082       67.982       13.262        0.038      333.489        2.837      868.114
03/12/2014  03:37:00      -41.970      -27.998       -8.077       29.695       26.848       12.754      881.799      720.816      162.672        0.219        0.088       50.452       11.829        0.055      333.319        2.557      868.110
03/12/2014  03:38:00      -23.207      -26.288        3.261       26.617       25.574       20.078      708.491      654.032      403.136        0.150        0.088       35.066       14.661        0.175      333.327        2.569      868.113
03/12/2014  03:39:00      -27.855       15.338       -3.669       33.799       23.815       16.106     1142.368      567.165      259.405        0.150        0.098       31.799       12.906        0.165      333.451        2.772      868.123
03/12/2014  03:40:00      -57.979       20.197       -4.275       24.564       29.279       17.781      603.410      857.276      316.156        0.278        0.089       61.396       15.474        0.064      333.704        3.193      868.109
03/12/2014  03:41:00        3.043       53.357       -4.178       38.698       16.349       12.535     1497.549      267.304      157.136        0.240        0.096       53.444       10.126        0.036      333.774        3.308      868.093
03/12/2014  03:42:00       17.191       48.981       -4.452       20.988       37.050       19.637      440.495     1372.730      385.601        0.246        0.110       51.910       19.762        0.145      333.875        3.476      868.094
03/12/2014  03:43:00       90.990       35.269        5.598       38.664       35.296       29.588     1494.897     1245.818      875.479        0.658        0.181       97.586       11.811        0.015      333.985        3.659      868.108
03/12/2014  03:44:00      100.918       14.156       13.292       52.464       41.037       29.844     2752.449     1684.043      890.661        0.794        0.266      101.906       26.408        0.067      334.398        4.343      868.107
03/12/2014  03:45:00       91.636       10.642       16.470       48.000       65.682       31.112     2303.966     4314.084      967.969        0.818        0.379       92.251       30.461        0.109      334.342        4.253      868.090
03/12/2014  03:46:00       74.564       16.432       22.434       39.175       53.775       32.728     1534.705     2891.779     1071.124        0.591        0.275       76.353       27.314        0.128      334.232        4.070      868.076
03/12/2014  03:47:00       68.186       39.310       20.623       32.219       25.053       22.589     1038.056      627.634      510.266        0.440        0.109       78.706       10.607        0.018      334.127        3.894      868.066
03/12/2014  03:48:00       58.950       39.190        3.866       35.700       23.439       20.140     1274.465      549.397      405.627        0.363        0.111       70.788       16.515        0.054      334.049        3.766      868.048
03/12/2014  03:49:00       25.572       33.435        3.849       31.484       36.842       19.019      991.218     1357.338      361.738        0.225        0.136       42.093       20.371        0.234      334.118        3.880      868.019
03/12/2014  03:50:00       24.763       93.334      -12.402       20.662       41.930       19.775      426.900     1758.103      391.041        0.603        0.129       96.563       21.601        0.050      334.353        4.269      868.004
03/12/2014  03:51:00       67.373       49.054       18.079       32.780       23.648       25.177     1074.504      559.244      633.869        0.477        0.113       83.340       13.823        0.028      334.274        4.139      867.991
03/12/2014  03:52:00       77.646       67.334       12.566       34.420       23.067       21.417     1184.768      532.109      458.675        0.645        0.109      102.776        9.630        0.009      334.312        4.202      867.981
03/12/2014  03:53:00       24.620       42.541       -0.156       28.241       17.661       14.389      797.565      311.905      207.033        0.187        0.066       49.152       11.938        0.059      334.334        4.239      867.984
03/12/2014  03:54:00       36.972       12.192        0.998       26.438       27.269       17.838      698.986      743.581      318.206        0.164        0.088       38.930       13.415        0.119      334.358        4.278      867.990
03/12/2014  03:55:00      -28.783      -19.247        3.755       37.799       19.769       17.936     1428.771      390.832      321.691        0.168        0.107       34.625       23.302        0.453      333.990        3.668      867.998
03/12/2014  03:56:00      -94.557       -2.794      -11.774       10.757       12.781        9.861      115.724      163.363       97.232        0.473        0.019       94.599        5.100        0.003      333.893        3.506      867.997
03/12/2014  03:57:00     -122.452       -8.998      -14.420       13.916       12.089       10.006      193.664      146.133      100.117        0.786        0.022      122.782        7.886        0.004      333.858        3.449      867.990
03/12/2014  03:58:00     -106.863      -11.453      -15.352       20.373       21.746       11.334      415.049      472.910      128.452        0.640        0.051      107.475        8.171        0.006      333.813        3.375      868.011
03/12/2014  03:59:00      -73.446      -21.589       -7.920       21.885       20.101       12.487      478.958      404.042      155.914        0.348        0.052       76.554        5.578        0.005      333.815        3.378      868.034
03/12/2014  04:00:00      -50.177       -3.997       -8.701       15.305       16.639       11.446      234.244      276.857      131.022        0.163        0.032       50.335       11.212        0.050      333.893        3.507      868.041
03/12/2014  04:01:00      -37.045       -6.341      -12.175       12.153       10.772        8.531      147.702      116.032       72.774        0.095        0.017       37.584        4.723        0.016      333.869        3.468      868.051
03/12/2014  04:02:00       33.531       54.893       -9.440       32.304       38.956       19.534     1043.564     1517.591      381.584        0.358        0.147       64.324       18.814        0.086      333.914        3.543      868.070
03/12/2014  04:03:00       -9.988      131.033      -29.272       28.765       27.017       13.756      827.434      729.924      189.237        0.994        0.087      131.413       10.820        0.007      334.156        3.942      868.061
03/12/2014  04:04:00      -18.208       98.108      -24.154       37.305       52.779       17.332     1391.691     2785.619      300.387        0.751        0.224       99.784       11.768        0.014      334.515        4.537      868.058
03/12/2014  04:05:00       -3.359       53.723      -18.665       13.974       29.459        8.613      195.265      867.826       74.185        0.219        0.057       53.828        5.568        0.011      334.619        4.710      868.057
03/12/2014  04:06:00       24.125       44.198       29.377       55.126       28.869       32.205     3038.832      833.392     1037.176        0.415        0.245       50.353       16.487        0.107      334.384        4.321      868.048
03/12/2014  04:07:00      116.429       50.543       31.667       56.681       42.278       41.403     3212.790     1787.454     1714.202        1.191        0.336      126.927       30.743        0.059      334.457        4.442      868.053
03/12/2014  04:08:00       72.860       96.013       63.972       64.940       43.399       49.426     4217.222     1883.473     2442.945        1.358        0.427      120.529       45.484        0.142      334.485        4.489      868.037
03/12/2014  04:09:00      126.279       84.947       36.085       44.486       36.536       40.373     1979.003     1334.855     1629.948        1.470        0.247      152.191       26.214        0.030      334.537        4.574      868.020
03/12/2014  04:10:00       26.665       84.620       -6.387       37.800       36.322       29.993     1428.808     1319.319      899.589        0.578        0.182       88.722       20.873        0.055      334.515        4.538      868.025
03/12/2014  04:11:00       45.100      164.583      -25.358       31.515       37.704       27.151      993.182     1421.576      737.177        1.646        0.158      170.651       21.960        0.017      334.382        4.317      868.026
03/12/2014  04:12:00       28.933      129.190       -9.713       34.800       60.376       40.200     1211.060     3645.259     1616.029        1.205        0.324      132.390       40.178        0.092      334.225        4.057      868.035
03/12/2014  04:13:00       40.997      210.249      -39.633       31.308       43.914       27.892      980.171     1928.451      777.982        2.557        0.184      214.208       21.616        0.010      334.286        4.155      868.038
03/12/2014  04:14:00      -17.566      213.794      -31.964       23.483       33.188       13.570      551.453     1101.441      184.146        2.444        0.092      214.515       12.679        0.003      334.447        4.422      868.030
03/12/2014  04:15:00      -46.933      177.966      -35.182       60.619       58.378       25.229     3674.719     3408.041      636.501        2.141        0.386      184.050       17.027        0.009      334.359        4.279      868.019
03/12/2014  04:16:00     -124.322       39.727      -17.506       49.716       36.744       26.032     2471.700     1350.090      677.677        1.092        0.225      130.515       20.900        0.026      334.226        4.058      867.998
03/12/2014  04:17:00     -112.234       83.244      -12.436       45.335       49.302       37.320     2055.226     2430.645     1392.784        1.278        0.294      139.736       30.120        0.046      334.250        4.098      867.970
03/12/2014  04:18:00      -53.323       54.857      -10.994       33.248       57.457       17.266     1105.433     3301.290      298.124        0.534        0.235       76.502       14.620        0.037      334.442        4.417      867.960
03/12/2014  04:19:00       44.413      107.512       -7.887       45.595       42.496       26.194     2078.935     1805.875      686.148        0.908        0.229      116.324       19.445        0.028      334.576        4.640      867.987
03/12/2014  04:20:00       72.685       94.375       -5.370       39.117       55.217       31.134     1530.168     3048.903      969.324        0.988        0.277      119.121       21.297        0.032      334.242        4.084      868.023
03/12/2014  04:21:00       69.458       38.418       -5.780       43.609       44.578       22.148     1901.702     1987.165      490.523        0.536        0.219       79.375       16.751        0.045      334.018        3.714      868.056
03/12/2014  04:22:00       73.334       86.049       -2.918       54.519       39.779       35.356     2972.365     1582.399     1250.046        0.930        0.290      113.059       23.085        0.042      334.011        3.703      868.091
03/12/2014  04:23:00       18.460       98.190      -18.184       36.371       39.317       18.191     1322.870     1545.806      330.922        0.676        0.160       99.910       18.549        0.034      334.092        3.836      868.105
03/12/2014  04:24:00       18.699       41.516       -3.041       18.404       27.599       13.281      338.711      761.678      176.394        0.168        0.064       45.532       15.644        0.118      334.253        4.105      868.111
03/12/2014  04:25:00       56.249       71.624       -8.012       22.353       40.016       22.289      499.668     1601.254      496.790        0.548        0.130       91.071       22.271        0.060      334.390        4.331      868.129
03/12/2014  04:26:00       -1.418      128.727       -8.430       48.073       51.845       37.904     2311.036     2687.918     1436.700        1.154        0.322      128.735       33.164        0.066      334.276        4.142      868.142
03/12/2014  04:27:00        9.486       48.941        1.940       47.430       54.404       25.280     2249.639     2959.779      639.070        0.417        0.292       49.852       21.165        0.180      334.090        3.833      868.171
03/12/2014  04:28:00      -13.780      116.625      -12.051       51.865       58.390       24.087     2689.936     3409.426      580.163        1.031        0.334      117.436       27.227        0.054      334.108        3.864      868.177
03/12/2014  04:29:00      -32.528      182.954      -17.515       50.389       35.744       22.492     2539.011     1277.657      505.870        1.958        0.216      185.823       10.532        0.003      334.230        4.064      868.179
03/12/2014  04:30:00      -40.345      151.770      -16.755       52.939       42.437       25.235     2802.557     1800.913      636.821        1.509        0.262      157.041       19.755        0.016      334.434        4.403      868.204
03/12/2014  04:31:00      -50.809      112.617      -14.579       41.275       58.425       25.090     1703.664     3413.461      629.507        1.061        0.287      123.548       28.762        0.054      334.360        4.280      868.224
03/12/2014  04:32:00       12.094      236.693      -26.073       40.922       52.068       33.315     1674.583     2711.107     1109.914        3.117        0.275      237.002       25.560        0.012      334.189        3.992      868.238
03/12/2014  04:33:00       -2.335      218.530      -31.149       46.936       59.189       32.444     2202.953     3503.312     1052.612        2.774        0.338      218.543       36.184        0.027      334.097        3.841      868.254
03/12/2014  04:34:00      -63.318      130.586      -19.730       36.105       44.791       27.342     1303.576     2006.221      747.598        1.275        0.203      145.127       18.390        0.016      334.359        4.280      868.240
03/12/2014  04:35:00      -42.577      123.814       -8.294       40.926       54.290       28.956     1674.955     2947.355      838.424        1.134        0.273      130.930       25.780        0.039      334.305        4.191      868.257
03/12/2014  04:36:00     -106.697      137.796      -27.617       48.702       53.705       27.046     2371.907     2884.204      731.466        1.856        0.299      174.275       25.448        0.021      334.405        4.355      868.246
03/12/2014  04:37:00     -102.895      113.026      -32.599       29.938       29.489       16.805      896.283      869.580      282.404        1.324        0.102      152.847       15.632        0.010      334.244        4.089      868.240
03/12/2014  04:38:00      -53.771      111.609      -15.263       22.448       21.685       20.004      503.898      470.254      400.147        0.848        0.069      123.886       13.941        0.013      334.337        4.243      868.269
03/12/2014  04:39:00       17.529       87.585      -15.249       30.315       28.879       17.948      918.976      833.997      322.146        0.514        0.104       89.322       13.955        0.024      334.294        4.172      868.303
03/12/2014  04:40:00       24.498       26.192        2.939       20.967       23.875       17.219      439.595      570.036      296.481        0.130        0.065       35.863       16.773        0.219      334.077        3.812      868.314
03/12/2014  04:41:00       28.595       55.875       -5.785       27.557       19.820       13.619      759.375      392.852      185.488        0.266        0.067       62.767       11.596        0.034      334.053        3.773      868.311
03/12/2014  04:42:00       99.662       95.605        7.932       76.977       85.334       39.255     5925.463     7281.966     1540.989        1.694        0.737      138.104       40.403        0.086      334.216        4.042      868.300
03/12/2014  04:43:00       69.784       49.285       44.507       69.185       49.036       42.842     4786.601     2404.524     1835.473        0.915        0.451       85.433       30.763        0.130      334.399        4.347      868.290
03/12/2014  04:44:00       29.827      140.246      -18.060       23.590       34.253       22.364      556.484     1173.256      500.138        1.156        0.111      143.383       18.807        0.017      334.177        3.978      868.314
03/12/2014  04:45:00      -28.883       52.993      -14.948       43.168       38.029       23.717     1863.472     1446.190      562.479        0.387        0.194       60.353       17.894        0.088      334.303        4.186      868.311
03/12/2014  04:46:00      -59.174       51.210      -16.675       20.682       25.988       12.935      427.733      675.367      167.308        0.384        0.064       78.257       14.394        0.034      334.238        4.080      868.309
03/12/2014  04:47:00        7.007       26.280      -12.417       55.539       61.420       28.620     3084.610     3772.436      819.095        0.428        0.384       27.198       10.330        0.144      334.457        4.442      868.315
03/12/2014  04:48:00        2.291        1.066        1.874       67.326       32.473       28.662     4532.744     1054.471      821.520        0.321        0.320        2.527       19.627       60.343      334.332        4.235      868.306
03/12/2014  04:49:00      -50.513      -14.862       -3.668       18.041       23.592       11.302      325.465      556.586      127.742        0.190        0.050       52.654       10.017        0.036      334.147        3.929      868.296
03/12/2014  04:50:00      -49.493      -19.279      -10.866       12.076       13.155       11.927      145.840      173.050      142.255        0.170        0.023       53.115        7.452        0.020      334.105        3.859      868.290
03/12/2014  04:51:00      -40.474       73.808      -21.455       41.959       47.755       18.412     1760.573     2280.585      339.005        0.596        0.219       84.177       20.449        0.059      334.282        4.151      868.293
03/12/2014  04:52:00      -46.561       68.223      -11.217       55.699       43.792       22.192     3102.399     1917.751      492.473        0.623        0.276       82.597       19.918        0.058      334.288        4.163      868.304
03/12/2014  04:53:00     -124.500       22.865      -10.426       18.452       21.431       15.284      340.469      459.304      233.594        0.858        0.052      126.582        8.052        0.004      334.080        3.817      868.302
03/12/2014  04:54:00     -100.519       16.547      -16.375       19.118       26.547       20.394      365.504      704.746      415.913        0.607        0.074      101.872        6.301        0.004      334.012        3.704      868.310
03/12/2014  04:55:00      -82.872       20.738       -9.636       33.668       37.315       21.620     1133.528     1392.443      467.412        0.519        0.150       85.427       11.906        0.019      333.971        3.635      868.303
03/12/2014  04:56:00     -106.090       -9.818       -7.134       24.215       38.441       14.790      586.364     1477.691      218.757        0.684        0.114      106.543       10.414        0.010      333.968        3.632      868.304
03/12/2014  04:57:00     -120.353      -42.755      -11.757       26.837       28.679       16.894      720.234      822.510      285.407        0.914        0.091      127.722       13.822        0.012      333.832        3.405      868.308
03/12/2014  04:58:00      -80.561       -3.255      -16.490       23.175       19.183       10.421      537.099      367.982      108.603        0.389        0.051       80.627        6.880        0.007      333.765        3.293      868.322
03/12/2014  04:59:00     -107.603      -11.458      -14.542       21.675       13.568       16.125      469.811      184.084      260.011        0.642        0.046      108.212       10.027        0.009      333.731        3.237      868.342
03/12/2014  05:00:00     -145.211      -28.061      -10.907       23.324       16.565       18.128      544.021      274.406      328.629        1.157        0.057      147.897       11.066        0.006      333.694        3.176      868.347
03/12/2014  05:01:00      -74.635      -41.504       -5.167       54.242       37.092       25.759     2942.240     1375.812      663.533        0.615        0.249       85.398       31.531        0.136      333.750        3.269      868.359
03/12/2014  05:02:00      -96.531      -25.076       -0.439       90.750       31.950       28.359     8235.497     1020.812      804.223        1.000        0.503       99.735       43.028        0.186      333.658        3.116      868.362
03/12/2014  05:03:00     -161.112      -73.037      -23.709       36.732       36.052       27.765     1349.249     1299.757      770.868        1.764        0.171      176.894       21.432        0.015      333.530        2.903      868.362
03/12/2014  05:04:00     -156.721      -93.515      -13.879       38.281       38.687       28.744     1465.423     1496.699      826.208        1.864        0.189      182.501       19.602        0.012      333.490        2.839      868.380
03/12/2014  05:05:00     -125.658      -64.009       -6.689       32.970       23.899       14.545     1087.003      571.154      211.566        1.090        0.093      141.022       13.139        0.009      333.762        3.287      868.417
03/12/2014  05:06:00      -73.904      -52.560        8.383       44.995       34.389       25.557     2024.544     1182.584      653.168        0.608        0.193       90.689       19.593        0.047      333.645        3.096      868.449
03/12/2014  05:07:00      -98.171      -59.233        3.638       47.346       28.614       26.338     2241.670      818.769      693.685        0.846        0.188      114.657       20.314        0.031      333.617        3.048      868.464
03/12/2014  05:08:00      -95.431      -66.146        0.526       51.278       36.671       27.048     2629.456     1344.730      731.592        0.909        0.235      116.114       14.010        0.015      333.564        2.962      868.462
03/12/2014  05:09:00     -139.976      -74.777       -4.567       49.825       33.790       25.429     2482.523     1141.793      646.645        1.474        0.214      158.698       16.374        0.011      333.612        3.042      868.466
03/12/2014  05:10:00      -83.353      -34.948        0.441       34.554       29.863       20.771     1193.984      891.774      431.415        0.534        0.126       90.383       14.817        0.027      333.674        3.143      868.486
03/12/2014  05:11:00     -105.916      -32.850        1.407       36.111       41.410       20.642     1303.996     1714.773      426.086        0.787        0.172      110.893       17.866        0.026      333.405        2.697      868.497
03/12/2014  05:12:00     -124.859      -62.885        2.680       49.262       36.762       27.266     2426.743     1351.420      743.438        1.204        0.226      139.800       27.174        0.038      333.479        2.819      868.492
03/12/2014  05:13:00     -107.723      -43.030        5.880       56.879       34.864       25.996     3235.237     1215.478      675.776        0.931        0.256      115.999       25.503        0.048      333.304        2.531      868.488
03/12/2014  05:14:00      -82.840      -42.815       -3.606       31.689       24.942       17.558     1004.164      622.105      308.299        0.532        0.097       93.250       11.952        0.016      333.295        2.516      868.497
03/12/2014  05:15:00      -52.955      -32.222       -3.663       33.795       17.261       13.775     1142.100      297.942      189.759        0.274        0.081       61.988       14.801        0.057      333.441        2.757      868.532
03/12/2014  05:16:00      -36.807      -15.262        3.459       13.136       11.533       12.840      172.556      133.012      164.854        0.103        0.024       39.846        8.195        0.042      333.387        2.668      868.572
03/12/2014  05:17:00      -75.799      -49.150       -7.018       23.812       27.953       16.877      567.011      781.360      284.849        0.492        0.082       90.339       13.246        0.021      333.481        2.822      868.599
03/12/2014  05:18:00     -142.916     -106.185       -8.090       46.346       39.263       24.660     2147.997     1541.557      608.131        1.803        0.215      178.046       21.846        0.015      333.498        2.851      868.578
03/12/2014  05:19:00     -156.168      -60.303       -2.218       60.447       48.593       30.871     3653.848     2361.260      952.996        1.750        0.348      167.407       27.906        0.028      333.463        2.792      868.540
03/12/2014  05:20:00     -126.345      -36.368       -3.413       48.867       35.193       27.313     2388.015     1238.567      746.016        1.083        0.219      131.475       29.841        0.052      333.257        2.453      868.533
03/12/2014  05:21:00      -19.963       13.643       22.430       36.979       28.389       27.775     1367.436      805.959      771.465        0.202        0.147       24.180       20.745        0.736      333.443        2.760      868.545
03/12/2014  05:22:00      -96.225       22.194      -19.878       23.236       24.930       14.264      539.930      621.497      203.452        0.576        0.068       98.752       11.663        0.014      333.773        3.307      868.557
03/12/2014  05:23:00     -128.002       57.952      -14.564       28.294       25.312       18.640      800.551      640.677      347.447        1.087        0.089      140.509       13.486        0.009      334.013        3.706      868.552
03/12/2014  05:24:00      -69.002        1.975       -5.447       37.106       38.902       17.866     1376.834     1513.387      319.193        0.400        0.160       69.031        8.930        0.017      333.763        3.293      868.534
03/12/2014  05:25:00      -34.368      -26.930       -8.269       23.305       19.209       15.004      543.139      368.992      225.111        0.156        0.057       43.663        7.466        0.029      333.383        2.660      868.538
03/12/2014  05:26:00        7.159       13.918       -9.363       39.321       21.548       19.997     1546.142      464.311      399.882        0.137        0.121       15.651       22.122        1.998      333.685        3.162      868.557
03/12/2014  05:27:00      -10.447      -20.224        8.598       24.260       36.182       18.393      588.535     1309.130      338.312        0.141        0.112       22.763       16.204        0.507      333.779        3.318      868.571
03/12/2014  05:28:00       50.767       33.642        7.190       46.283       21.792       19.078     2142.113      474.874      363.988        0.337        0.149       60.902       16.186        0.071      333.799        3.350      868.585
03/12/2014  05:29:00       62.756       45.981       -3.283       40.611       18.375       20.115     1649.272      337.659      404.626        0.423        0.120       77.798       16.806        0.047      333.615        3.045      868.596
03/12/2014  05:30:00       65.073       87.535       -0.254       29.684       31.907       19.152      881.130     1018.064      366.813        0.708        0.113      109.073       16.764        0.024      333.540        2.922      868.590
03/12/2014  05:31:00       47.213       58.243      -10.777       22.574       33.891       19.505      509.601     1148.621      380.432        0.389        0.102       74.976       19.745        0.069      333.206        2.369      868.597
03/12/2014  05:32:00       28.235      128.129      -16.246       26.122       97.771       30.991      682.352     9559.261      960.458        1.434        0.560      131.203       48.401        0.136      333.161        2.293      868.603
03/12/2014  05:33:00       38.799      134.014      -20.144       28.944       37.447       23.339      837.729     1402.274      544.716        1.133        0.139      139.517       16.593        0.014      333.276        2.485      868.616
03/12/2014  05:34:00       10.586      132.076      -21.282       31.918       53.192       18.029     1018.765     2829.406      325.028        1.109        0.209      132.499       19.721        0.022      333.730        3.235      868.616
03/12/2014  05:35:00       -9.525       38.112       -8.939       21.648       39.868        9.649      468.624     1589.458       93.098        0.189        0.108       39.284        9.924        0.064      333.936        3.579      868.610
03/12/2014  05:36:00      -32.690       51.656      -10.799       20.937       31.453       11.399      438.347      989.318      129.947        0.271        0.078       61.131       15.830        0.067      333.886        3.495      868.604
03/12/2014  05:37:00      -62.386        6.257      -14.629       12.093       30.504        9.001      146.249      930.500       81.023        0.265        0.058       62.699        8.991        0.021      333.666        3.131      868.588
03/12/2014  05:38:00      -91.405      -17.614      -12.347       24.895       20.662        9.418      619.742      426.911       88.706        0.498        0.057       93.087        6.676        0.005      333.633        3.075      868.576
03/12/2014  05:39:00      -25.756      -85.024       -8.067       40.289       24.972       16.692     1623.205      623.578      278.631        0.524        0.126       88.840       11.873        0.018      333.639        3.086      868.578
03/12/2014  05:40:00       63.722       11.776       44.818       54.900       79.240       40.010     3013.962     6278.922     1600.780        0.855        0.545       64.801       43.337        0.447      334.150        3.933      868.558
03/12/2014  05:41:00       36.552      -50.042       15.235       38.333       61.838       34.542     1469.432     3823.998     1193.162        0.528        0.324       61.970       39.987        0.416      334.178        3.979      868.545
03/12/2014  05:42:00       48.039      -24.931       21.908       69.496       59.179       32.312     4829.698     3502.165     1044.050        0.639        0.469       54.123       31.571        0.340      334.094        3.841      868.538
03/12/2014  05:43:00       92.298       58.990       36.860       42.597       27.172       29.351     1814.467      738.302      861.496        0.839        0.171      109.539       23.093        0.044      333.957        3.613      868.541
03/12/2014  05:44:00       19.675       28.715       48.639       41.364       36.866       32.355     1710.943     1359.098     1046.862        0.385        0.206       34.809       36.291        1.087      334.016        3.711      868.528
03/12/2014  05:45:00       44.291       37.657       30.189       28.901       15.339       15.678      835.241      235.288      245.789        0.280        0.066       58.136        4.949        0.007      334.060        3.783      868.534
03/12/2014  05:46:00       86.476       35.309        9.209       30.681       29.752       18.573      941.353      885.207      344.961        0.549        0.109       93.407        7.088        0.006      334.130        3.900      868.562
03/12/2014  05:47:00       81.587       44.467        7.972       32.855       27.572       20.515     1079.445      760.238      420.883        0.548        0.113       92.918       14.025        0.023      334.057        3.780      868.578
03/12/2014  05:48:00       32.524       43.026      -11.868       30.726       22.747       10.510      944.108      517.430      110.469        0.231        0.079       53.935       11.257        0.044      334.134        3.906      868.582
03/12/2014  05:49:00       18.466       22.826       -0.191       19.117       19.905       10.176      365.468      396.197      103.547        0.086        0.043       29.361        9.206        0.098      334.033        3.741      868.571
03/12/2014  05:50:00        1.264        8.579       15.280        8.024        9.854        8.143       64.381       97.107       66.316        0.027        0.011        8.672        4.187        0.233      333.803        3.358      868.568
03/12/2014  05:51:00       33.403        7.711        4.532       17.742        9.664        7.514      314.791       93.398       56.463        0.083        0.023       34.282        5.633        0.027      334.061        3.784      868.552
03/12/2014  05:52:00       27.647        4.676        0.777       10.248       15.519        8.091      105.027      240.849       65.471        0.060        0.021       28.040        8.271        0.087      334.087        3.829      868.546
03/12/2014  05:53:00       16.900       -8.323        8.049       24.307       30.937       21.158      590.855      957.102      447.654        0.121        0.100       18.839       21.550        1.309      334.050        3.767      868.556
03/12/2014  05:54:00      -10.999       -6.626        9.142       13.848       15.982        8.917      191.772      255.437       79.520        0.039        0.026       12.841        7.444        0.336      333.869        3.467      868.569
03/12/2014  05:55:00      -24.482       -7.447        4.966        9.604       11.907       10.050       92.239      141.788      100.998        0.051        0.017       25.590        7.298        0.081      333.874        3.475      868.582
03/12/2014  05:56:00      -37.081      -23.818       -2.652       17.391       13.624        9.677      302.462      185.602       93.652        0.127        0.029       44.071        9.120        0.043      333.738        3.251      868.582
03/12/2014  05:57:00      -26.664      -28.516       -0.417       20.784       16.056        8.857      431.969      257.809       78.444        0.115        0.038       39.040        4.576        0.014      333.435        2.749      868.577
03/12/2014  05:58:00      -36.534      -59.051       -2.778       31.905       19.306       20.033     1017.927      372.728      401.330        0.331        0.090       69.439        9.761        0.020      333.373        2.645      868.581
03/12/2014  05:59:00      -19.010      -40.707        8.175       19.844       27.531       22.253      393.773      757.959      495.185        0.187        0.082       44.927       16.009        0.127      333.758        3.282      868.576
03/12/2014  06:00:00       33.543      -65.026        5.521       34.545       34.002       21.329     1193.343     1156.110      454.925        0.409        0.140       73.168       16.203        0.049      333.931        3.570      868.582
03/12/2014  06:01:00       53.735      -84.726       -0.217       25.610       20.552       20.275      655.856      422.404      411.080        0.578        0.074      100.329       13.136        0.017      334.196        4.008      868.583
03/12/2014  06:02:00       42.724      -79.260       -7.294       32.728       22.835       16.979     1071.116      521.444      288.279        0.502        0.094       90.041       12.222        0.018      334.171        3.966      868.579
03/12/2014  06:03:00       60.710      -64.263        8.982       38.906       40.739       22.400     1513.660     1659.679      501.775        0.578        0.184       88.405       27.416        0.096      334.173        3.971      868.566
03/12/2014  06:04:00       63.697      -87.604        1.892       58.902       30.535       26.259     3469.417      932.404      689.529        0.841        0.255      108.313       17.302        0.026      334.048        3.764      868.563
03/12/2014  06:05:00       28.723       -7.079       25.468       44.269       48.342       25.636     1959.737     2336.996      657.201        0.324        0.248       29.582       25.867        0.765      334.105        3.858      868.556
03/12/2014  06:06:00        1.613      -43.245        7.605       28.927       38.655       27.928      836.753     1494.191      779.961        0.252        0.156       43.275       16.748        0.150      333.923        3.557      868.553
03/12/2014  06:07:00       69.578      -87.004       -3.102       58.584       84.400       27.463     3432.126     7123.314      754.217        1.186        0.565      111.404       42.372        0.145      334.042        3.753      868.553
03/12/2014  06:08:00       86.816      -96.016        0.065       51.591       51.169       27.067     2661.679     2618.307      732.627        1.138        0.301      129.445       33.493        0.067      334.073        3.805      868.550
03/12/2014  06:09:00       41.684      -53.362       10.695       38.047       56.130       28.234     1447.558     3150.600      797.174        0.505        0.270       67.714       25.739        0.144      334.036        3.744      868.554
03/12/2014  06:10:00       15.678       -4.573       41.832       34.607       41.104       34.361     1197.627     1689.542     1180.646        0.304        0.203       16.331       31.865        3.807      333.908        3.531      868.563
03/12/2014  06:11:00       42.497      -59.764       12.301       41.459       48.793       35.645     1718.849     2380.787     1270.574        0.545        0.269       73.333       23.990        0.107      334.145        3.924      868.566
03/12/2014  06:12:00       36.990      -16.058       30.976       36.795       46.918       34.307     1353.847     2201.255     1176.978        0.366        0.237       40.325       19.485        0.233      334.010        3.699      868.567
03/12/2014  06:13:00      114.575      -39.327       38.616       77.823       82.692       49.014     6056.423     6837.940     2402.375        1.573        0.765      121.136       60.488        0.249      334.004        3.689      868.560
03/12/2014  06:14:00      101.283      -14.658       29.628       83.200       62.882       44.902     6922.203     3954.179     2016.231        1.212        0.645      102.338       46.625        0.208      333.995        3.675      868.565
03/12/2014  06:15:00       68.928       60.367       33.412       38.001       21.873       33.945     1444.085      478.412     1152.231        0.629        0.154       91.625       23.853        0.068      334.003        3.689      868.558
03/12/2014  06:16:00       92.176       48.693       33.494       43.255       33.648       29.603     1870.960     1132.203      876.357        0.793        0.194      104.247       24.084        0.053      333.998        3.681      868.558
03/12/2014  06:17:00       95.746       56.295       63.204       42.918       35.201       42.850     1841.954     1239.086     1836.151        1.062        0.246      111.069       23.103        0.043      334.023        3.721      868.560
03/12/2014  06:18:00       80.699       38.320       18.421       38.966       37.673       23.185     1518.360     1419.236      537.527        0.590        0.174       89.335       15.565        0.030      333.957        3.614      868.574
03/12/2014  06:19:00       95.569       53.136       47.829       44.536       29.319       33.256     1983.451      859.620     1105.943        0.910        0.197      109.348       28.259        0.067      333.909        3.533      868.593
03/12/2014  06:20:00      138.622       56.378       25.313       52.193       36.088       36.168     2724.060     1302.373     1308.160        1.418        0.267      149.648       26.914        0.032      333.907        3.529      868.611
03/12/2014  06:21:00      150.624       97.421        6.528       69.251       61.855       44.755     4795.679     3826.051     2003.009        2.142        0.531      179.384       27.326        0.023      333.898        3.512      868.606
03/12/2014  06:22:00      133.459       59.290       26.201       84.258       53.240       51.805     7099.454     2834.537     2683.717        1.731        0.631      146.037       28.897        0.039      333.836        3.411      868.613
03/12/2014  06:23:00      157.260       62.874        2.791       41.693       50.053       33.005     1738.322     2505.285     1089.334        1.701        0.267      169.363       18.873        0.012      333.793        3.340      868.622
03/12/2014  06:24:00       85.790       58.480       26.396       42.448       38.498       32.949     1801.872     1482.103     1085.648        0.792        0.218      103.826       26.056        0.063      333.779        3.317      868.627
03/12/2014  06:25:00      143.935       83.422       32.965       58.084       42.919       33.398     3373.724     1842.006     1115.395        1.755        0.317      166.362       22.914        0.019      333.885        3.492      868.628
03/12/2014  06:26:00       83.290       23.482       22.019       64.897       46.660       28.289     4211.562     2177.183      800.270        0.758        0.359       86.537       27.143        0.098      333.843        3.424      868.631
03/12/2014  06:27:00       87.340       46.933       11.540       47.991       33.924       31.795     2303.125     1150.837     1010.931        0.721        0.223       99.151       26.665        0.072      333.710        3.202      868.636
03/12/2014  06:28:00       92.563       66.503       26.251       36.157       20.321       24.334     1307.360      412.925      592.145        0.800        0.116      113.976       14.763        0.017      333.684        3.161      868.651
03/12/2014  06:29:00       98.805       73.599        9.678       37.217       24.786       27.953     1385.110      614.351      781.377        0.903        0.139      123.204       15.713        0.016      333.804        3.358      868.666
03/12/2014  06:30:00      118.117       70.678       25.115       35.074       30.281       25.029     1230.213      916.959      626.473        1.118        0.139      137.648       14.910        0.012      333.857        3.446      868.672
03/12/2014  06:31:00      123.683       82.216       27.894       29.087       25.294       27.633      846.082      639.782      763.561        1.254        0.112      148.516       16.329        0.012      333.925        3.559      868.673
03/12/2014  06:32:00       91.179       70.179        9.392       40.543       25.544       25.480     1643.774      652.482      649.242        0.814        0.147      115.060       22.152        0.037      333.918        3.547      868.676
03/12/2014  06:33:00       89.110       87.052       -3.784       41.162       32.213       29.388     1694.338     1037.661      863.678        0.956        0.180      124.573       22.012        0.031      333.971        3.635      868.695
03/12/2014  06:34:00       75.708       51.977       -1.178       28.905       23.148       25.601      835.495      535.816      655.410        0.523        0.101       91.833       13.315        0.021      333.918        3.548      868.711
03/12/2014  06:35:00      132.167       68.163       19.627       32.559       25.345       25.848     1060.113      642.366      668.098        1.243        0.119      148.709       19.274        0.017      334.001        3.685      868.703
03/12/2014  06:36:00      124.218       78.834       30.884       36.989       31.123       26.052     1368.170      968.668      678.698        1.281        0.151      147.122       17.412        0.014      334.053        3.772      868.707
03/12/2014  06:37:00      100.839       62.833       29.522       18.302       21.928       16.629      334.974      480.843      276.518        0.804        0.055      118.812       11.335        0.009      334.100        3.849      868.695
03/12/2014  06:38:00      135.724       57.469       22.503       45.737       25.904       29.835     2091.867      670.996      890.123        1.294        0.183      147.389        7.515        0.003      334.063        3.788      868.708
03/12/2014  06:39:00      114.335       40.580       18.952       55.300       43.828       32.166     3058.124     1920.853     1034.645        1.054        0.301      121.323       33.038        0.074      334.033        3.739      868.714
03/12/2014  06:40:00       76.803       69.011       51.695       51.957       39.034       40.051     2699.486     1523.645     1604.109        0.958        0.291      103.253       37.012        0.128      333.976        3.645      868.718
03/12/2014  06:41:00       83.088       27.048       55.860       69.738       50.081       47.748     4863.357     2508.142     2279.881        1.020        0.483       87.380       41.065        0.221      334.007        3.695      868.706
03/12/2014  06:42:00      117.874       23.412       11.702       40.466       51.071       25.879     1637.495     2608.268      669.719        0.975        0.246      120.177       14.592        0.015      333.953        3.607      868.706
03/12/2014  06:43:00      113.535       53.133       32.951       50.985       41.011       41.389     2599.428     1681.933     1713.082        1.140        0.300      125.353       29.834        0.057      333.882        3.489      868.729
03/12/2014  06:44:00      105.697       37.153       49.474       66.679       46.535       33.025     4446.152     2165.515     1090.630        1.135        0.385      112.036       28.629        0.065      333.854        3.441      868.751
03/12/2014  06:45:00       41.526       44.167       26.909       36.661       24.245       21.447     1344.057      587.822      459.963        0.340        0.120       60.623       14.720        0.059      333.758        3.281      868.747
03/12/2014  06:46:00       32.825       33.210       37.396       21.270       19.004       11.973      452.400      361.156      143.346        0.227        0.048       46.695        1.025        0.000      333.700        3.187      868.737
03/12/2014  06:47:00       33.670       19.680       50.416       46.242       24.411       18.600     2138.299      595.882      345.976        0.357        0.154       38.999       13.780        0.125      333.724        3.226      868.746
03/12/2014  06:48:00       58.855       40.211       38.620       53.969       45.338       25.110     2912.600     2055.524      630.529        0.608        0.280       71.280       19.958        0.078      333.902        3.522      868.730
03/12/2014  06:49:00       45.585      -71.712       -3.482       29.759       22.562       19.354      885.607      509.052      374.561        0.450        0.088       84.974       17.610        0.043      333.941        3.587      868.715
03/12/2014  06:50:00       27.289      -41.189       12.449       21.379       29.713       17.248      457.050      882.852      297.500        0.212        0.082       49.408       17.055        0.119      333.910        3.535      868.703
03/12/2014  06:51:00        6.813      -58.278       11.484       46.205       30.862       23.500     2134.942      952.449      552.247        0.361        0.182       58.675       25.184        0.184      333.977        3.647      868.704
03/12/2014  06:52:00        8.958      -47.115      -13.316       29.801       26.437       12.682      888.128      698.896      160.828        0.211        0.087       47.959        7.045        0.022      333.886        3.495      868.692
03/12/2014  06:53:00      -12.498        2.923       12.416        8.629       12.133        7.368       74.456      147.198       54.285        0.030        0.014       12.836        5.436        0.179      333.780        3.318      868.702
03/12/2014  06:54:00       20.075       28.337       29.969       21.053       15.673       14.673      443.225      245.654      215.285        0.150        0.045       34.727       12.972        0.140      333.809        3.368      868.714
03/12/2014  06:55:00       17.056       36.368        9.345       20.864       11.919       12.307      435.309      142.059      151.471        0.121        0.036       40.169       12.239        0.093      333.808        3.368      868.693
03/12/2014  06:56:00      -56.912       20.737       -0.184       31.622       17.543       12.367      999.929      307.749      152.937        0.256        0.073       60.572       12.101        0.040      333.667        3.132      868.668
03/12/2014  06:57:00       11.696        0.949        4.590       27.904       23.699       23.133      778.615      561.623      535.121        0.102        0.094       11.735       17.226        2.155      333.257        2.453      868.679
03/12/2014  06:58:00      -22.852       -1.431      -18.464       24.686       10.584       10.053      609.407      112.016      101.068        0.084        0.041       22.897        5.443        0.057      333.418        2.717      868.709
03/12/2014  06:59:00      -87.884      -14.089      -13.372       29.822       19.793       14.989      889.348      391.756      224.672        0.480        0.075       89.006        9.879        0.012      333.399        2.689      868.693
03/12/2014  07:00:00     -161.358       -4.844      -17.088       44.959       31.312       19.452     2021.301      980.464      378.366        1.487        0.169      161.430       15.856        0.010      333.204        2.364      868.674
03/12/2014  07:01:00      -91.723      -21.854        7.637       71.619       36.933       28.059     5129.293     1364.050      787.301        0.811        0.364       94.290       32.586        0.119      333.026        2.072      868.675
03/12/2014  07:02:00      -57.017       25.749       -6.162       51.949       33.007       24.271     2698.691     1089.485      589.078        0.416        0.219       62.562       32.184        0.265      332.970        1.980      868.731
03/12/2014  07:03:00     -192.676       12.608      -28.701       40.981       50.152       19.136     1679.469     2515.218      366.197        2.133        0.228      193.088       21.568        0.012      333.008        2.040      868.718
03/12/2014  07:04:00     -175.117     -105.769       -3.320       66.719       60.941       33.139     4451.373     3713.766     1098.217        2.556        0.463      204.580       32.446        0.025      333.006        2.037      868.680
03/12/2014  07:05:00      -63.500      -31.483        1.820       48.077       32.928       23.445     2311.403     1084.239      549.689        0.449        0.197       70.876       23.087        0.106      333.092        2.180      868.714
03/12/2014  07:06:00      -63.942        5.564       -1.445       37.278       30.965       14.419     1389.681      958.820      207.902        0.334        0.128       64.184       16.634        0.067      333.107        2.205      868.739
03/12/2014  07:07:00      -72.683        8.388        1.261       48.197       28.559       20.365     2322.906      815.616      414.749        0.445        0.178       73.165       19.825        0.073      332.937        1.925      868.758
03/12/2014  07:08:00     -183.647        1.594      -15.582       54.582       26.419       20.054     2979.212      697.955      402.167        1.902        0.204      183.654       23.924        0.017      332.985        2.004      868.708
03/12/2014  07:09:00      -12.282        2.832        9.442       27.012       28.491       18.138      729.654      811.733      328.985        0.106        0.094       12.604       17.001        1.819      332.759        1.631      868.740
03/12/2014  07:10:00      -23.299       31.855       -9.798       25.366       11.900       10.357      643.449      141.619      107.265        0.127        0.045       39.466        9.044        0.053      333.003        2.035      868.806
03/12/2014  07:11:00      -82.175       45.064      -16.449       55.169       24.996       17.708     3043.596      624.779      313.590        0.652        0.199       93.721       16.316        0.030      333.074        2.153      868.810
03/12/2014  07:12:00     -140.254      -12.257      -23.248       23.936       31.510       19.666      572.951      992.853      386.752        1.116        0.098      140.789       11.626        0.007      332.986        2.007      868.796
03/12/2014  07:13:00      -75.284      -23.938      -10.641       38.434       22.701       16.773     1477.197      515.349      281.323        0.431        0.114       78.998       17.150        0.047      332.951        1.948      868.820
03/12/2014  07:14:00      -88.108      -26.192      -15.876       37.420       28.072       13.400     1400.262      788.060      179.547        0.553        0.118       91.919       13.782        0.022      332.960        1.964      868.828
03/12/2014  07:15:00     -217.631      -54.005      -20.208       43.651       32.374       23.544     1905.438     1048.090      554.322        2.710        0.175      224.231       24.788        0.012      333.043        2.097      868.794
03/12/2014  07:16:00     -207.628      -40.513      -10.339       64.777       49.898       33.780     4196.087     2489.843     1141.098        2.634        0.391      211.544       31.436        0.022      332.915        1.886      868.761
03/12/2014  07:17:00     -227.353      -25.000      -14.269       73.342       60.935       33.147     5379.025     3713.026     1098.735        3.135        0.510      228.723       32.931        0.021      333.074        2.149      868.752
03/12/2014  07:18:00     -296.901       12.827      -38.686       23.414       22.005       16.559      548.209      484.200      274.198        4.556        0.065      297.178       12.697        0.002      333.300        2.519      868.768
03/12/2014  07:19:00     -220.986       -9.015      -22.876       48.578       26.079       19.341     2359.786      680.099      374.080        2.643        0.171      221.170       21.280        0.009      333.441        2.756      868.804
03/12/2014  07:20:00      -67.935       31.771      -10.197       54.687       45.109       25.019     2990.629     2034.798      625.957        0.569        0.283       74.997       28.424        0.144      333.080        2.159      868.852
03/12/2014  07:21:00     -152.206      109.459      -32.879       47.632       42.006       30.009     2268.802     1764.504      900.550        2.058        0.247      187.478       23.912        0.016      333.052        2.112      868.879
03/12/2014  07:22:00     -209.720        1.025      -16.582       65.636       75.264       38.571     4308.130     5664.680     1487.695        2.786        0.573      209.722       40.253        0.037      332.996        2.019      868.868
03/12/2014  07:23:00     -167.703      -73.572      -18.169       82.365       46.759       35.780     6783.919     2186.439     1280.212        2.206        0.513      183.132       22.078        0.015      332.958        1.955      868.857
03/12/2014  07:24:00     -153.170      -92.145       -3.068       66.121       56.336       32.774     4371.924     3173.769     1074.137        2.029        0.431      178.750       36.519        0.042      333.253        2.445      868.861
03/12/2014  07:25:00      -90.244      -42.130       -2.270       38.371       38.824       27.395     1472.307     1507.341      750.506        0.683        0.187       99.593       19.215        0.037      333.277        2.487      868.893
03/12/2014  07:26:00      -60.131       28.222       -6.349       48.438       32.473       20.622     2346.218     1054.479      425.267        0.414        0.191       66.424        9.766        0.022      333.291        2.506      868.941
03/12/2014  07:27:00       19.766       61.906       -2.680       39.651       24.771       22.532     1572.230      613.580      507.698        0.346        0.135       64.984       11.497        0.031      333.752        3.274      868.980
03/12/2014  07:28:00        0.255       18.073       -1.467       18.455       17.240       20.940      340.583      297.232      438.487        0.070        0.054       18.074        7.181        0.158      333.701        3.189      868.986
03/12/2014  07:29:00      -48.861       42.895      -16.240       40.130       64.640       23.524     1610.414     4178.332      553.372        0.542        0.317       65.018       33.477        0.265      333.794        3.342      868.982
03/12/2014  07:30:00     -123.145      -85.236       -5.378       32.181       31.684       26.271     1035.590     1003.845      690.190        1.259        0.136      149.766       18.244        0.015      333.668        3.133      868.955
03/12/2014  07:31:00      -26.435      -32.302       11.110       28.525       32.436       21.250      813.667     1052.115      451.579        0.209        0.116       41.740       18.876        0.205      333.420        2.723      868.954
03/12/2014  07:32:00     -130.323      -11.575       -5.416       67.741       43.750       25.316     4588.908     1914.066      640.913        1.214        0.357      130.836       33.465        0.065      333.503        2.859      868.972
03/12/2014  07:33:00     -134.136      -20.201       -7.872       32.598       30.898       22.509     1062.610      954.669      506.639        1.049        0.126      135.649       20.298        0.022      333.455        2.781      868.978
03/12/2014  07:34:00     -113.227      -10.989      -12.486       56.672       25.333       19.942     3211.705      641.780      397.703        0.867        0.213      113.759       21.544        0.036      333.316        2.551      868.988
03/12/2014  07:35:00     -155.416      -28.486       -3.496       40.147       34.976       20.800     1611.757     1223.286      432.639        1.412        0.163      158.005       23.291        0.022      333.452        2.776      868.981
03/12/2014  07:36:00     -151.161      -54.398       -1.660       59.252       39.132       24.623     3510.761     1531.284      606.281        1.573        0.282      160.651       26.461        0.027      333.506        2.864      868.978
03/12/2014  07:37:00     -145.569      -82.043      -13.114       55.385       31.017       20.770     3067.501      962.067      431.400        1.628        0.223      167.097       10.040        0.004      333.600        3.021      868.973
03/12/2014  07:38:00      -94.479      -61.571        5.286       61.384       40.974       26.129     3768.051     1678.903      682.717        0.944        0.306      112.771       28.253        0.063      333.640        3.087      868.999
03/12/2014  07:39:00     -140.307      -80.721       -7.697       49.124       27.055       22.130     2413.189      731.988      489.754        1.495        0.182      161.870       11.642        0.005      333.630        3.071      869.016
03/12/2014  07:40:00      -59.999      -61.526        4.149       50.816       36.745       26.170     2582.304     1350.195      684.874        0.601        0.231       85.938       27.786        0.105      333.676        3.147      869.014
03/12/2014  07:41:00     -131.053     -116.911       -2.662       56.441       44.089       30.456     3185.604     1943.876      927.583        1.845        0.303      175.621       27.487        0.024      333.628        3.065      869.008
03/12/2014  07:42:00     -112.235      -99.387       -0.407       72.218       61.013       36.939     5215.447     3722.586     1364.471        1.639        0.515      149.915       38.889        0.067      333.654        3.109      869.021
03/12/2014  07:43:00      -97.804      -92.191      -11.380       39.701       42.929       32.525     1576.195     1842.906     1057.860        1.133        0.224      134.405       28.709        0.046      333.609        3.036      869.070
03/12/2014  07:44:00     -102.155      -50.487       -9.600       50.656       41.206       22.401     2566.047     1697.964      501.802        0.892        0.238      113.950       24.092        0.045      333.583        2.991      869.092
03/12/2014  07:45:00     -118.797      -34.313      -17.730       33.621       27.256       19.533     1130.350      742.883      381.530        0.893        0.113      123.653       17.529        0.020      333.565        2.961      869.060
03/12/2014  07:46:00     -123.361      -63.674        3.991       49.247       32.818       25.741     2425.230     1076.997      662.608        1.173        0.208      138.824       27.601        0.040      333.512        2.875      869.039
03/12/2014  07:47:00      -70.594      -42.039       11.657       58.153       36.466       27.371     3381.722     1329.781      749.169        0.617        0.273       82.163       31.473        0.147      333.548        2.934      869.046
03/12/2014  07:48:00      -72.393      -20.938       -0.180       33.682       32.100       17.097     1134.475     1030.410      292.308        0.407        0.123       75.360       19.268        0.065      333.574        2.978      869.076
03/12/2014  07:49:00      -33.805       16.938        3.506       31.046       17.825       20.789      963.876      317.748      432.195        0.158        0.086       37.811       17.756        0.221      333.704        3.193      869.102
03/12/2014  07:50:00     -102.008       19.811      -11.893       49.648       24.296       14.617     2464.897      590.317      213.668        0.710        0.163      103.914       10.069        0.009      333.720        3.220      869.101
03/12/2014  07:51:00     -167.564      -15.634       -9.642       53.895       56.814       23.176     2904.640     3227.829      537.148        1.754        0.333      168.292       20.052        0.014      333.778        3.314      869.048
03/12/2014  07:52:00      -58.875      -36.652        8.900       58.515       53.553       29.692     3424.008     2867.918      881.590        0.603        0.359       69.352       29.370        0.179      333.832        3.405      869.052
03/12/2014  07:53:00      -84.720       16.970       -4.957       25.131       29.961       22.768      631.585      897.640      518.378        0.477        0.102       86.403       16.372        0.036      333.913        3.541      869.107
03/12/2014  07:54:00      -34.520        2.719        3.998       23.996       18.448       16.538      575.825      340.323      273.497        0.120        0.059       34.627       13.579        0.154      334.031        3.737      869.123
03/12/2014  07:55:00     -191.214      -51.615      -19.656       57.345       45.900       21.997     3288.400     2106.774      483.864        2.275        0.294      198.058       13.072        0.004      333.852        3.436      869.066
03/12/2014  07:56:00     -170.070      -73.398        2.725      119.384       59.647       32.752    14252.537     3557.785     1072.667        2.660        0.944      185.233       40.060        0.047      333.841        3.415      868.996
03/12/2014  07:57:00      -19.661      -35.640       23.871       49.623       55.333       34.416     2462.400     3061.717     1184.492        0.447        0.335       40.704       33.692        0.685      334.000        3.686      869.018
03/12/2014  07:58:00       12.945       14.024       40.247       46.203       33.402       27.275     2134.678     1115.678      743.945        0.299        0.200       19.085       28.185        2.181      334.183        3.988      869.076
03/12/2014  07:59:00      185.842       87.901       19.393       64.753       52.026       47.629     4192.937     2706.693     2268.514        2.590        0.458      205.582       29.238        0.020      333.864        3.455      869.108
03/12/2014  08:00:00       89.401       68.378        0.736       76.080       38.430       29.946     5788.117     1476.890      896.749        1.041        0.408      112.552       16.389        0.021      333.749        3.266      869.127
03/12/2014  08:01:00     -158.154       14.842      -22.676       60.990       38.853       23.966     3719.787     1509.549      574.366        1.577        0.290      158.849        4.734        0.001      333.834        3.407      869.054
03/12/2014  08:02:00     -155.092      -16.640       -5.403       82.018       36.999       23.546     6726.944     1368.922      554.426        1.650        0.433      155.983       29.705        0.036      333.804        3.356      868.993
03/12/2014  08:03:00      -68.638        4.281        3.342       56.702       45.884       20.136     3215.127     2105.334      405.449        0.523        0.286       68.772       22.608        0.108      333.966        3.628      869.036
03/12/2014  08:04:00      -14.547       63.636       19.642       32.446       48.453       33.135     1052.753     2347.684     1097.940        0.457        0.225       65.278       31.222        0.229      334.061        3.785      869.053
03/12/2014  08:05:00       47.431       38.167        5.359       40.583       36.562       20.752     1646.960     1336.762      430.662        0.357        0.171       60.880       17.742        0.085      334.073        3.804      869.048
03/12/2014  08:06:00       86.197       43.381        1.805       59.223       27.738       20.689     3507.320      769.407      428.036        0.701        0.235       96.497       10.793        0.013      333.941        3.586      869.079
03/12/2014  08:07:00      -12.454       12.079       12.981       16.276       19.177       20.632      264.898      367.773      425.675        0.076        0.053       17.349       14.978        0.745      334.081        3.820      869.079
03/12/2014  08:08:00       11.447       25.719        2.389       14.384       15.850       13.781      206.911      251.217      189.914        0.072        0.032       28.152        6.256        0.049      334.066        3.793      869.058
03/12/2014  08:09:00      -10.650       32.137        5.072       22.093       21.398       19.863      488.109      457.883      394.552        0.126        0.067       33.856       14.433        0.182      334.152        3.937      869.049
03/12/2014  08:10:00        2.952       35.438        8.607       11.922       30.826       11.816      142.138      950.265      139.609        0.129        0.062       35.561       12.734        0.128      334.275        4.140      869.038
03/12/2014  08:11:00      -26.289       -6.965       -8.199       32.042       30.181       12.613     1026.700      910.880      159.093        0.145        0.105       27.196       14.832        0.297      334.141        3.918      869.019
03/12/2014  08:12:00      -16.644      -33.701       10.971       41.973       30.043       26.967     1761.771      902.610      727.199        0.246        0.170       37.587       26.069        0.481      334.191        4.001      869.005
03/12/2014  08:13:00      -32.209      -23.898       -1.836       23.754       23.332       14.031      564.260      544.372      196.878        0.146        0.065       40.107       12.165        0.092      334.092        3.837      869.023
03/12/2014  08:14:00      -10.182      -14.326       14.797       16.539       21.247       17.305      273.541      451.436      299.467        0.078        0.051       17.576       16.464        0.878      334.401        4.349      869.042
03/12/2014  08:15:00        2.940      -20.998       11.302       12.921       27.175       19.688      166.944      738.492      387.615        0.093        0.065       21.203       20.495        0.934      334.476        4.475      869.055
03/12/2014  08:16:00      -33.686      -22.914       -5.284       17.554       11.374       11.261      308.137      129.362      126.816        0.113        0.028       40.740       10.231        0.063      334.211        4.033      869.066
03/12/2014  08:17:00      -29.865      -10.135        4.051       18.108       17.978       19.007      327.898      323.202      361.267        0.101        0.051       31.538        9.464        0.090      334.237        4.078      869.070
03/12/2014  08:18:00       10.446      -31.838       -2.388       31.334       31.819       20.047      981.828     1012.436      401.880        0.176        0.120       33.507       14.680        0.192      334.396        4.341      869.049
03/12/2014  08:19:00       75.315     -119.929       13.265       66.819       77.171       40.445     4464.773     5955.418     1635.763        1.614        0.603      141.617       36.073        0.065      334.417        4.375      869.025
03/12/2014  08:20:00       67.081       53.231       70.492       96.171       94.785       83.747     9248.768     8984.173     7013.542        1.877        1.262       85.635       70.242        0.673      334.653        4.765      869.016
03/12/2014  08:21:00       90.067       42.205       33.977       75.098       69.946       56.089     5639.746     4892.443     3145.953        1.236        0.684       99.466       45.548        0.210      334.471        4.465      869.015
03/12/2014  08:22:00      131.715       87.434       63.494       99.166       94.435       67.158     9833.945     8918.048     4510.146        2.614        1.163      158.094       54.154        0.117      334.531        4.563      869.020
03/12/2014  08:23:00       91.713      -44.880       27.662       81.109       72.377       47.104     6578.735     5238.450     2218.745        1.261        0.702      102.105       44.954        0.194      334.642        4.751      869.014
03/12/2014  08:24:00       72.056      -17.959       49.935       76.303       54.406       47.403     5822.141     2959.992     2247.051        0.952        0.551       74.261       45.418        0.374      334.695        4.837      869.022
03/12/2014  08:25:00      101.303       88.651       94.863       81.620       64.860       63.199     6661.856     4206.773     3994.157        2.099        0.743      134.616       45.367        0.114      334.616        4.703      869.026
03/12/2014  08:26:00       88.140       37.118       66.902       82.438       46.195       44.233     6795.995     2134.021     1956.570        1.225        0.544       95.637       35.354        0.137      334.678        4.809      869.026
03/12/2014  08:27:00       99.504       38.719       28.129       54.231       54.777       48.609     2941.019     3000.533     2362.880        1.025        0.415      106.772       39.544        0.137      334.610        4.695      869.019
03/12/2014  08:28:00       95.296       82.174       53.094       81.263       70.078       59.378     6603.674     4910.893     3525.729        1.684        0.752      125.833       51.163        0.165      334.711        4.864      869.017
03/12/2014  08:29:00      118.844       91.428       44.186       92.729       63.239       59.066     8598.739     3999.143     3488.851        2.026        0.804      149.943       40.881        0.074      334.556        4.605      869.021
03/12/2014  08:30:00      112.917       33.385        1.508       63.249       80.243       46.489     4000.420     6439.008     2161.234        1.323        0.630      117.749       14.784        0.016      334.670        4.795      869.010
03/12/2014  08:31:00      105.984       79.194      105.413       67.029       69.983       60.749     4492.913     4897.577     3690.471        2.085        0.654      132.303       44.468        0.113      334.684        4.817      869.014
03/12/2014  08:32:00       69.862      107.677      111.201       78.193       72.813       57.049     6114.114     5301.694     3254.568        2.175        0.734      128.355       54.892        0.183      334.680        4.811      869.020
03/12/2014  08:33:00      164.324      111.993      141.541      145.074      111.650       95.656    21046.391    12465.779     9150.072        5.111        2.133      198.859       77.322        0.151      334.638        4.739      869.031
03/12/2014  08:34:00      227.640      163.050      121.106      147.157      111.898      118.359    21655.324    12521.127    14008.740        7.062        2.409      280.009      107.747        0.148      334.551        4.593      869.026
03/12/2014  08:35:00      230.889       84.100       55.246      135.649      130.204      103.251    18400.535    16952.953    10660.847        5.472        2.301      245.729       75.613        0.095      334.522        4.547      869.033
03/12/2014  08:36:00      128.109      106.284       50.617       75.196       78.145       85.177     5654.439     6106.628     7255.097        2.464        0.951      166.458       43.653        0.069      334.644        4.749      869.023
03/12/2014  08:37:00       93.853      -15.315       39.153       81.352       98.548       53.739     6618.087     9711.727     2887.839        1.489        0.961       95.094       41.233        0.188      334.762        4.948      869.031
03/12/2014  08:38:00      120.684       50.462      101.723       91.198      108.306       67.145     8316.999    11730.263     4508.391        2.600        1.228      130.809       68.708        0.276      334.703        4.848      869.019
03/12/2014  08:39:00       78.295      -50.774       22.870       64.796      100.631       52.871     4198.545    10126.632     2795.292        1.317        0.856       93.318       45.823        0.241      334.834        5.068      869.035
03/12/2014  08:40:00       69.863       17.860       61.709       99.281       86.110       54.072     9856.779     7414.911     2923.753        1.460        1.010       72.110       52.872        0.538      334.994        5.333      869.046
03/12/2014  08:41:00       92.689       46.991       82.030       81.648       89.284       73.360     6666.399     7971.576     5381.665        1.877        1.001      103.920       63.416        0.372      334.922        5.212      869.045
03/12/2014  08:42:00      141.960       59.921       63.063      148.299       97.381       70.858    21992.639     9483.081     5020.858        3.210        1.825      154.088       50.672        0.108      334.921        5.211      869.041
03/12/2014  08:43:00      228.806      105.955       77.576      127.684      134.909       97.619    16303.213    18200.376     9529.501        5.681        2.202      252.148       85.737        0.116      334.771        4.961      869.022
03/12/2014  08:44:00      132.599      111.785      108.485      161.728      102.486       88.064    26155.865    10503.462     7755.267        4.312        2.221      173.432       64.012        0.136      334.780        4.975      869.014
03/12/2014  08:45:00       87.103       91.101       89.596      113.007       91.433       63.518    12770.673     8360.071     4034.538        2.453        1.258      126.041       65.905        0.273      334.922        5.213      869.028
03/12/2014  08:46:00      200.943      131.517       72.876       63.107       43.565       52.941     3982.518     1897.904     2802.712        3.583        0.434      240.156       24.459        0.010      334.761        4.942      869.036
03/12/2014  08:47:00      141.230      100.815       66.701       75.195       60.263       65.538     5654.267     3631.582     4295.245        2.407        0.679      173.521       46.669        0.072      334.956        5.269      869.060
03/12/2014  08:48:00      139.274      122.791      137.303      139.811      108.422       85.859    19547.000    11755.355     7371.691        4.599        1.934      185.674       76.831        0.171      334.878        5.137      869.066
03/12/2014  08:49:00      284.874       59.859       27.542      167.962       91.931       90.669    28211.324     8451.343     8220.844        6.518        2.244      291.095       60.214        0.043      334.790        4.993      869.057
03/12/2014  08:50:00      101.265       59.645      111.083      107.859      112.554       86.924    11633.464    12668.492     7555.862        2.900        1.593      117.525       70.190        0.357      334.868        5.123      869.073
03/12/2014  08:51:00      170.402       98.918      117.509      105.879      128.844       86.966    11210.346    16600.822     7563.075        4.400        1.769      197.032       79.254        0.162      334.907        5.186      869.102
03/12/2014  08:52:00       76.021       95.602      145.945      123.083      142.016      104.401    15149.467    20168.682    10899.493        4.121        2.311      122.143       98.567        0.651      334.909        5.191      869.092
03/12/2014  08:53:00      166.179      107.885       84.781      101.899       81.536       81.530    10383.376     6648.144     6647.162        3.506        1.184      198.128       62.292        0.099      334.886        5.152      869.128
03/12/2014  08:54:00      198.430       93.207       88.513      148.664      109.612      114.092    22100.900    12014.719    13017.002        5.151        2.357      219.231      101.034        0.212      334.889        5.157      869.114
03/12/2014  08:55:00      138.536      113.401      109.109      151.684      110.545      100.067    23008.080    12220.185    10013.360        4.459        2.262      179.031       90.068        0.253      334.885        5.149      869.124
03/12/2014  08:56:00      196.626      104.539       71.466      159.880      113.529       91.715    25561.544    12888.945     8411.680        5.077        2.343      222.689       85.042        0.146      334.846        5.085      869.145
03/12/2014  08:57:00      112.521       96.442      115.243      127.272       86.506       69.758    16198.288     7483.220     4866.190        3.189        1.427      148.196       77.874        0.276      334.970        5.292      869.149
03/12/2014  08:58:00      161.379       56.879       44.172       97.541       64.993       60.094     9514.196     4224.029     3611.311        2.429        0.867      171.109       57.223        0.112      335.001        5.345      869.194
03/12/2014  08:59:00      131.083      138.507       92.683      117.973       81.015       84.053    13917.712     6563.376     7064.835        3.625        1.377      190.701       75.077        0.155      335.114        5.531      869.196
03/12/2014  09:00:00      259.822      150.566      101.237      152.697      109.674       96.080    23316.222    12028.382     9231.277        7.249        2.229      300.296       83.432        0.077      334.890        5.158      869.185
03/12/2014  09:01:00      177.457      171.145      110.712      128.355       95.534       99.002    16474.939     9126.695     9801.433        5.421        1.770      246.539       72.732        0.087      334.905        5.183      869.176
03/12/2014  09:02:00      210.115      119.004       93.960      151.404      113.299      110.717    22923.292    12836.688    12258.246        5.757        2.401      241.475       72.162        0.089      334.932        5.228      869.165
03/12/2014  09:03:00      308.817      127.557       71.714      131.883      130.211       89.653    17393.008    16954.859     8037.591        7.958        2.119      334.124       70.565        0.045      334.959        5.274      869.158
03/12/2014  09:04:00      248.939      189.010      167.621      148.322      123.208      121.483    21999.397    15180.133    14758.141        8.885        2.597      312.562       91.397        0.086      334.889        5.158      869.142
03/12/2014  09:05:00      132.090      122.545      131.539      106.992       83.148       83.145    11447.234     6913.581     6913.115        3.752        1.264      180.181       51.932        0.083      334.989        5.325      869.141
03/12/2014  09:06:00      195.022      160.183      116.555      157.696       96.506       79.601    24868.063     9313.439     6336.274        5.889        2.026      252.372       74.957        0.088      335.065        5.449      869.133
03/12/2014  09:07:00      222.681      126.335      106.749      144.306       87.246      102.473    20824.352     7611.904    10500.669        5.793        1.947      256.023       86.491        0.114      335.095        5.499      869.123
03/12/2014  09:08:00      287.001       90.224      101.924      164.919      153.987      121.536    27198.363    23711.993    14771.088        8.328        3.284      300.849       98.855        0.108      334.988        5.320      869.097
03/12/2014  09:09:00      163.416      170.224      187.380      146.938      147.762       85.429    21590.871    21833.507     7298.118        7.075        2.536      235.968       86.653        0.135      335.143        5.579      869.060
03/12/2014  09:10:00      192.891      204.859      165.927      144.433      158.001      136.685    20860.889    24964.422    18682.909        8.559        3.225      281.379      121.852        0.188      335.110        5.524      869.063
03/12/2014  09:11:00      252.489      143.102      124.459      190.762      160.493      126.607    36390.178    25757.843    16029.458        8.893        3.909      290.222       76.689        0.070      335.179        5.638      869.062
03/12/2014  09:12:00      315.325      130.492      154.717      204.392      150.858      134.934    41776.126    22758.063    18207.265       11.155        4.137      341.259      123.069        0.130      335.045        5.418      869.034
03/12/2014  09:13:00      158.258      101.057      158.918      148.570      163.658      107.431    22072.934    26783.936    11541.337        6.044        3.020      187.771       91.597        0.238      335.170        5.625      869.043
03/12/2014  09:14:00      234.004      145.030      136.482      150.486      148.223      121.936    22645.957    21969.954    14868.373        7.694        2.974      275.303      111.726        0.165      335.116        5.534      869.026
03/12/2014  09:15:00      180.448      106.980      155.625      184.020      190.679      107.681    33863.236    36358.308    11595.267        7.501        4.091      209.777      123.093        0.344      335.200        5.674      869.023
03/12/2014  09:16:00      313.365      101.014       92.753      238.606      172.340      142.012    56932.686    29700.999    20167.466       11.188        5.340      329.244      113.081        0.118      335.052        5.427      869.055
03/12/2014  09:17:00      221.598      137.737      122.296      189.113      140.377      115.154    35763.903    19705.785    13260.397        7.587        3.437      260.916      113.511        0.189      335.107        5.519      869.053
03/12/2014  09:18:00      318.347      130.822      106.884      210.866      141.726      125.281    44464.506    20086.185    15695.429       10.505        4.012      344.179      115.782        0.113      335.149        5.589      869.061
03/12/2014  09:19:00      310.044      198.683      156.168      204.950      166.089      146.459    42004.578    27585.709    21450.298       12.550        4.552      368.242      127.032        0.119      335.151        5.590      869.043
03/12/2014  09:20:00      306.062      246.208      182.742      226.351      196.768      166.589    51234.670    38717.578    27751.817       15.267        5.885      392.800      140.489        0.128      334.988        5.322      869.023
03/12/2014  09:21:00      242.219      146.869      149.251      174.436      148.824      113.312    30427.992    22148.667    12839.666        8.395        3.271      283.267       91.580        0.105      335.102        5.511      869.052
03/12/2014  09:22:00      258.245      189.344      185.027      221.673      196.891      137.275    49139.055    38765.948    18844.539       12.174        5.337      320.221      141.426        0.195      335.194        5.664      869.065
03/12/2014  09:23:00      383.595      228.162      123.485      234.027      187.663      129.601    54768.483    35217.221    16796.536       16.060        5.339      446.321       96.443        0.047      335.115        5.534      869.028
03/12/2014  09:24:00      190.280      231.106      128.635      150.169      123.309      135.945    22550.841    15205.074    18481.160        8.119        2.812      299.360      102.046        0.116      335.333        5.893      869.058
03/12/2014  09:25:00      219.400      113.567      142.344      186.681      213.141      144.120    34849.703    45429.033    20770.570        9.115        5.052      247.050      130.051        0.277      335.416        6.032      869.048
03/12/2014  09:26:00      270.008      216.876      196.858      175.179      168.769      164.435    30687.835    28482.952    27038.979       12.243        4.310      346.323      132.676        0.147      335.262        5.777      869.056
03/12/2014  09:27:00      289.598      288.334      213.759      196.141      179.432      165.044    38471.396    32195.667    27239.573       15.528        4.895      408.660      150.772        0.136      335.187        5.652      869.058
03/12/2014  09:28:00      216.803      224.111      228.132      199.553      140.384      135.329    39821.345    19707.799    18314.053       11.354        3.892      311.816      106.112        0.116      335.276        5.800      869.044
03/12/2014  09:29:00      336.710      170.322      116.335      255.979      168.824      128.346    65525.043    28501.654    16472.591       13.319        5.525      377.337      122.524        0.105      335.252        5.760      869.072
03/12/2014  09:30:00      399.054      229.578      142.786      215.608      146.266      141.086    46486.953    21393.867    19905.296       16.004        4.389      460.380      139.447        0.092      335.238        5.737      869.078
03/12/2014  09:31:00      248.174      285.183      185.413      179.056      156.919      134.711    32061.042    24623.516    18147.110       12.605        3.742      378.047      122.354        0.105      335.166        5.617      869.066
03/12/2014  09:32:00      256.546      159.331      113.590      144.889      112.065      101.921    20992.941    12558.562    10387.859        7.401        2.197      301.997       87.333        0.084      335.409        6.022      869.083
03/12/2014  09:33:00      166.447      118.880      156.678      141.116      138.003       92.907    19913.861    19044.841     8631.788        5.698        2.380      204.541       86.746        0.180      335.501        6.174      869.079
03/12/2014  09:34:00      143.538       32.294      120.236      129.738      155.312       96.021    16831.839    24121.811     9220.056        4.313        2.509      147.126       93.437        0.403      335.580        6.306      869.071
03/12/2014  09:35:00      278.301      158.767      176.922      206.604      180.492      135.464    42685.405    32577.213    18350.427       11.377        4.681      320.403      115.668        0.130      335.411        6.024      869.037
03/12/2014  09:36:00      151.444      166.674      156.953      171.016      119.230      126.324    29246.359    14215.685    15957.675        6.737        2.971      225.201      114.627        0.259      335.513        6.193      869.057
03/12/2014  09:37:00      175.593       58.338      135.857      125.861      189.984      121.993    15840.873    36093.834    14882.383        5.974        3.341      185.030      122.118        0.436      335.561        6.273      869.039
03/12/2014  09:38:00      174.714      205.704      186.135      168.489      177.697      119.074    28388.595    31576.348    14178.522        9.080        3.707      269.887      111.451        0.171      335.444        6.078      869.033
03/12/2014  09:39:00      272.636      163.192       88.574      148.784      108.955       94.118    22136.697    11871.236     8858.132        7.583        2.143      317.745       77.314        0.059      335.581        6.307      869.052
03/12/2014  09:40:00      197.876      131.698      135.011      148.319      130.634       92.311    21998.481    17065.192     8521.380        6.115        2.379      237.696       90.038        0.143      335.729        6.553      869.038
03/12/2014  09:41:00      216.226      170.378      128.231      168.857      168.001      128.899    28512.531    28224.366    16615.038        8.277        3.668      275.285      123.533        0.201      335.526        6.215      869.013
03/12/2014  09:42:00      228.968      158.558      179.147      207.994      172.070      142.146    43261.485    29607.945    20205.424       10.135        4.654      278.509      143.347        0.265      335.430        6.054      869.006
03/12/2014  09:43:00      196.485      147.409      152.603      148.804      131.522      103.808    22142.483    17297.979    10776.193        6.691        2.511      245.634       92.192        0.141      335.559        6.270      869.019
03/12/2014  09:44:00      226.037      139.709      103.642      171.567      145.142      112.230    29435.265    21066.320    12595.574        7.221        3.155      265.728       95.376        0.129      335.585        6.314      869.040
03/12/2014  09:45:00      142.078      175.586      151.371      128.925      140.327      116.881    16621.548    19691.789    13661.062        6.194        2.499      225.868       99.888        0.196      335.728        6.553      869.020
03/12/2014  09:46:00      115.700       61.662       90.326      120.956      146.034       84.912    14630.239    21325.830     7210.077        3.425        2.158      131.106       61.668        0.221      335.980        6.973      869.026
03/12/2014  09:47:00      282.166      131.304      138.035      227.919      146.051      115.940    51947.276    21330.952    13442.028       10.130        4.336      311.221      122.058        0.154      335.624        6.378      869.003
03/12/2014  09:48:00      218.494       83.932      166.475      167.579      184.884      113.431    28082.644    34182.098    12866.518        7.880        3.757      234.060      109.553        0.219      335.576        6.298      868.990
03/12/2014  09:49:00      174.643      106.422      132.898      181.421      135.815      109.921    32913.419    18445.664    12082.553        6.145        3.172      204.513       85.914        0.176      335.698        6.503      868.982
03/12/2014  09:50:00      208.612      122.074       54.170      157.362      132.335      110.831    24762.915    17512.502    12283.429        5.795        2.728      241.705       79.107        0.107      335.590        6.324      869.006
03/12/2014  09:51:00      203.840      105.387       33.871       85.449       70.240       57.817     7301.488     4933.597     3342.807        3.469        0.779      229.471       42.730        0.035      335.860        6.772      869.021
03/12/2014  09:52:00      204.293      121.434       89.157      116.976       97.694       83.251    13683.284     9544.031     6930.695        4.729        1.508      237.659       63.524        0.071      335.795        6.664      868.995
03/12/2014  09:53:00      162.586       73.399      108.917      115.322       91.584       80.427    13299.097     8387.659     6468.568        3.591        1.408      178.386       63.409        0.126      335.834        6.729      868.983
03/12/2014  09:54:00      257.862      111.915       40.629      164.326      112.266       88.507    27003.192    12603.748     7833.423        6.405        2.372      281.101       90.789        0.104      335.819        6.704      869.005
03/12/2014  09:55:00      179.200      175.413      163.776      143.252      156.045      100.265    20521.130    24350.004    10053.092        7.230        2.746      250.763       84.456        0.113      335.752        6.593      869.009
03/12/2014  09:56:00      180.648      139.768      183.230      125.793      123.832       90.780    15823.787    15334.298     8240.982        6.256        1.970      228.405       71.018        0.097      335.784        6.645      869.034
03/12/2014  09:57:00      269.535      185.368      102.708      153.811      130.664      145.424    23657.921    17073.037    21148.084        8.971        3.094      327.124      103.127        0.099      335.634        6.394      869.035
03/12/2014  09:58:00      188.006       92.291       91.776      130.346      117.409      108.880    16990.180    13784.985    11854.805        4.745        2.131      209.437       98.251        0.220      335.887        6.817      869.041
03/12/2014  09:59:00      156.282      164.740      187.897      153.592      175.721      122.773    23590.630    30877.968    15073.187        7.819        3.477      227.075      122.944        0.293      335.720        6.538      869.012
03/12/2014  10:00:00      156.243       46.102      163.849      176.217      192.605      135.459    31052.398    37096.799    18349.082        6.992        4.325      162.902      159.389        0.957      335.940        6.905      869.011
03/12/2014  10:01:00      129.705       93.057      138.751      121.187      121.493       89.219    14686.363    14760.640     7959.949        4.106        1.870      159.634       91.836        0.331      335.809        6.686      869.024
03/12/2014  10:02:00      131.242      102.972      103.348      119.955      100.305       81.334    14389.281    10060.996     6615.181        3.478        1.553      166.817       75.500        0.205      335.903        6.845      869.047
03/12/2014  10:03:00      194.578       98.188      131.628      120.585       98.534       93.179    14540.648     9708.857     8682.259        4.887        1.647      217.948       71.629        0.108      335.871        6.788      869.044
03/12/2014  10:04:00      173.642      129.036       86.137      108.971       71.578       73.195    11874.697     5123.424     5357.518        3.828        1.118      216.337       64.535        0.089      335.935        6.897      869.063
03/12/2014  10:05:00      138.926       85.659      109.077      134.919      115.713       85.531    18203.020    13389.555     7315.597        3.871        1.945      163.211       69.993        0.184      336.227        7.384      869.068
03/12/2014  10:06:00      113.725      116.402      113.502      115.137      115.418       91.143    13256.571    13321.274     8307.006        3.712        1.744      162.735       81.622        0.252      336.288        7.487      869.071
03/12/2014  10:07:00      157.770       85.046      113.389      167.053      101.206       86.509    27906.714    10242.655     7483.850        4.530        2.282      179.232       81.247        0.205      336.010        7.023      869.064
03/12/2014  10:08:00       47.576       41.054       41.195       75.495       69.188       68.862     5699.540     4787.002     4741.914        1.043        0.761       62.840       50.011        0.633      336.438        7.739      869.075
03/12/2014  10:09:00      151.275      137.718      119.815      197.216      127.920      124.169    38894.262    16363.585    15417.999        6.343        3.534      204.574      101.112        0.244      336.436        7.735      869.084
03/12/2014  10:10:00      344.613      214.391      140.877      176.828      161.529      147.223    31268.309    26091.599    21674.731       13.179        3.952      405.860      110.653        0.074      335.893        6.827      869.043
03/12/2014  10:11:00      380.681      226.795       68.131      158.198      125.974       95.269    25026.542    15869.373     9076.171       12.547        2.499      443.119       72.378        0.027      335.840        6.737      869.053
03/12/2014  10:12:00      260.763      155.187       91.074      131.699      120.265      119.071    17344.737    14463.789    14177.860        7.317        2.299      303.447       87.472        0.083      336.130        7.222      869.044
03/12/2014  10:13:00      235.047      149.023      111.223      198.979      139.807      132.932    39592.747    19545.912    17670.997        8.330        3.840      278.307      115.727        0.173      336.063        7.110      869.011
03/12/2014  10:14:00      232.450      148.678       38.372      186.762      128.811      126.270    34880.032    16592.157    15944.039        7.250        3.371      275.931       95.133        0.119      336.127        7.217      868.982
03/12/2014  10:15:00      318.443      176.027       57.367      220.350      153.284      118.263    48553.940    23495.854    13986.037       11.084        4.302      363.856       70.711        0.038      336.159        7.273      868.967
03/12/2014  10:16:00      225.456      176.871      141.490      182.418      128.534      105.992    33276.276    16520.993    11234.205        8.157        3.052      286.555       73.329        0.065      336.264        7.445      868.966
03/12/2014  10:17:00      173.031      161.858      186.571      190.672      154.105      124.162    36355.871    23748.317    15416.292        8.322        3.776      236.934      118.585        0.250      335.952        6.926      868.971
03/12/2014  10:18:00      134.677       52.087      142.078      124.132      172.519      105.622    15408.876    29762.725    11155.919        4.867        2.816      144.399      110.869        0.590      336.000        7.006      868.951
03/12/2014  10:19:00      196.649      214.242      181.088      125.640      135.052      116.079    15785.535    18238.970    13474.221        8.242        2.375      290.810       98.122        0.114      335.953        6.926      868.983
03/12/2014  10:20:00      180.163      143.623      125.905      141.222      124.478      107.929    19943.670    15494.737    11648.601        5.800        2.354      230.405       98.132        0.181      336.210        7.356      868.975
03/12/2014  10:21:00      211.977      125.720       98.657      159.820      137.460       83.335    25542.403    18895.344     6944.743        6.092        2.569      246.455       73.798        0.090      336.232        7.393      868.955
03/12/2014  10:22:00      160.769      169.347      145.969      138.891       95.770       90.831    19290.690     9171.924     8250.229        5.627        1.836      233.506       83.597        0.128      336.175        7.298      868.938
03/12/2014  10:23:00      327.641      245.271      168.790      245.655      169.015      158.488    60346.476    28566.097    25118.311       15.499        5.702      409.275      146.363        0.128      336.099        7.171      868.908
03/12/2014  10:24:00      458.056      198.370       56.729      204.867      168.039      120.597    41970.408    28237.243    14543.673       16.855        4.238      499.165       96.064        0.037      335.830        6.721      868.905
03/12/2014  10:25:00      251.381      211.410      110.862      185.545      151.789      132.087    34427.085    23040.024    17446.870        9.753        3.746      328.461       83.475        0.065      335.940        6.906      868.920
03/12/2014  10:26:00      281.112      170.298       93.392      172.800      153.635      129.733    29859.778    23603.659    16830.687        9.351        3.515      328.672       97.159        0.087      336.019        7.036      868.906
03/12/2014  10:27:00      241.291       87.946       92.294      229.261      158.830       97.035    52560.718    25227.110     9415.724        8.082        4.360      256.819       89.579        0.122      336.190        7.321      868.877
03/12/2014  10:28:00       82.462      127.691      127.992      150.679      133.572      124.736    22704.199    17841.606    15559.072        4.778        2.805      152.003      108.228        0.507      336.409        7.690      868.888
03/12/2014  10:29:00      250.025      157.040       80.372      173.050      101.389       84.211    29946.186    10279.745     7091.434        7.047        2.366      295.253       67.874        0.053      336.374        7.631      868.920
03/12/2014  10:30:00      120.174       71.931       67.095      125.571      101.316       63.051    15768.127    10265.033     3975.427        2.706        1.500      140.057       48.224        0.119      336.698        8.171      868.917
03/12/2014  10:31:00      249.114      146.160      155.674      183.265      139.162      129.406    33585.926    19366.127    16745.790        8.866        3.485      288.826       96.053        0.111      336.327        7.551      868.909
03/12/2014  10:32:00      267.870      183.934      150.110      196.686      145.564      113.758    38685.215    21188.734    12940.886       10.045        3.641      324.940      114.856        0.125      336.220        7.370      868.910
03/12/2014  10:33:00      267.832      211.028      109.181      234.915      129.132      104.401    55185.159    16675.033    10899.671       10.546        4.138      340.979       96.995        0.081      336.366        7.618      868.930
03/12/2014  10:34:00      382.193      240.124       53.644      201.673      152.447      122.198    40671.859    23240.170    14932.355       14.271        3.942      451.366       75.531        0.028      336.216        7.366      868.930
03/12/2014  10:35:00      268.832      172.136       42.254      193.897      136.090      116.384    37595.969    18520.613    13545.157        8.666        3.483      319.220       66.593        0.044      336.209        7.354      868.954
03/12/2014  10:36:00      517.676      254.770       66.753      224.995      175.432      131.296    50622.758    30776.293    17238.550       21.798        4.932      576.972       71.428        0.015      335.728        6.551      868.910
03/12/2014  10:37:00      356.841      179.866       69.922      183.661      150.426      118.229    33731.412    22628.071    13978.013       11.744        3.517      399.609      109.748        0.075      336.111        7.190      868.919
03/12/2014  10:38:00      193.426      153.225       54.732      158.743      122.511       99.537    25199.384    15008.852     9907.671        5.699        2.506      246.762       61.619        0.062      336.307        7.516      868.916
03/12/2014  10:39:00      257.453      175.211      107.645      194.106      122.824      110.368    37677.255    15085.819    12181.000        8.674        3.247      311.418       68.660        0.049      336.246        7.416      868.896
03/12/2014  10:40:00      268.858      166.407       92.559      180.236      120.258       94.003    32485.010    14461.987     8836.560        8.215        2.789      316.190       83.650        0.070      336.263        7.447      868.905
03/12/2014  10:41:00      240.049      158.090      148.582      190.161      153.616      120.848    36161.076    23597.864    14604.272        8.951        3.718      287.430      110.141        0.147      336.288        7.487      868.887
03/12/2014  10:42:00      307.648      279.910      201.417      233.035      198.876      191.124    54305.431    39551.802    36528.521       17.195        6.519      415.928      175.899        0.179      335.974        6.962      868.866
03/12/2014  10:43:00      247.783      168.640      126.361      196.369      130.825      123.217    38560.737    17115.075    15182.349        8.832        3.543      299.726      108.998        0.132      336.066        7.116      868.864
03/12/2014  10:44:00      273.680      178.691      116.931      211.239      123.511      125.186    44621.821    15255.031    15671.507        9.801        3.777      326.851      106.423        0.106      336.200        7.339      868.852
03/12/2014  10:45:00      313.339      232.539      165.158      223.887      170.546      172.148    50125.603    29085.822    29635.038       14.417        5.442      390.200      147.155        0.142      336.281        7.475      868.858
03/12/2014  10:46:00      278.467      269.953      206.604      214.029      163.719      168.425    45808.254    26803.811    28366.927       14.702        5.049      387.838      152.456        0.155      335.949        6.920      868.869
03/12/2014  10:47:00      279.517      180.835      170.372      199.597      192.097      164.661    39839.146    36901.436    27113.273       12.183        5.193      332.913      145.558        0.191      336.177        7.300      868.870
03/12/2014  10:48:00      332.046      208.422      168.446      195.717      141.068      124.287    38305.304    19900.131    15447.234       12.785        3.683      392.039      109.371        0.078      336.037        7.067      868.889
03/12/2014  10:49:00      420.259      212.306       61.057      223.265      178.453      109.620    49847.168    31845.316    12016.456       15.955        4.685      470.841       81.648        0.030      335.961        6.940      868.891
03/12/2014  10:50:00      245.567      176.291      127.067      194.383      142.803      127.459    37784.598    20392.719    16245.800        9.096        3.721      302.294      114.192        0.143      336.317        7.534      868.869
03/12/2014  10:51:00      311.227      159.164      100.074      152.484      135.416      104.538    23251.469    18337.614    10928.277        9.235        2.626      349.565       80.065        0.052      336.339        7.572      868.864
03/12/2014  10:52:00      308.463      203.441      120.325      126.613      115.267      119.086    16030.973    13286.524    14181.566        9.725        2.175      369.510       85.956        0.054      336.447        7.753      868.891
03/12/2014  10:53:00      290.205      201.634       81.294      161.905      132.707       99.985    26213.283    17611.184     9996.990        9.264        2.691      353.377       73.166        0.043      336.091        7.156      868.890
03/12/2014  10:54:00      167.288      100.985      143.048      142.124      116.151       93.322    20199.223    13491.103     8708.929        5.051        2.120      195.406       92.981        0.226      336.390        7.655      868.872
03/12/2014  10:55:00      277.970      150.141       52.240      179.294      131.259       94.222    32146.462    17228.883     8877.843        8.038        2.913      315.926       65.513        0.043      336.294        7.497      868.880
03/12/2014  10:56:00      313.938      204.358       81.427      205.931       97.096      103.488    42407.538     9427.650    10709.787       10.473        3.127      374.593      110.002        0.086      336.251        7.424      868.851
03/12/2014  10:57:00      220.414      134.328       54.374      121.797       95.913       96.986    14834.541     9199.291     9406.241        5.150        1.672      258.121       54.157        0.044      336.318        7.537      868.832
03/12/2014  10:58:00      170.356      158.787      105.837      163.095      108.436       92.382    26600.030    11758.293     8534.344        5.615        2.345      232.883       84.962        0.133      336.786        8.320      868.840
03/12/2014  10:59:00      213.450      102.127      109.016      143.460      130.408      101.088    20580.850    17006.262    10218.880        5.783        2.390      236.624       99.637        0.177      336.538        7.904      868.835
03/12/2014  11:00:00      247.967      187.691      124.619      143.965      141.070      113.382    20725.842    19900.698    12855.567        8.285        2.674      310.991       79.779        0.066      336.646        8.085      868.809
03/12/2014  11:01:00      144.785      154.352      156.897      159.003      114.784      100.321    25281.983    13175.255    10064.321        5.895        2.426      211.630       95.893        0.205      336.633        8.063      868.785
03/12/2014  11:02:00      382.899      232.405      112.878      196.809      133.818      117.139    38733.956    17907.204    13721.650       14.185        3.518      447.911       99.422        0.049      336.141        7.240      868.764
03/12/2014  11:03:00      288.171      136.492      133.556      187.878      146.294      126.517    35298.291    21402.070    16006.677        9.609        3.635      318.862      102.728        0.104      336.328        7.553      868.747
03/12/2014  11:04:00      167.522      200.930      154.887      133.649      114.416      113.063    17862.091    13091.121    12783.343        6.807        2.187      261.604       91.273        0.122      336.383        7.644      868.760
03/12/2014  11:05:00      477.934      292.005       64.594      124.627      134.768      105.749    15531.910    18162.502    11182.833       18.136        2.244      560.078       52.573        0.009      336.043        7.077      868.787
03/12/2014  11:06:00      297.645      157.513       48.446      155.741      122.323       96.586    24255.245    14963.005     9328.883        8.214        2.427      336.754       49.172        0.021      336.259        7.437      868.792
03/12/2014  11:07:00      316.367      199.855       95.807      153.554      130.745      106.640    23578.699    17094.182    11372.109       10.062        2.602      374.206       79.883        0.046      336.257        7.434      868.735
03/12/2014  11:08:00      252.765      197.625       92.233      136.551      117.911      124.424    18646.132    13903.102    15481.323        7.973        2.402      320.851       71.315        0.049      336.423        7.713      868.711
03/12/2014  11:09:00      286.594      164.138      103.875      194.885      133.386      110.505    37979.996    17791.928    12211.386        9.391        3.399      330.269       79.050        0.057      336.520        7.873      868.700
03/12/2014  11:10:00      240.181      231.166      214.513      196.464      157.461      124.314    38597.942    24793.962    15453.968       11.798        3.942      333.353       87.244        0.068      336.389        7.655      868.642
03/12/2014  11:11:00      375.211      222.735       92.325      191.541      142.290      121.016    36688.029    20246.469    14644.763       13.523        3.579      436.341       88.024        0.041      336.255        7.431      868.695
03/12/2014  11:12:00      433.401      245.958       43.979      147.509      126.684      114.807    21758.837    16048.863    13180.601       15.062        2.549      498.329       53.890        0.012      336.154        7.262      868.702
03/12/2014  11:13:00      373.769      223.034       56.831      161.919      121.230       88.789    26217.696    14696.691     7883.463       12.073        2.440      435.256       58.189        0.018      336.096        7.164      868.670
03/12/2014  11:14:00      259.055      175.038      115.984      215.241      147.442      113.631    46328.632    21739.269    12911.929        9.607        4.049      312.647      107.026        0.117      336.319        7.538      868.628
03/12/2014  11:15:00      299.284      204.030       78.526      156.250      127.279      111.777    24414.136    16199.846    12494.197        9.523        2.655      362.214       67.178        0.034      336.570        7.957      868.629
03/12/2014  11:16:00      179.670      185.119      150.097      165.623      142.859       98.009    27430.933    20408.612     9605.834        7.325        2.872      257.974       73.662        0.082      336.679        8.139      868.632
03/12/2014  11:17:00      165.322      123.484      152.223      154.173      131.695      118.534    23769.218    17343.506    14050.301        6.045        2.758      206.348      103.567        0.252      336.670        8.124      868.637
03/12/2014  11:18:00      170.816      119.289      179.022      149.370      191.581      121.491    22311.527    36703.453    14760.147        7.460        3.689      208.346      114.581        0.302      336.657        8.102      868.595
03/12/2014  11:19:00      226.102      162.419      123.246      190.360      141.835      106.356    36237.021    20117.309    11311.611        8.017        3.383      278.391       94.832        0.116      336.651        8.093      868.642
03/12/2014  11:20:00      261.789      190.205      100.442      136.380       99.733      112.714    18599.441     9946.605    12704.342        7.802        2.063      323.591       71.790        0.049      336.482        7.810      868.664
03/12/2014  11:21:00      414.027      227.939       83.427      168.014      121.490      105.442    28228.756    14759.744    11118.012       14.221        2.705      472.625       85.059        0.032      336.230        7.387      868.644
03/12/2014  11:22:00      503.405      335.084       57.864      148.716      143.797      107.398    22116.476    20677.673    11534.302       21.168        2.716      604.729       57.911        0.009      336.080        7.137      868.638
03/12/2014  11:23:00      249.493       83.989       58.551      134.517      112.553       87.269    18094.900    12668.243     7615.801        5.555        1.919      263.251       45.195        0.029      336.642        8.078      868.632
03/12/2014  11:24:00      146.278      116.494      141.571      155.387      141.670       92.868    24145.116    20070.254     8624.530        5.391        2.642      186.998       82.448        0.194      336.837        8.403      868.597
03/12/2014  11:25:00      150.340      158.705      154.845      127.081      133.669      102.237    16149.595    17867.438    10452.423        5.811        2.223      218.608       85.764        0.154      336.718        8.205      868.588
03/12/2014  11:26:00      361.536      212.987       77.739      159.106      135.662      122.604    25314.670    18404.142    15031.740       12.042        2.938      419.608       94.441        0.051      336.538        7.904      868.588
03/12/2014  11:27:00      433.940      244.199       73.466      228.725      190.092      128.309    52315.059    36134.873    16463.176       17.910        5.246      497.933       97.510        0.038      336.229        7.387      868.577
03/12/2014  11:28:00      362.046      245.113       78.823      165.360      111.001      107.328    27344.086    12321.249    11519.391       12.427        2.559      437.215       76.697        0.031      336.389        7.653      868.585
03/12/2014  11:29:00      493.898      249.752       48.817      191.650      161.764      116.578    36729.697    26167.726    13590.432       19.258        3.824      553.454       92.098        0.028      336.346        7.583      868.527
03/12/2014  11:30:00      344.173      137.472       88.177      225.024      177.169      112.088    50636.003    31388.698    12563.623       11.984        4.729      370.612       73.881        0.040      336.589        7.989      868.511
03/12/2014  11:31:00      296.163      140.838       93.445      192.595      136.067      135.180    37092.734    18514.125    18273.593        9.507        3.694      327.945      102.959        0.099      336.652        8.094      868.542
03/12/2014  11:32:00      286.120      185.222       93.235      184.472      147.527      107.202    34029.993    21764.108    11492.189        9.606        3.364      340.840       98.395        0.083      336.588        7.987      868.543
03/12/2014  11:33:00      354.701      184.086       82.846      222.425      164.062      115.316    49472.892    26916.285    13297.708       12.811        4.484      399.626       82.571        0.043      336.507        7.850      868.541
03/12/2014  11:34:00      269.689      121.537       76.982      248.877      169.537      149.228    61939.676    28742.676    22268.981       10.317        5.648      295.810      125.710        0.181      336.471        7.790      868.513
03/12/2014  11:35:00      217.996      221.722      242.103      195.548      162.151      134.828    38239.144    26292.800    18178.673       11.899        4.136      310.939      147.049        0.224      336.454        7.763      868.502
03/12/2014  11:36:00      427.023      198.341       46.415      197.749      155.393      125.052    39104.687    24146.920    15637.938       15.135        3.944      470.838       82.402        0.031      336.306        7.516      868.506
03/12/2014  11:37:00      237.710      139.319      123.441      167.186      123.752       90.832    27951.323    15314.474     8250.464        7.132        2.576      275.528       76.131        0.076      336.720        8.207      868.506
03/12/2014  11:38:00      287.122      132.874       50.440      178.054      137.214       95.081    31703.278    18827.812     9040.427        8.109        2.979      316.377       49.845        0.025      336.826        8.385      868.485
03/12/2014  11:39:00      355.649      209.564       85.645      179.724      129.838      123.366    32300.605    16857.997    15219.257       12.105        3.219      412.800       78.284        0.036      336.726        8.218      868.489
03/12/2014  11:40:00      213.002      142.204       89.970      185.979      135.176      113.444    34588.035    18272.553    12869.636        6.970        3.287      256.109       95.675        0.140      336.567        7.953      868.444
03/12/2014  11:41:00      297.655      189.000      132.098      169.218      136.303       99.032    28634.846    18578.471     9807.262        9.938        2.851      352.589       84.275        0.057      336.744        8.249      868.436
03/12/2014  11:42:00      248.409      150.620       69.958      171.199      115.043       90.659    29309.169    13234.928     8219.143        7.002        2.538      290.505       79.409        0.075      336.921        8.543      868.426
03/12/2014  11:43:00      423.068      285.463       48.093      160.019      111.952       98.445    25606.014    12533.221     9691.397       15.530        2.392      510.368       51.302        0.010      336.364        7.613      868.412
03/12/2014  11:44:00      245.056      175.021      109.751      171.367      103.933       97.795    29366.684    10802.114     9563.901        7.622        2.487      301.140       92.005        0.093      337.088        8.824      868.387
03/12/2014  11:45:00      222.488      165.260      145.460      174.224      129.644      130.009    30353.923    16807.483    16902.457        8.100        3.203      277.149       90.667        0.107      336.877        8.471      868.396
03/12/2014  11:46:00      318.470      165.234      157.030      173.619      164.306      123.569    30143.674    26996.515    15269.329       11.288        3.620      358.784      114.374        0.102      336.703        8.178      868.402
03/12/2014  11:47:00      290.214      128.438      100.063      223.788      151.668      122.845    50081.128    23003.187    15090.881        9.944        4.409      317.365       86.493        0.074      336.503        7.845      868.378
03/12/2014  11:48:00      305.442      215.066      115.428      160.462      146.940      154.317    25747.994    21591.466    23813.827       11.200        3.558      373.561      120.258        0.104      336.576        7.967      868.381
03/12/2014  11:49:00      329.992      177.253      151.742      199.345      175.019      149.928    39738.350    30631.604    22478.258       12.807        4.642      374.584      131.221        0.123      336.344        7.579      868.334
03/12/2014  11:50:00      203.906      136.437      116.467      170.796      163.363      118.893    29171.242    26687.348    14135.571        7.186        3.500      245.342      107.933        0.194      336.572        7.960      868.323
03/12/2014  11:51:00      316.644      269.730      247.385      211.898      173.844      153.265    44900.829    30221.667    23490.293       16.640        4.931      415.954      121.067        0.085      336.554        7.930      868.286
03/12/2014  11:52:00      294.149      204.466      104.996      142.051      101.409       80.332    20178.606    10283.853     6453.179        8.813        1.846      358.231       60.786        0.029      336.708        8.187      868.366
03/12/2014  11:53:00      251.381      215.501      110.804      188.195      134.142      145.511    35417.395    17994.136    21173.416        9.823        3.729      331.109      130.624        0.156      336.795        8.333      868.345
03/12/2014  11:54:00      353.980      219.354       55.750      171.250      137.765       97.976    29326.518    18979.088     9599.310       11.720        2.895      416.435       80.987        0.038      336.698        8.171      868.336
03/12/2014  11:55:00      358.402      217.222       50.323      158.438      120.735      108.157    25102.551    14576.935    11697.847       11.476        2.569      419.091       81.925        0.038      336.892        8.495      868.332
03/12/2014  11:56:00      489.979      284.767      150.785      259.308      167.606      139.770    67240.618    28091.767    19535.615       22.937        5.743      566.720      116.536        0.042      336.458        7.770      868.288
03/12/2014  11:57:00      319.319      257.384      104.045      216.812      126.385      141.197    47007.494    15973.209    19936.563       13.096        4.146      410.136      131.034        0.102      336.828        8.388      868.304
03/12/2014  11:58:00      383.209      228.894       69.742      168.800      147.629      104.067    28493.477    21794.459    10829.840       13.260        3.056      446.364       52.073        0.014      336.564        7.948      868.361
03/12/2014  11:59:00      320.009      140.018       70.468      156.285      123.467       98.981    24424.976    15244.189     9797.218        8.821        2.473      349.301       65.549        0.035      336.644        8.081      868.328
03/12/2014  12:00:00      281.273      189.649       94.546      170.220      130.708      117.925    28974.942    17084.552    13906.268        9.198        2.998      339.236       56.373        0.028      337.074        8.800      868.298
03/12/2014  12:01:00      294.481      220.637      117.199      224.255      132.438      120.847    50290.184    17539.735    14604.004       11.577        4.122      367.967      119.925        0.106      336.898        8.505      868.247
03/12/2014  12:02:00      255.397      142.794       62.246      182.622      141.483       84.893    33350.870    20017.396     7206.861        7.502        3.029      292.605       57.666        0.039      337.099        8.842      868.274
03/12/2014  12:03:00      341.351      231.047       83.781      144.137      133.813      108.421    20775.543    17905.791    11755.123       11.367        2.522      412.193       81.812        0.039      337.147        8.922      868.290
03/12/2014  12:04:00      328.623      205.309       91.956      152.739      111.272       95.894    23329.126    12381.484     9195.623       10.174        2.245      387.485       55.873        0.021      337.055        8.769      868.279
03/12/2014  12:05:00      361.322      190.659       47.890      162.804      126.523       99.692    26505.235    16007.955     9938.446       11.081        2.623      408.539       45.358        0.012      336.787        8.320      868.245
03/12/2014  12:06:00      231.707      124.884       99.030      160.341      154.103      103.044    25709.359    23747.760    10618.070        6.957        3.004      263.218       82.766        0.099      337.045        8.751      868.243
03/12/2014  12:07:00      205.689      159.576      140.181      187.690      135.185      122.577    35227.500    18275.013    15025.006        7.796        3.426      260.331      103.915        0.159      337.233        9.067      868.214
03/12/2014  12:08:00      471.614      220.740      129.918      176.668      161.337      140.660    31211.515    26029.702    19785.364       18.251        3.851      520.716      113.300        0.047      336.730        8.225      868.242
03/12/2014  12:09:00      258.895      130.544      122.831      184.011      133.664      132.825    33860.022    17865.932    17642.402        8.425        3.468      289.945      113.699        0.154      336.834        8.398      868.255
03/12/2014  12:10:00      205.092      177.108      134.592      143.027      124.575      139.057    20456.591    15518.858    19336.956        7.342        2.766      270.980       92.708        0.117      336.964        8.614      868.256
03/12/2014  12:11:00      157.921       86.997      117.977      148.352      110.650       73.470    22008.325    12243.435     5397.908        4.303        1.982      180.298       83.273        0.213      337.171        8.962      868.247
03/12/2014  12:12:00      197.814       71.583       47.850      138.158       97.460       86.930    19087.687     9498.387     7556.789        4.134        1.807      210.367       72.176        0.118      336.989        8.659      868.202
03/12/2014  12:13:00      317.399      209.090      125.362      154.286      140.518      112.900    23804.271    19745.203    12746.372       10.822        2.815      380.080       78.931        0.043      337.113        8.865      868.179
03/12/2014  12:14:00      394.089      230.143       62.074      185.953      158.583      114.447    34578.461    25148.539    13098.061       14.246        3.641      456.368       90.563        0.039      336.937        8.571      868.195
03/12/2014  12:15:00      454.526      201.823       48.815      199.674      151.385      112.082    39869.695    22917.372    12562.449       16.251        3.767      497.320       68.886        0.019      336.782        8.312      868.199
03/12/2014  12:16:00      290.858      205.715       77.156      152.994      126.262       83.271    23407.207    15942.204     6934.014        8.957        2.314      356.254       63.927        0.032      336.953        8.599      868.220
03/12/2014  12:17:00      222.006      137.025       69.134      157.470      100.902       96.145    24796.799    10181.285     9243.841        5.852        2.211      260.888       87.393        0.112      337.078        8.807      868.227
03/12/2014  12:18:00      202.201      141.508      128.056      164.932      124.290      122.787    27202.473    15447.918    15076.611        6.751        2.886      246.799      116.009        0.221      336.891        8.493      868.188
03/12/2014  12:19:00      313.532      177.843      124.053      209.678      168.026      124.503    43964.895    28232.861    15501.052       11.649        4.385      360.459      101.369        0.079      336.870        8.459      868.171
03/12/2014  12:20:00      292.598      140.768       68.742      160.179      143.496      102.013    25657.215    20591.032    10406.736        8.339        2.833      324.699       64.350        0.039      336.915        8.534      868.163
03/12/2014  12:21:00      193.291      155.348       95.988      148.362       99.550       94.144    22011.218     9910.169     8863.088        5.574        2.039      247.981       64.575        0.068      337.262        9.116      868.149
03/12/2014  12:22:00      408.240      280.966       32.436      138.764      103.354      105.733    19255.478    10682.056    11179.364       14.388        2.056      495.582       57.614        0.014      336.741        8.242      868.143
03/12/2014  12:23:00      319.864      236.759       35.820      132.126       98.411       78.313    17457.273     9684.746     6132.989        9.646        1.664      397.954       36.744        0.009      336.974        8.633      868.134
03/12/2014  12:24:00      315.646      156.348       54.020      171.849      126.813       84.741    29531.933    16081.415     7181.073        8.988        2.640      352.246       54.787        0.024      336.811        8.359      868.147
03/12/2014  12:25:00      194.965      230.831      156.443      172.220      134.264      162.233    29659.803    18026.824    26319.624        9.487        3.700      302.149      156.299        0.268      337.062        8.778      868.111
03/12/2014  12:26:00      301.141      175.669       41.780      139.432      102.640       92.683    19441.409    10534.879     8590.071        8.092        1.928      348.634       52.759        0.023      337.054        8.766      868.123
03/12/2014  12:27:00      464.006      272.707       92.575      160.554      129.331      117.417    25777.507    16726.606    13786.725       17.725        2.815      538.210       52.128        0.009      336.712        8.195      868.097
03/12/2014  12:28:00      348.460      218.311       85.101      178.328      128.335      105.432    31800.715    16469.998    11115.958       11.784        2.969      411.198       83.008        0.041      336.909        8.523      868.071
03/12/2014  12:29:00      175.244      179.495       -0.918      162.023      127.973       89.329    26251.306    16377.128     7979.754        5.676        2.530      250.856       79.135        0.100      337.054        8.766      868.060
03/12/2014  12:30:00      346.975      212.894       61.671      162.779      126.417      110.180    26496.882    15981.191    12139.527       11.206        2.731      407.081       69.516        0.029      336.972        8.630      868.046
03/12/2014  12:31:00      496.855      317.277       52.751      180.785      134.618      110.877    32683.219    18121.926    12293.806       20.669        3.155      589.516       55.866        0.009      336.762        8.278      868.039
03/12/2014  12:32:00      353.065      227.741       40.221      203.774      157.490       88.334    41523.885    24803.107     7802.886       12.612        3.706      420.144       48.986        0.014      337.077        8.807      868.054
03/12/2014  12:33:00      164.777      105.874       89.644      144.231       96.509       83.271    20802.574     9313.961     6934.068        4.172        1.853      195.859       61.500        0.099      337.381        9.314      868.033
03/12/2014  12:34:00      349.449      167.246       46.112      183.841      116.253       94.426    33797.635    13514.826     8916.234       10.421        2.811      387.409       69.273        0.032      337.075        8.801      868.011
03/12/2014  12:35:00      245.370      170.478       44.342      168.746      129.295      100.497    28475.170    16717.090    10099.721        7.325        2.765      298.779       83.370        0.078      337.229        9.059      867.982
03/12/2014  12:36:00      311.072      238.460       53.873      187.299      145.367      131.317    35080.891    21131.582    17244.231       11.498        3.673      391.955       67.648        0.030      337.194        9.002      867.976
03/12/2014  12:37:00      180.852      167.051       47.700      111.553       88.183       71.927    12444.180     7776.260     5173.458        4.414        1.270      246.198       47.990        0.038      337.575        9.638      867.977
03/12/2014  12:38:00      216.129      128.934       39.944      159.030      111.312       82.117    25290.677    12390.269     6743.153        5.467        2.221      251.666       51.914        0.043      337.994       10.340      867.965
03/12/2014  12:39:00      482.659      333.293       46.096      164.724      115.751      111.142    27134.024    13398.274    12352.435       19.952        2.644      586.553       52.746        0.008      336.993        8.664      867.960
03/12/2014  12:40:00      390.116      262.977       59.982      127.062      117.816      102.187    16144.874    13880.545    10442.099       13.270        2.023      470.476       67.524        0.021      337.153        8.932      867.939
03/12/2014  12:41:00      297.279      201.260       41.051      162.644      117.129      103.607    26452.942    13719.137    10734.341        9.073        2.545      358.999       37.141        0.011      337.228        9.058      867.967
03/12/2014  12:42:00      223.030      155.138       76.082      167.719      107.009       85.207    28129.583    11450.921     7260.306        6.321        2.342      271.680       78.699        0.084      337.324        9.219      867.980
03/12/2014  12:43:00      121.772       78.101       64.945      101.510       64.271       88.403    10304.298     4130.702     7815.053        2.369        1.113      144.665       45.692        0.100      337.244        9.087      867.970
03/12/2014  12:44:00      128.471      102.173       -0.583       83.251       85.880       64.891     6930.770     7375.370     4210.887        2.273        0.926      164.146       47.882        0.085      337.403        9.353      867.954
03/12/2014  12:45:00      224.872      133.611       28.916       95.851       92.507       84.561     9187.468     8557.527     7150.571        4.707        1.245      261.570       52.445        0.040      337.058        8.772      867.927
03/12/2014  12:46:00      416.861      248.573       47.020      218.996      162.670      119.577    47959.146    26461.647    14298.545       16.323        4.436      485.347       49.706        0.010      337.275        9.135      867.881
03/12/2014  12:47:00      363.660      227.343       94.952      185.827      114.265      132.631    34531.843    13056.527    17590.975       12.905        3.259      428.875       90.336        0.044      337.394        9.336      867.840
03/12/2014  12:48:00      435.903      240.275       75.201      122.159      104.096       90.138    14922.884    10835.990     8124.881       14.363        1.694      497.739       55.851        0.013      337.123        8.882      867.913
03/12/2014  12:49:00      214.548      137.761       33.420      133.549       99.026       70.904    17835.209     9806.114     5027.390        4.939        1.633      254.969       47.463        0.035      337.465        9.454      867.924
03/12/2014  12:50:00      107.201      174.567      179.355      125.228      111.229       91.177    15682.060    12371.976     8313.231        5.524        1.818      204.855       85.668        0.175      337.665        9.790      867.894
03/12/2014  12:51:00      124.858      116.305      100.732      126.142       80.701       89.405    15911.744     6512.670     7993.216        3.483        1.521      170.635       79.572        0.217      337.760        9.949      867.879
03/12/2014  12:52:00       95.377       50.792       42.228      126.889       87.609       65.637    16100.837     7675.279     4308.203        2.077        1.404      108.058       50.250        0.216      337.674        9.806      867.858
03/12/2014  12:53:00      257.956      180.512       16.299      101.437       77.906       62.441    10289.448     6069.396     3898.871        5.982        1.013      314.843       46.622        0.022      336.956        8.603      867.844
03/12/2014  12:54:00      134.720       95.137       70.431      107.484       75.408       68.220    11552.915     5686.423     4654.012        2.702        1.095      164.926       72.592        0.194      337.271        9.131      867.835
03/12/2014  12:55:00      196.927      154.520      106.377      122.626       94.029       99.234    15037.251     8841.378     9847.411        5.384        1.686      250.314       71.924        0.083      337.509        9.528      867.808
03/12/2014  12:56:00      269.511      199.928       99.096      170.756      125.663      129.247    29157.599    15791.198    16704.790        9.203        3.083      335.570      105.765        0.099      337.521        9.546      867.744
03/12/2014  12:57:00      385.017      199.169       30.752      185.013      115.249      103.031    34229.771    13282.445    10615.434       12.348        2.906      433.481       66.033        0.023      337.527        9.558      867.720
03/12/2014  12:58:00      415.212      245.968       88.314      213.635      129.169      115.750    45639.892    16684.710    13398.113       15.820        3.786      482.598       72.436        0.023      337.200        9.010      867.682
03/12/2014  12:59:00      359.637      221.737       58.671      168.795      128.353      111.038    28491.672    16474.470    12329.416       11.961        2.865      422.500       48.551        0.013      337.231        9.062      867.711
03/12/2014  13:00:00      341.483      203.739       53.077      113.620       92.119       92.294    12909.448     8485.851     8518.172        9.542        1.496      397.643       54.592        0.019      337.015        8.702      867.703
03/12/2014  13:01:00      329.025      216.220       33.109      132.835      101.703       97.654    17645.187    10343.534     9536.247        9.681        1.876      393.711       26.032        0.004      337.034        8.732      867.696
03/12/2014  13:02:00      378.314      260.329       43.008      137.951       95.138       86.796    19030.523     9051.291     7533.495       12.417        1.781      459.230       60.073        0.017      336.967        8.621      867.685
03/12/2014  13:03:00      218.360      134.373       50.670      100.927       75.044       70.086    10186.356     5631.587     4912.117        4.451        1.037      256.393       49.484        0.037      336.910        8.526      867.670
03/12/2014  13:04:00      177.796      132.203       38.899      142.190       88.989       56.712    20217.871     7919.061     3216.231        4.097        1.568      221.561       48.941        0.049      337.316        9.206      867.642
03/12/2014  13:05:00      239.732      142.498       30.358       86.137       79.189       73.780     7419.645     6270.870     5443.461        4.891        0.957      278.885       19.810        0.005      337.695        9.839      867.636
03/12/2014  13:06:00      188.811      177.335       83.028      159.090       89.652       94.612    25309.553     8037.408     8951.510        5.814        2.115      259.031       83.701        0.104      337.632        9.734      867.612
03/12/2014  13:07:00      159.376      131.132      106.375      139.944       94.801       98.043    19584.358     8987.269     9612.492        4.604        1.909      206.389       85.865        0.173      337.860       10.118      867.610
03/12/2014  13:08:00      125.307       74.498       94.281      126.134      101.104       83.178    15909.841    10222.110     6918.594        3.159        1.653      145.780       73.826        0.256      337.769        9.965      867.610
03/12/2014  13:09:00      196.875      217.102      139.241      128.880       89.225      101.020    16610.082     7961.023    10204.961        7.002        1.739      293.076       69.267        0.056      337.288        9.158      867.586
03/12/2014  13:10:00      215.233      186.619       80.630      126.755       74.834       93.518    16066.764     5600.100     8745.566        5.903        1.521      284.872       75.927        0.071      337.549        9.595      867.588
03/12/2014  13:11:00      165.089      106.007       29.022      116.854       80.280       58.782    13654.776     6444.934     3455.267        3.144        1.178      196.194       57.190        0.085      337.903       10.190      867.575
03/12/2014  13:12:00       96.869       97.722       15.934       74.380       88.445       64.417     5532.410     7822.449     4149.508        1.834        0.875      137.598       52.976        0.148      337.969       10.301      867.565
03/12/2014  13:13:00      125.757      198.174      -46.582      107.476       98.112       68.777    11551.076     9625.980     4730.329        4.158        1.295      234.708       54.496        0.054      337.145        8.919      867.535
03/12/2014  13:14:00       37.810       76.524       52.698       80.859       82.064       68.709     6538.115     6734.533     4720.984        1.402        0.900       85.356       28.853        0.114      337.721        9.885      867.481
03/12/2014  13:15:00      155.814      106.657       53.180       74.736       63.705       77.352     5585.481     4058.274     5983.256        2.705        0.781      188.821       43.322        0.053      337.335        9.238      867.475
03/12/2014  13:16:00      201.551      136.586       40.826      138.870       88.536       78.628    19284.842     7838.648     6182.312        4.712        1.665      243.472       56.193        0.053      337.555        9.606      867.432
03/12/2014  13:17:00      220.283      111.677       36.693      116.180      111.462       81.603    13497.695    12423.750     6658.985        4.746        1.629      246.974       30.540        0.015      337.349        9.260      867.417
03/12/2014  13:18:00      165.284      104.367       65.722      145.369       97.876       80.696    21132.211     9579.795     6511.890        3.987        1.861      195.477       63.565        0.106      337.898       10.183      867.413
03/12/2014  13:19:00      207.543      153.671       52.740      130.755      111.164       92.128    17096.943    12357.393     8487.557        5.370        1.897      258.242       35.334        0.019      338.102       10.523      867.396
03/12/2014  13:20:00      392.752      243.924       71.953      187.483      143.104      100.503    35150.025    20478.637    10100.906       14.232        3.286      462.334       75.837        0.027      337.559        9.613      867.371
03/12/2014  13:21:00      267.689      183.969       72.360      215.446      149.396      112.463    46416.838    22319.045    12647.992        9.604        4.069      324.811       68.220        0.044      337.814       10.040      867.331
03/12/2014  13:22:00      522.656      389.240       77.859      179.096      126.438      130.505    32075.359    15986.683    17031.656       24.790        3.255      651.673       84.460        0.017      337.365        9.287      867.339
03/12/2014  13:23:00      363.410      245.356       71.945      107.788       88.449      100.012    11618.259     7823.211    10002.404       11.344        1.472      438.482       51.459        0.014      337.311        9.196      867.358
03/12/2014  13:24:00      210.065      116.328       62.674      154.742      106.165       82.278    23944.993    11271.096     6769.679        5.178        2.099      240.124       49.155        0.042      337.736        9.909      867.341
03/12/2014  13:25:00      244.690      154.824       29.336       98.198       93.863       64.862     9642.905     8810.324     4207.039        5.368        1.133      289.558       23.930        0.007      337.515        9.538      867.326
03/12/2014  13:26:00      116.964       58.030       34.028       77.764       62.567       48.957     6047.301     3914.581     2396.741        1.528        0.618      130.568       26.919        0.043      338.090       10.503      867.294
03/12/2014  13:27:00       84.399      102.273       37.479       80.808       69.165       60.988     6529.927     4783.791     3719.585        1.701        0.752      132.601       41.844        0.100      338.330       10.906      867.257
03/12/2014  13:28:00      105.125      110.730       -4.337       68.993       64.171       53.144     4760.025     4117.967     2824.287        1.751        0.585      152.683       38.041        0.062      337.831       10.070      867.220
03/12/2014  13:29:00      184.572      113.663       19.812      121.509       96.560       65.258    14764.388     9323.740     4258.560        3.786        1.417      216.763       37.055        0.029      337.614        9.705      867.199
03/12/2014  13:30:00      163.737      146.180      106.579      139.579       95.725      102.745    19482.397     9163.184    10556.610        4.936        1.960      219.496      101.529        0.214      337.744        9.923      867.166
03/12/2014  13:31:00      220.866      150.041      175.315      159.633      148.403      113.880    25482.613    22023.417    12968.601        8.124        3.024      267.010      104.074        0.152      337.877       10.143      867.127
03/12/2014  13:32:00       88.451       68.158      154.571      126.658      199.954      116.337    16042.219    39981.524    13534.254        5.295        3.478      111.665      120.688        1.168      338.187       10.664      867.108
03/12/2014  13:33:00      200.373       67.038      138.477      168.557      235.168      160.776    28411.466    55304.074    25848.788        8.667        5.478      211.290      157.456        0.555      338.025       10.393      867.099
03/12/2014  13:34:00      324.425      167.073      116.323      166.544      132.527      121.380    27736.813    17563.404    14732.985       10.335        3.002      364.918      107.453        0.087      337.954       10.274      867.143
03/12/2014  13:35:00      221.438      199.782      175.744      200.186      140.996      130.283    40074.468    19879.852    16973.626        9.837        3.846      298.241      143.850        0.233      337.937       10.247      867.139
03/12/2014  13:36:00      122.641       41.016       54.638       98.623      100.370       75.949     9726.453    10074.188     5768.285        2.263        1.278      129.318       54.765        0.179      338.197       10.685      867.161
03/12/2014  13:37:00      167.803      113.326       66.275       98.778       63.781       55.938     9757.172     4068.065     3129.015        3.117        0.848      202.486       49.255        0.059      337.821       10.052      867.120
03/12/2014  13:38:00       85.653       12.774       56.793      108.787      115.134       65.134    11834.575    13255.815     4242.457        2.002        1.467       86.600       63.177        0.532      337.939       10.251      867.078
03/12/2014  13:39:00       34.924       36.326       62.925       54.053       82.279       46.424     2921.774     6769.782     2155.143        0.917        0.592       50.392       49.515        0.965      338.230       10.740      867.051
03/12/2014  13:40:00       82.549     -122.546       20.199      107.196      146.064       64.416    11490.937    21334.819     4149.452        2.960        1.849      147.756       86.464        0.342      337.922       10.222      866.991
03/12/2014  13:41:00       74.698     -220.128        8.348       75.304       77.580       51.481     5670.754     6018.677     2650.299        3.422        0.717      232.456       51.067        0.048      337.659        9.780      866.942
03/12/2014  13:42:00      175.663       11.639       31.767       92.120      116.780       69.899     8486.024    13637.521     4885.849        2.950        1.350      176.048       49.349        0.079      337.773        9.971      866.931
03/12/2014  13:43:00      124.154       77.699       95.805      126.968      109.282       68.274    16120.870    11942.472     4661.371        3.167        1.636      146.463       49.953        0.116      338.139       10.587      866.928
03/12/2014  13:44:00      176.237      123.162       89.756      132.148       81.006       87.794    17463.044     6561.960     7707.786        4.300        1.587      215.008       87.057        0.164      338.233       10.742      866.919
03/12/2014  13:45:00       89.032       16.991       38.757      212.547      257.337      118.503    45176.114    66222.452    14042.949        6.755        6.272       90.639       71.018        0.614      338.290       10.838      866.749
03/12/2014  13:46:00      151.291     -100.026       98.154      170.830      257.685      157.885    29182.835    66401.400    24927.625        8.150        6.026      181.368      201.012        1.228      338.205       10.696      866.837
03/12/2014  13:47:00      164.637       64.191      141.394      133.166      178.262      108.178    17733.126    31777.165    11702.424        5.620        3.061      176.708      118.069        0.446      338.236       10.746      866.859
03/12/2014  13:48:00      159.300      122.102      158.294      171.863      155.150      100.433    29537.007    24071.618    10086.736        6.451        3.185      200.712      104.253        0.270      338.321       10.889      866.851
03/12/2014  13:49:00      223.387      138.537      108.607      140.018      119.409      102.733    19605.106    14258.528    10554.034        6.264        2.221      262.858       54.288        0.043      337.422        9.382      866.878
03/12/2014  13:50:00      183.764      198.103      212.292      136.735      121.208       91.895    18696.399    14691.426     8444.769        7.995        2.092      270.211       78.393        0.084      337.808       10.028      866.859
03/12/2014  13:51:00      146.393      114.295      130.047      100.143      121.917      103.980    10028.720    14863.738    10811.740        4.355        1.785      185.726       92.879        0.250      337.579        9.646      866.848
03/12/2014  13:52:00      116.203       60.034       24.747       77.660       54.909       42.476     6031.125     3014.950     1804.253        1.428        0.543      130.795       31.194        0.057      337.753        9.939      866.782
03/12/2014  13:53:00       81.304      -52.551       14.414       75.294       68.860       39.034     5669.234     4741.720     1523.687        1.075        0.597       96.809       45.522        0.221      338.079       10.486      866.769
03/12/2014  13:54:00       47.268      -51.121       19.365       61.520       88.392       49.994     3784.707     7813.098     2499.406        0.966        0.705       69.625       33.855        0.236      338.183       10.661      866.779
03/12/2014  13:55:00      198.531       48.100       56.279      144.610      140.556       73.588    20911.972    19755.953     5415.246        4.548        2.304      204.275       58.797        0.083      338.136       10.581      866.748
03/12/2014  13:56:00      256.867      174.723       63.884      126.326       97.216       91.906    15958.200     9450.908     8446.760        6.722        1.693      310.658       77.366        0.062      338.351       10.940      866.736
03/12/2014  13:57:00      200.923      113.285       62.069       90.047      129.717       98.182     8108.490    16826.382     9639.714        4.581        1.729      230.659       90.201        0.153      337.833       10.072      866.743
03/12/2014  13:58:00      202.493       -7.074       76.473      177.457      193.946      102.007    31491.096    37615.215    10405.486        6.319        3.976      202.616      120.393        0.353      338.172       10.641      866.697
03/12/2014  13:59:00      132.798       20.069      115.428      146.810      149.317      103.446    21553.266    22295.584    10701.169        4.294        2.728      134.306      113.657        0.716      338.202       10.692      866.658
03/12/2014  14:00:00      116.720     -115.527       52.419       84.900      195.039       88.618     7207.957    38040.301     7853.207        4.140        2.655      164.225      119.216        0.527      337.873       10.139      866.651
03/12/2014  14:01:00      139.167     -239.108      -14.868       76.435       82.992       49.126     5842.377     6887.647     2413.389        4.595        0.757      276.659       41.215        0.022      337.837       10.076      866.599
03/12/2014  14:02:00       82.575       12.190       71.091       78.471      165.025       89.556     6157.740    27233.315     8020.210        2.671        2.071       83.470      103.071        1.525      338.379       10.989      866.560
03/12/2014  14:03:00      157.955       72.086       50.893      124.393      109.769       80.388    15473.704    12049.235     6462.211        3.335        1.699      173.626       56.708        0.107      338.541       11.261      866.577
03/12/2014  14:04:00      158.767      127.239       77.933      149.252      111.933       85.397    22276.102    12529.075     7292.564        4.478        2.105      203.462       52.656        0.067      338.638       11.422      866.531
03/12/2014  14:05:00      250.143      147.990       56.351      121.346      102.342       77.726    14724.967    10473.972     6041.258        5.944        1.562      290.642       32.989        0.013      338.574       11.315      866.527
03/12/2014  14:06:00      198.881      139.694       41.436      135.904       92.563       82.150    18469.842     8567.977     6748.615        4.728        1.689      243.039       38.491        0.025      338.624       11.400      866.517
03/12/2014  14:07:00      328.422      193.139       90.164      182.963      148.248      117.259    33475.478    21977.473    13749.705       11.123        3.460      381.003       93.659        0.060      338.118       10.548      866.498
03/12/2014  14:08:00      110.557      144.095      151.971      122.736      160.544      114.130    15064.180    25774.466    13025.657        5.496        2.693      181.621      111.200        0.375      338.450       11.106      866.498
03/12/2014  14:09:00      159.867      157.905      148.886      117.142      123.901      129.087    13722.196    15351.420    16663.382        5.919        2.287      224.703       95.909        0.182      338.538       11.254      866.474
03/12/2014  14:10:00      363.595      173.097       91.779      154.818      110.331       99.154    23968.520    12172.864     9831.505       10.827        2.299      402.696       81.828        0.041      338.062       10.455      866.432
03/12/2014  14:11:00      230.084      136.728       55.693      184.106      125.104      107.900    33895.009    15651.086    11642.446        6.795        3.059      267.643       76.144        0.081      338.584       11.332      866.406
03/12/2014  14:12:00      378.084      270.116       81.327      160.332      115.986      106.268    25706.327    13452.685    11292.801       13.648        2.523      464.661       54.511        0.014      338.768       11.642      866.427
03/12/2014  14:13:00      417.811      275.020       62.463      141.373      113.096      101.876    19986.326    12790.651    10378.747       14.862        2.158      500.202       57.443        0.013      338.081       10.486      866.434
03/12/2014  14:14:00      242.695      126.651      109.144      184.100      153.100       97.992    33892.846    23439.525     9602.377        7.688        3.347      273.754       88.702        0.105      338.381       10.991      866.425
03/12/2014  14:15:00      381.969      183.532       76.605      182.968      149.392      118.254    33477.191    22317.936    13984.021       12.760        3.489      423.774       94.837        0.050      338.115       10.544      866.419
03/12/2014  14:16:00      302.943      189.847       62.391      134.004      100.913      101.147    17957.102    10183.499    10230.786        8.503        1.919      357.514       41.425        0.013      338.600       11.359      866.411
03/12/2014  14:17:00      303.369      184.710       63.526      158.394      104.227       95.957    25088.613    10863.182     9207.812        8.766        2.258      355.177       64.434        0.033      337.839       10.081      866.449
03/12/2014  14:18:00      146.619      109.162       25.863      137.214       84.505       63.511    18827.633     7141.094     4033.598        3.204        1.500      182.793       39.681        0.047      338.268       10.802      866.402
03/12/2014  14:19:00      213.258      146.071       39.103      101.026       88.367       76.388    10206.228     7808.656     5835.113        4.609        1.192      258.487       49.750        0.037      338.068       10.465      866.392
03/12/2014  14:20:00      242.975      174.382       34.296      160.474      101.184       60.760    25751.922    10238.122     3691.740        6.514        1.984      299.075       33.466        0.013      338.144       10.594      866.361
03/12/2014  14:21:00      401.256      258.862       39.308      153.064      100.367       83.959    23428.539    10073.551     7049.142       13.505        2.028      477.510       70.546        0.022      337.953       10.272      866.338
03/12/2014  14:22:00       75.377       60.711       -5.758       93.165       95.004       55.690     8679.677     9025.769     3101.344        1.510        1.040       96.786       39.258        0.165      338.027       10.399      866.318
03/12/2014  14:23:00      329.829      165.900       86.765      196.306      126.293      106.734    38536.125    15949.820    11392.060       10.484        3.294      369.202       87.586        0.056      338.184       10.659      866.283
03/12/2014  14:24:00      364.560      235.790       75.806      132.858      108.274      103.950    17651.222    11723.233    10805.623       11.721        2.009      434.167       52.971        0.015      338.190       10.670      866.304
03/12/2014  14:25:00      101.620      -20.188       66.487      135.061      179.199       77.383    18241.517    32112.258     5988.136        3.574        2.817      103.606       76.064        0.539      338.376       10.983      866.301
03/12/2014  14:26:00      104.537      137.259      132.375      115.745       96.442       92.776    13396.799     9301.017     8607.425        3.929        1.565      172.534       76.562        0.197      338.464       11.132      866.264
03/12/2014  14:27:00      191.029      149.160       30.332      135.627       93.768       74.993    18394.634     8792.419     5623.932        4.623        1.641      242.365       34.736        0.021      338.530       11.242      866.272
03/12/2014  14:28:00      258.667      174.475       50.378       93.207       66.084       58.487     8687.563     4367.035     3420.673        5.818        0.824      312.010       38.249        0.015      338.063       10.457      866.257
03/12/2014  14:29:00      169.577      121.930       45.203      134.005      103.938       80.466    17957.256    10803.187     6474.768        4.044        1.762      208.862       40.102        0.037      338.552       11.279      866.223
03/12/2014  14:30:00      356.583      204.146       32.508      136.602       98.229       84.410    18660.112     9649.029     7125.067       10.265        1.772      410.886       52.958        0.017      338.124       10.559      866.211
03/12/2014  14:31:00      247.034      130.397       40.892      176.615      105.538       77.222    31192.724    11138.359     5963.180        6.399        2.415      279.337       70.582        0.064      338.476       11.150      866.219
03/12/2014  14:32:00      214.069      126.391       75.532      148.247      113.556       83.676    21977.215    12895.022     7001.704        5.468        2.094      248.596       53.560        0.046      338.782       11.665      866.196
03/12/2014  14:33:00      194.684      -63.707       82.341      141.650      192.749      100.462    20064.726    37152.069    10092.697        5.801        3.365      204.842      117.533        0.329      338.643       11.431      866.197
03/12/2014  14:34:00      141.938       24.971       77.478      155.393      149.991       86.155    24147.052    22497.161     7422.761        4.041        2.703      144.118       80.738        0.314      338.777       11.657      866.170
03/12/2014  14:35:00      201.762      110.565      111.537      168.379      109.341      101.745    28351.405    11955.378    10352.076        5.801        2.533      230.070       89.251        0.150      338.680       11.492      866.183
03/12/2014  14:36:00      114.031      114.390      141.776      108.294       97.525       84.656    11727.554     9511.193     7166.613        3.729        1.420      161.519       66.888        0.171      338.471       11.144      866.173
03/12/2014  14:37:00      200.694        5.239      108.364      178.206      144.505       95.254    31757.445    20881.777     9073.371        5.687        3.086      200.762       89.007        0.197      338.533       11.247      866.133
03/12/2014  14:38:00      182.435     -248.656        4.519      154.404      238.473      109.942    23840.496    56869.244    12087.186        9.395        4.640      308.403      157.469        0.261      338.301       10.857      866.107
03/12/2014  14:39:00      111.988     -192.856       -1.904      115.186       83.111       66.702    13267.813     6907.413     4449.151        3.718        1.231      223.013       70.988        0.101      338.329       10.905      866.094
03/12/2014  14:40:00      104.418     -273.972      -51.137      110.238      107.198       54.564    12152.460    11491.393     2977.272        5.759        1.331      293.196       45.561        0.024      338.437       11.085      866.041
03/12/2014  14:41:00       52.792      -29.568       79.206       86.119      165.149       97.103     7416.450    27274.037     9429.032        2.702        2.206       60.508      110.169        3.315      339.057       12.128      866.010
03/12/2014  14:42:00       93.248     -175.639      -10.611       94.109      121.584       43.911     8856.567    14782.556     1928.211        3.261        1.278      198.857       50.572        0.065      338.967       11.975      866.006
03/12/2014  14:43:00      187.201      102.706       95.423      111.948      126.713       81.819    12532.423    16056.122     6694.351        4.498        1.764      213.524       67.115        0.099      338.568       11.304      865.995
03/12/2014  14:44:00      114.208       93.726       71.934       89.302       75.879       82.700     7974.871     5757.675     6839.250        2.378        1.029      147.744       67.719        0.210      338.441       11.092      866.017
03/12/2014  14:45:00      309.100      179.993       52.020      135.120       90.798       74.783    18257.377     8244.234     5592.432        8.136        1.605      357.688       18.465        0.003      338.507       11.202      865.974
03/12/2014  14:46:00      398.852      241.405       24.426      156.902      125.084       94.132    24618.237    15646.000     8860.845       13.353        2.456      466.218       47.156        0.010      338.547       11.270      865.944
03/12/2014  14:47:00      231.757      133.607       93.857      151.093      116.664      117.569    22829.058    13610.550    13822.442        6.531        2.513      267.511       90.805        0.115      338.718       11.557      865.933
03/12/2014  14:48:00      264.021      164.765       46.446      153.287      118.224       91.976    23496.977    13976.847     8459.503        7.246        2.297      311.215       38.542        0.015      338.793       11.683      865.945
03/12/2014  14:49:00      283.350      202.951       59.956      147.578      128.180      107.684    21779.296    16430.180    11595.737        8.743        2.490      348.535       73.129        0.044      338.423       11.062      865.958
03/12/2014  14:50:00      353.345      197.811       42.757      164.965      140.517       96.681    27213.472    19745.059     9347.228       11.105        2.815      404.946       35.307        0.008      338.574       11.314      865.935
03/12/2014  14:51:00      389.702      255.567       58.911      158.626      129.736       91.357    25162.298    16831.305     8346.061       13.549        2.517      466.028       50.835        0.012      338.375       10.980      865.938
03/12/2014  14:52:00      294.126      219.579       65.021      115.126      105.656       92.225    13254.034    11163.295     8505.379        8.593        1.646      367.049       43.888        0.014      338.566       11.300      865.940
03/12/2014  14:53:00      277.087      151.852       70.203      122.267      104.473      100.646    14949.208    10914.673    10129.562        7.037        1.800      315.968       66.249        0.044      338.502       11.194      865.936
03/12/2014  14:54:00      133.416      125.477      145.910      110.977      154.947      130.932    12315.998    24008.616    17143.066        5.414        2.673      183.151      130.842        0.510      338.281       10.824      865.939
03/12/2014  14:55:00       80.268       11.950       85.213       84.722      128.114       79.083     7177.898    16413.244     6254.124        2.184        1.492       81.153       86.377        1.133      338.594       11.351      865.892
03/12/2014  14:56:00       15.190      -42.904       26.389       62.177       82.848       58.562     3865.948     6863.783     3429.538        0.846        0.708       45.514       60.360        1.759      339.007       12.045      865.865
03/12/2014  14:57:00       50.543       -1.459       56.958       76.701      100.571       72.067     5883.044    10114.459     5193.716        1.349        1.060       50.564       75.376        2.222      338.729       11.578      865.839
03/12/2014  14:58:00       66.925      103.248       88.242       95.930       68.343       76.535     9202.535     4670.764     5857.639        2.132        0.987      123.041       71.316        0.336      338.558       11.288      865.837
03/12/2014  14:59:00      112.356       37.482        1.318       61.859       45.760       36.434     3826.522     2093.986     1327.418        1.064        0.362      118.443       20.869        0.031      338.481       11.161      865.831
03/12/2014  15:00:00      223.324      156.719      104.776      149.417       97.775       84.336    22325.306     9559.996     7112.555        6.220        1.950      272.827       66.745        0.060      338.630       11.409      865.828
03/12/2014  15:01:00      222.206      157.858      110.145      144.399      115.160      108.340    20850.985    13261.927    11737.622        6.613        2.293      272.571       93.972        0.119      338.597       11.353      865.777
03/12/2014  15:02:00      288.514      210.686       57.446      147.027       98.274       87.543    21616.885     9657.699     7663.753        8.493        1.947      357.252       53.443        0.022      338.479       11.155      865.782
03/12/2014  15:03:00      204.444      107.409       91.526      151.562       86.213       87.789    22971.183     7432.661     7706.847        4.990        1.906      230.942       68.831        0.089      338.590       11.343      865.746
03/12/2014  15:04:00      316.771      192.595       60.884      198.513      140.376       87.498    39407.604    19705.437     7655.957       10.394        3.338      370.725       31.953        0.007      338.532       11.243      865.752
03/12/2014  15:05:00      365.056      198.259       89.262      232.612      156.142      112.731    54108.456    24380.253    12708.180       13.585        4.560      415.418       54.700        0.017      338.613       11.380      865.711
03/12/2014  15:06:00      354.792      207.018       27.157      146.388      124.378      105.823    21429.541    15469.906    11198.604       10.878        2.405      410.772       67.739        0.027      338.767       11.640      865.721
03/12/2014  15:07:00      396.475      253.793       48.145      132.486      126.898       84.639    17552.519    16103.120     7163.779       13.236        2.041      470.747       17.202        0.001      338.308       10.866      865.714
03/12/2014  15:08:00      330.006      196.294       94.754      185.629      124.019      117.322    34458.019    15380.799    13764.426       11.000        3.180      383.973       61.377        0.026      338.580       11.325      865.729
03/12/2014  15:09:00      267.672      117.380       58.325      158.021      123.340       73.398    24970.743    15212.765     5387.224        6.719        2.279      292.278       57.117        0.038      338.361       10.959      865.774
03/12/2014  15:10:00       79.304       37.383        5.018       93.688       52.856       59.537     8777.502     2793.723     3544.634        1.141        0.756       87.673       25.707        0.086      338.613       11.384      865.749
03/12/2014  15:11:00      106.173       61.242       13.283       54.370       67.869       52.826     2956.114     4606.233     2790.618        1.277        0.518      122.569       35.952        0.086      338.620       11.394      865.717
03/12/2014  15:12:00      198.209       96.286       32.392      125.944       84.866       67.670    15861.771     7202.316     4579.190        3.862        1.382      220.359       20.942        0.009      338.703       11.532      865.712
03/12/2014  15:13:00      143.392       72.963       84.299      125.414       66.578       85.223    15728.793     4432.675     7263.014        3.020        1.371      160.888       68.015        0.179      338.679       11.492      865.682
03/12/2014  15:14:00      112.439       65.834       45.201       92.645       74.240       59.278     8583.120     5511.615     3513.883        1.831        0.880      130.294       50.925        0.153      338.896       11.860      865.672
03/12/2014  15:15:00      134.241       87.677       90.395      121.961      103.940       71.962    14874.365    10803.582     5178.591        3.236        1.543      160.337       69.037        0.185      339.174       12.325      865.658
03/12/2014  15:16:00      267.328      175.688       43.710      110.876      113.069       81.339    12293.495    12784.585     6615.984        6.796        1.585      319.891       54.865        0.029      338.598       11.354      865.657
03/12/2014  15:17:00      193.673      133.618       36.288      122.637       83.892       72.427    15039.925     7037.888     5245.630        4.200        1.366      235.293       33.978        0.021      338.809       11.710      865.632
03/12/2014  15:18:00      268.563      161.495       44.757      185.667      139.245       87.331    34472.187    19389.269     7626.628        8.084        3.074      313.379       29.770        0.009      338.926       11.908      865.591
03/12/2014  15:19:00      192.016      159.667       99.034      173.604      139.492      122.391    30138.213    19457.912    14979.677        6.836        3.229      249.727       94.095        0.142      338.726       11.569      865.583
03/12/2014  15:20:00      153.709       73.606       96.479      153.285      132.876      108.216    23496.297    17655.981    11710.745        4.560        2.643      170.424      100.848        0.350      338.876       11.822      865.560
03/12/2014  15:21:00      242.652      149.100       55.427      122.932      101.509       80.972    15112.398    10304.037     6556.403        5.807        1.599      284.800       68.911        0.059      339.014       12.054      865.579
03/12/2014  15:22:00      269.127      209.359      153.533      191.555      137.823      154.777    36693.326    18995.287    23956.045       10.972        3.982      340.970      126.619        0.138      338.872       11.815      865.578
03/12/2014  15:23:00      141.550      116.976      163.747      167.352      243.305      137.640    28006.748    59197.176    18944.791        8.332        5.307      183.630      149.908        0.666      338.554       11.281      865.602
03/12/2014  15:24:00      142.339      -47.787       88.751      106.584      124.145       88.457    11360.175    15411.990     7824.680        3.250        1.730      150.146       86.754        0.334      338.656       11.454      865.594
03/12/2014  15:25:00      153.880      133.118      101.444      127.527      105.159      104.767    16263.168    11058.332    10976.036        4.499        1.915      203.469       87.952        0.187      338.606       11.368      865.568
03/12/2014  15:26:00      116.902       17.293       13.385      103.481      130.964       54.027    10708.323    17151.652     2918.877        2.246        1.539      118.174       33.543        0.081      338.810       11.714      865.547
03/12/2014  15:27:00      118.530     -152.078       -6.869      113.364      129.757       76.023    12851.464    16836.836     5779.471        3.634        1.773      192.814       78.928        0.168      338.773       11.650      865.491
03/12/2014  15:28:00      125.016     -137.336        0.005       90.231      122.276       62.988     8141.653    14951.450     3967.472        3.077        1.353      185.716       77.463        0.174      338.793       11.683      865.499
03/12/2014  15:29:00       66.925       39.759       95.471       83.749      105.672       66.651     7013.880    11166.571     4442.351        1.889        1.131       77.844       77.452        0.990      338.890       11.848      865.515
03/12/2014  15:30:00      163.178       99.209       63.307       75.991       53.085       54.368     5774.644     2818.050     2955.927        2.601        0.577      190.970       37.702        0.039      338.728       11.573      865.534
03/12/2014  15:31:00       93.670       65.038       79.513      102.291       93.260       90.332    10463.363     8697.488     8159.883        2.332        1.366      114.036       75.604        0.440      338.898       11.862      865.541
03/12/2014  15:32:00      231.967      192.712      171.131      109.591      130.773      108.551    12010.119    17101.450    11783.263        8.056        2.045      301.574       87.090        0.083      338.547       11.269      865.518
03/12/2014  15:33:00      100.841      131.504       97.058       83.554       78.013       68.626     6981.259     6086.105     4709.507        2.733        0.889      165.717       50.357        0.092      338.425       11.065      865.503
03/12/2014  15:34:00      103.757       85.835       74.363       94.122       78.989       68.999     8858.866     6239.235     4760.840        2.176        0.993      134.659       62.404        0.215      338.769       11.646      865.478
03/12/2014  15:35:00      221.027      107.078       48.030      132.041      104.600       76.405    17434.892    10941.128     5837.688        4.841        1.711      245.598       39.476        0.026      338.831       11.747      865.475
03/12/2014  15:36:00      170.876      164.413      113.670      172.053      114.484       98.525    29602.066    13106.593     9707.191        6.077        2.621      237.129       78.752        0.110      339.002       12.035      865.436
03/12/2014  15:37:00      397.499      240.223       77.764      203.286      139.174      135.535    41325.257    19369.395    18369.707       15.040        3.953      464.449      117.581        0.064      338.793       11.683      865.405
03/12/2014  15:38:00      340.300      193.704       52.379      177.147      126.531      112.185    31381.197    16010.177    12585.407       10.801        2.999      391.567       44.092        0.013      338.577       11.320      865.436
03/12/2014  15:39:00      314.059      201.424       42.096      159.855      108.851       94.998    25553.652    11848.481     9024.659        9.369        2.321      373.102       26.960        0.005      338.637       11.421      865.419
03/12/2014  15:40:00      372.993      238.886       53.396      152.511      117.795      108.939    23259.498    13875.565    11867.740       12.401        2.450      442.933       62.151        0.020      338.660       11.459      865.382
03/12/2014  15:41:00      370.493      208.852       68.410      178.229      127.527      102.970    31765.472    16263.148    10602.764       12.209        2.932      425.305       72.810        0.029      338.846       11.772      865.362
03/12/2014  15:42:00      246.598      112.881       65.097      142.485      122.939       90.861    20301.891    15113.936     8255.781        6.072        2.184      271.206       66.251        0.060      339.181       12.338      865.354
03/12/2014  15:43:00      251.621      161.580       84.806      216.605      135.045      101.030    46917.713    18237.171    10207.101        8.597        3.768      299.034       95.544        0.102      339.029       12.081      865.372
03/12/2014  15:44:00      256.551      100.324       78.528      182.983      134.906      100.685    33482.681    18199.593    10137.514        7.192        3.091      275.470       98.913        0.129      338.857       11.790      865.379
03/12/2014  15:45:00      312.764      149.770       78.753      188.008      132.700      113.172    35346.903    17609.221    12807.859        9.610        3.288      346.774       93.601        0.073      338.748       11.607      865.373
03/12/2014  15:46:00      114.772       66.558      103.757      131.069      120.851       89.544    17178.970    14604.881     8018.084        3.408        1.990      132.675       91.597        0.477      339.136       12.262      865.375
03/12/2014  15:47:00      106.381       68.665       91.803      115.721       99.378       91.737    13391.386     9876.046     8415.645        2.807        1.584      126.616       82.914        0.429      338.912       11.884      865.365
03/12/2014  15:48:00      148.901      143.551       63.658      122.527       89.000       75.300    15012.762     7920.922     5670.117        3.771        1.430      206.829       34.294        0.027      339.103       12.205      865.334
03/12/2014  15:49:00      204.239      180.419      178.762      110.874      121.472       96.027    12293.024    14755.497     9221.203        7.124        1.813      272.515       82.632        0.092      339.021       12.067      865.311
03/12/2014  15:50:00      194.566      114.323       25.152      108.009       88.883       80.205    11665.915     7900.180     6432.787        3.877        1.300      225.667       44.645        0.039      339.101       12.202      865.310
03/12/2014  15:51:00      144.224       90.094       60.350      122.446       83.433       84.385    14992.998     6960.991     7120.896        3.081        1.454      170.052       65.834        0.150      339.207       12.380      865.298
03/12/2014  15:52:00      210.510      151.357      103.308      159.485      116.494      105.400    25435.474    13570.737    11109.215        6.400        2.506      259.275       64.267        0.061      338.858       11.792      865.271
03/12/2014  15:53:00      154.133      132.714       85.396      103.306       68.835       70.636    10672.045     4738.276     4989.382        3.453        1.020      203.396       64.683        0.101      339.033       12.087      865.262
03/12/2014  15:54:00      315.511      195.897       77.422      172.679      159.608      100.344    29818.111    25474.612    10069.019       10.463        3.268      371.380       80.170        0.047      338.884       11.836      865.267
03/12/2014  15:55:00      264.544      180.997       78.834      127.052       77.337       84.841    16142.108     5981.070     7198.075        6.913        1.466      320.537       50.839        0.025      338.900       11.864      865.262
03/12/2014  15:56:00      149.040       67.242       30.905      122.458       82.395       62.245    14995.994     6789.009     3874.393        2.667        1.283      163.507       46.039        0.079      339.016       12.060      865.257
03/12/2014  15:57:00      116.583      102.523       41.365      107.113       82.183       65.116    11473.185     6754.106     4240.141        2.414        1.123      155.250       41.141        0.070      339.067       12.146      865.243
03/12/2014  15:58:00      283.898      165.943       61.837      119.825       94.035       72.860    14357.972     8842.515     5308.652        7.023        1.425      328.839       39.949        0.015      338.917       11.890      865.259
03/12/2014  15:59:00      290.081      152.522       52.947      121.468      113.441       93.403    14754.467    12868.912     8724.127        7.327        1.817      327.734       23.169        0.005      338.982       12.001      865.240
03/12/2014  16:00:00      241.280      149.527       75.977      195.644      122.281       94.346    38276.540    14952.632     8901.209        7.423        3.107      283.856       97.676        0.118      339.156       12.293      865.251
03/12/2014  16:01:00      201.462      101.007       65.584      158.446       99.207       83.292    25105.205     9842.063     6937.551        4.848        2.094      225.365       75.251        0.111      338.985       12.007      865.239
03/12/2014  16:02:00      189.660      181.517      143.956      133.288      110.964       97.699    17765.585    12313.039     9545.092        6.463        1.981      262.525       85.308        0.106      338.926       11.907      865.235
03/12/2014  16:03:00       81.167      150.886      148.331      129.083       90.156       80.419    16662.468     8128.176     6467.217        4.130        1.563      171.332       89.069        0.270      338.839       11.760      865.232
03/12/2014  16:04:00       88.641       82.349       53.787      100.381       69.580       56.692    10076.298     4841.381     3213.998        1.783        0.907      120.990       51.062        0.178      339.106       12.210      865.242
03/12/2014  16:05:00       75.696       65.140       91.107       82.524       70.343       64.569     6810.265     4948.181     4169.144        1.710        0.796       99.865       48.286        0.234      338.774       11.652      865.229
03/12/2014  16:06:00      129.566      104.345       53.409       91.370       69.111       72.340     8348.561     4776.366     5233.071        2.444        0.918      166.359       64.109        0.149      338.861       11.798      865.198
03/12/2014  16:07:00       89.210       61.938       63.816       73.071       48.045       46.248     5339.333     2308.364     2138.834        1.282        0.489      108.603       18.238        0.028      339.244       12.444      865.214
03/12/2014  16:08:00      144.923       89.826       95.899      127.773       92.761       81.322    16326.061     8604.670     6613.187        3.490        1.577      170.503       83.631        0.241      339.088       12.179      865.194
03/12/2014  16:09:00       95.925       28.455       77.044      126.615      138.148       97.463    16031.368    19084.869     9498.980        3.027        2.231      100.056      100.194        1.003      339.291       12.522      865.159
03/12/2014  16:10:00      162.895      -56.671       74.837      152.320      166.726       91.748    23201.272    27797.615     8417.764        4.737        2.971      172.472       99.052        0.330      339.224       12.409      865.126
03/12/2014  16:11:00       52.527       31.270       95.631       94.071      121.320       68.727     8849.435    14718.529     4723.410        2.058        1.415       61.130       66.002        1.166      339.285       12.513      865.130
03/12/2014  16:12:00       70.111      -46.143       49.791       98.356      144.678       74.252     9673.924    20931.842     5513.401        2.281        1.806       83.933       80.135        0.912      339.349       12.620      865.126
03/12/2014  16:13:00      108.739       77.940      117.505      119.387      146.699      105.177    14253.333    21520.679    11062.187        3.926        2.342      133.786       87.477        0.428      339.326       12.580      865.083
03/12/2014  16:14:00      278.893     -101.718       68.911      177.108      149.266       99.114    31367.133    22280.363     9823.542        7.816        3.174      296.864      116.171        0.153      338.851       11.781      865.093
03/12/2014  16:15:00       57.017       86.123      106.483       77.949       95.386       67.791     6076.023     9098.555     4595.596        2.088        0.989      103.286       52.259        0.256      339.179       12.333      865.121
03/12/2014  16:16:00       28.762       18.300       53.432       67.319       95.471       61.604     4531.895     9114.712     3795.002        1.073        0.872       34.090       55.388        2.640      339.114       12.225      865.136
03/12/2014  16:17:00      151.347       85.666       31.243       89.053       95.846       57.361     7930.435     9186.446     3290.254        2.581        1.020      173.909       41.444        0.057      338.922       11.902      865.125
03/12/2014  16:18:00      190.462      116.207       48.910      108.157       68.950       62.770    11698.016     4754.155     3940.127        3.628        1.020      223.114       27.425        0.015      338.857       11.791      865.098
03/12/2014  16:19:00      106.240       68.982       57.437       66.063       64.330       56.592     4364.258     4138.286     3202.638        1.552        0.585      126.670       44.692        0.124      339.104       12.209      865.071
03/12/2014  16:20:00      132.894       93.836       81.092      146.268       96.253       78.105    21394.426     9264.669     6100.320        3.489        1.838      162.683       77.468        0.227      339.452       12.793      865.063
03/12/2014  16:21:00      238.659       72.144       42.365      185.966      125.690      110.378    34583.339    15797.951    12183.247        6.325        3.128      249.325      104.957        0.177      339.339       12.601      865.014
03/12/2014  16:22:00       99.765      229.293      247.034      123.976      142.575       89.495    15370.050    20327.586     8009.391        8.362        2.185      250.056       82.774        0.110      339.171       12.318      865.021
03/12/2014  16:23:00      226.745      195.319      153.876      154.597      133.564      135.085    23900.380    17839.470    18247.872        8.660        2.999      299.271      112.022        0.140      339.045       12.107      865.020
03/12/2014  16:24:00      176.502      127.679      113.514      148.993      105.643       91.448    22198.962    11160.545     8362.652        5.102        2.086      217.841       83.743        0.148      339.432       12.758      865.034
03/12/2014  16:25:00      254.902      145.110      147.669      200.730      120.871      110.536    40292.474    14609.695    12218.299        8.747        3.356      293.312      114.138        0.151      339.215       12.393      865.022
03/12/2014  16:26:00      212.525       82.017       98.885      138.925      138.913       97.004    19300.162    19296.943     9409.756        5.483        2.400      227.802       73.975        0.105      339.004       12.038      865.024
03/12/2014  16:27:00      236.878      244.987      207.150      168.745      157.186      136.618    28475.041    24707.559    18664.402       11.543        3.592      340.778      131.873        0.150      339.024       12.072      864.988
03/12/2014  16:28:00      134.265       69.259      116.747      107.907      141.144       78.816    11643.864    19921.607     6211.894        3.711        1.889      151.076       81.500        0.291      339.326       12.581      865.008
03/12/2014  16:29:00      158.328      160.203      131.178       99.282      101.078       83.721     9856.910    10216.671     7009.260        4.751        1.354      225.239       67.331        0.089      339.227       12.413      865.018
03/12/2014  16:30:00      215.615      152.942      109.176      170.138      131.708      100.882    28947.027    17347.035    10177.180        6.912        2.824      264.351       81.739        0.096      339.050       12.116      864.993
03/12/2014  16:31:00      198.515       63.912       36.646      108.451       95.445       67.489    11761.676     9109.813     4554.830        3.513        1.271      208.549       48.104        0.053      338.908       11.877      864.994
03/12/2014  16:32:00      272.167      105.103       61.302      104.420       90.940       73.267    10903.518     8270.093     5368.114        5.671        1.227      291.756       43.612        0.022      338.984       12.003      864.984
03/12/2014  16:33:00      204.565       70.770       23.735      120.574       78.909       60.955    14538.124     6226.595     3715.475        3.594        1.224      216.461       23.803        0.012      338.869       11.811      864.987
03/12/2014  16:34:00      169.358      175.100      136.295      182.239       91.093      101.721    33211.225     8297.870    10347.112        6.488        2.593      243.603      112.364        0.213      339.253       12.456      864.958
03/12/2014  16:35:00      145.618      157.321       91.610      149.718       83.471      102.674    22415.564     6967.428    10541.924        4.713        1.996      214.370       90.047        0.176      339.324       12.575      864.951
03/12/2014  16:36:00      257.593      169.077       82.565      164.528      110.821       90.790    27069.545    12281.298     8242.756        7.467        2.380      308.125       79.478        0.067      339.298       12.533      864.957
03/12/2014  16:37:00      276.126      229.673      143.106      152.153      118.569      126.161    23150.606    14058.715    15916.657       10.129        2.656      359.159      105.037        0.086      338.983       12.003      864.926
03/12/2014  16:38:00      227.332      154.053      112.022      164.239      106.305       80.802    26974.587    11300.676     6528.912        6.637        2.240      274.612       51.307        0.035      339.253       12.458      864.915
03/12/2014  16:39:00      319.813      172.165       65.345      153.562      110.703       85.260    23581.141    12255.142     7269.214        8.964        2.155      363.210       61.318        0.029      338.993       12.020      864.924
03/12/2014  16:40:00      229.727      160.874       59.706      123.484       82.698       83.435    15248.330     6838.977     6961.355        5.563        1.452      280.455       35.279        0.016      339.133       12.254      864.908
03/12/2014  16:41:00      169.460       94.176       54.597      108.959       98.795       81.797    11872.162     9760.494     6690.774        3.444        1.416      193.871       48.985        0.064      339.306       12.547      864.897
03/12/2014  16:42:00      230.456      125.237       79.284      133.256      124.433       95.647    17757.225    15483.448     9148.371        5.873        2.119      262.286       71.666        0.075      339.072       12.152      864.875
03/12/2014  16:43:00      147.776      102.970       95.723      132.852      108.915       84.303    17649.680    11862.394     7107.042        3.910        1.831      180.113       59.267        0.108      339.111       12.218      864.863
03/12/2014  16:44:00      195.200      136.870      103.552      124.681       87.272       75.843    15545.355     7616.396     5752.095        4.823        1.446      238.404       61.264        0.066      339.194       12.357      864.835
03/12/2014  16:45:00      207.356      120.235       79.754      159.355      115.077      100.602    25394.174    13242.640    10120.714        5.628        2.438      239.694       95.298        0.158      339.068       12.146      864.826
03/12/2014  16:46:00      157.826      159.193      160.628      144.779      117.980       99.132    20961.016    13919.368     9827.063        6.037        2.235      224.168       88.890        0.157      338.948       11.944      864.807
03/12/2014  16:47:00      167.926      114.495      103.523      122.757      103.783       84.634    15069.244    10770.894     7162.959        4.251        1.650      203.245       79.172        0.152      339.243       12.440      864.812
03/12/2014  16:48:00      142.047      -49.299       34.965      113.387      139.139       92.216    12856.565    19359.687     8503.874        3.227        2.036      150.359       59.039        0.154      339.285       12.511      864.778
03/12/2014  16:49:00      146.623       83.590      118.626      158.058      130.357      105.262    24982.326    16993.019    11080.016        4.780        2.653      168.777       85.506        0.257      339.179       12.333      864.782
03/12/2014  16:50:00      124.351      136.899      128.315      144.543      117.721      121.048    20892.725    13858.343    14652.665        5.003        2.470      184.945      115.121        0.387      339.268       12.482      864.783
03/12/2014  16:51:00      210.603      182.966      138.959      115.497      110.117      116.747    13339.514    12125.767    13629.915        6.811        1.955      278.981       81.434        0.085      339.074       12.153      864.791
03/12/2014  16:52:00      149.155      110.744       81.511      110.143       93.834       90.437    12131.428     8804.751     8178.852        3.513        1.456      185.772       77.796        0.175      339.349       12.618      864.792
03/12/2014  16:53:00      150.355      108.755      124.207      139.938       99.712       84.211    19582.722     9942.438     7091.470        4.323        1.831      185.565       70.211        0.143      339.358       12.634      864.785
03/12/2014  16:54:00      212.693      148.315      160.642      154.335      137.557      106.360    23819.368    18921.840    11312.509        7.354        2.703      259.298       96.160        0.138      339.209       12.383      864.768
03/12/2014  16:55:00      213.994      137.580      144.446      161.222      158.839      128.373    25992.541    25229.883    16479.655        7.663        3.385      254.405      117.009        0.212      339.090       12.182      864.766
03/12/2014  16:56:00      177.313      173.884      186.926      125.622      120.257       93.048    15780.789    14461.685     8657.875        6.775        1.945      248.346       76.675        0.095      338.984       12.003      864.776
03/12/2014  16:57:00      191.891      114.306      100.446      128.872      114.528      100.324    16608.011    13116.669    10064.858        4.988        1.989      223.356       75.010        0.113      339.125       12.241      864.761
03/12/2014  16:58:00      132.936       49.242      118.165      124.548      129.970       84.644    15512.290    16892.286     7164.545        3.681        1.978      141.763       78.859        0.309      339.339       12.602      864.738
03/12/2014  16:59:00      163.346       68.677      136.957      201.156      138.907      101.323    40463.593    19295.153    10266.328        6.008        3.501      177.197       79.345        0.201      339.133       12.254      864.731
03/12/2014  17:00:00      183.879      108.038       79.241      176.307      124.702      118.602    31084.298    15550.508    14066.339        5.622        3.035      213.269       91.194        0.183      339.104       12.206      864.690
03/12/2014  17:01:00      190.406      105.343      121.670      144.924      121.294      102.719    21002.983    14712.268    10551.165        5.420        2.313      217.604      101.465        0.217      339.324       12.576      864.689
03/12/2014  17:02:00      197.693      162.493      129.759      143.181      108.234      100.375    20500.920    11714.577    10075.163        6.230        2.115      255.903       94.419        0.136      339.292       12.521      864.686
03/12/2014  17:03:00      247.606      125.196      100.660      160.081      111.757      124.882    25626.080    12489.540    15595.394        7.040        2.686      277.458      108.701        0.153      339.117       12.228      864.675
03/12/2014  17:04:00      234.743      115.230       88.602      179.385      111.894       95.708    32179.130    12520.171     9159.969        6.504        2.693      261.500       86.482        0.109      339.051       12.116      864.668
03/12/2014  17:05:00      254.274       95.280       89.576      178.690      111.681       98.884    31930.252    12472.753     9778.029        6.796        2.709      271.539       91.517        0.114      339.129       12.248      864.630
03/12/2014  17:06:00      198.310      148.140      113.309      131.381      120.225       94.588    17260.867    14454.012     8946.857        5.738        2.033      247.532       73.595        0.088      339.197       12.362      864.644
03/12/2014  17:07:00      226.208      132.893       94.644      155.997      118.965      111.816    24335.146    14152.771    12502.846        6.438        2.550      262.356       87.304        0.111      339.026       12.075      864.608
03/12/2014  17:08:00      118.191      123.014      135.778      131.908      136.971      125.493    17399.643    18761.136    15748.479        4.971        2.595      170.592      130.059        0.581      339.106       12.210      864.595
03/12/2014  17:09:00      196.150      181.049      129.794      145.467      157.848      121.207    21160.713    24915.996    14691.147        7.442        3.038      266.934      113.291        0.180      338.960       11.963      864.573
03/12/2014  17:10:00      253.197      258.304      243.241      134.077      156.273      124.928    17976.634    24421.165    15607.005       12.399        2.900      361.704      111.997        0.096      338.967       11.975      864.552
03/12/2014  17:11:00      267.582      203.778      183.462      149.693      161.703      132.948    22408.109    26147.964    17675.049       10.649        3.312      336.342      115.071        0.117      339.057       12.126      864.542
03/12/2014  17:12:00      239.953      161.641      107.033      159.534      133.754      118.615    25451.252    17890.022    14069.468        7.627        2.871      289.319       89.392        0.095      339.085       12.175      864.547
03/12/2014  17:13:00      178.048      208.681      212.043      157.347      141.001      109.158    24758.200    19881.272    11915.547        8.837        2.828      274.315       89.898        0.107      339.161       12.301      864.548
03/12/2014  17:14:00      292.738      236.440      166.243      212.534      144.163      131.847    45170.831    20783.099    17383.660       12.627        4.167      376.296      117.616        0.098      338.987       12.008      864.532
03/12/2014  17:15:00      213.667      177.571      146.988      131.684      117.362       99.992    17340.742    13773.812     9998.450        6.994        2.056      277.822       86.011        0.096      339.112       12.220      864.557
03/12/2014  17:16:00      173.786      150.152      142.139      104.115       85.444       94.720    10839.848     7300.683     8971.913        5.003        1.356      229.668       75.237        0.107      339.078       12.164      864.556
03/12/2014  17:17:00       25.030       40.194       60.532       64.303       86.203       60.232     4134.902     7430.972     3627.893        1.055        0.760       47.350       52.004        1.206      339.194       12.361      864.538
03/12/2014  17:18:00      132.774       92.583       66.000       90.772       76.776       46.372     8239.497     5894.507     2150.346        2.342        0.814      161.866       21.532        0.018      339.259       12.469      864.525
03/12/2014  17:19:00       94.263      128.529      155.091      103.118       94.570       71.599    10633.226     8943.481     5126.347        3.708        1.235      159.390       76.631        0.231      339.056       12.126      864.498
03/12/2014  17:20:00      124.302       27.983       99.494      150.619      149.292       69.978    22686.228    22288.024     4896.920        3.799        2.494      127.412       79.783        0.392      339.349       12.620      864.492
03/12/2014  17:21:00      100.205      109.653      141.279      153.153      117.778       94.894    23455.911    13871.744     9004.889        4.417        2.317      148.542       89.498        0.363      339.338       12.599      864.452
03/12/2014  17:22:00       93.981       44.766      130.452      161.452      160.083      100.401    26066.702    25626.489    10080.355        4.480        3.089      104.098      102.694        0.973      339.250       12.453      864.446
03/12/2014  17:23:00      151.655       22.372      122.402      138.504      128.917       79.491    19183.222    16619.692     6318.809        4.029        2.106      153.296       67.884        0.196      339.101       12.202      864.450
03/12/2014  17:24:00      145.799       45.318       61.558      133.801      106.380       88.194    17902.753    11316.751     7778.166        3.204        1.850      152.679       72.486        0.225      339.165       12.309      864.440
03/12/2014  17:25:00       45.836      -26.179       49.340       78.081      106.628       48.049     6096.576    11369.430     2308.733        1.249        0.989       52.785       45.945        0.758      339.345       12.615      864.446
03/12/2014  17:26:00      189.102      -40.187       49.703      163.454      107.173       82.652    26717.364    11486.149     6831.295        4.243        2.252      193.325       58.408        0.091      339.232       12.422      864.407
03/12/2014  17:27:00       86.388      -49.044      102.522      107.905      139.988       85.013    11643.591    19596.557     7227.238        2.942        1.923       99.339       96.918        0.952      339.253       12.458      864.401
03/12/2014  17:28:00       43.311       -9.912       81.619       68.511      117.629       73.396     4693.798    13836.465     5386.956        1.627        1.196       44.430       63.802        2.062      339.411       12.724      864.394
03/12/2014  17:29:00      114.150      -37.117       59.138      140.239      139.664       92.248    19666.854    19505.922     8509.767        3.278        2.384      120.033      105.722        0.776      339.346       12.615      864.382
03/12/2014  17:30:00      101.001       22.909      105.524      118.743      126.546       97.694    14099.937    16013.934     9544.133        3.075        1.983      103.566       96.036        0.860      339.370       12.655      864.374
03/12/2014  17:31:00      208.354      151.267      107.912      164.041      116.452      111.337    26909.553    13561.142    12395.946        6.539        2.643      257.475       90.091        0.122      339.117       12.228      864.392
03/12/2014  17:32:00      181.761      118.703      135.010      154.345      112.415      100.404    23822.268    12637.041    10081.040        5.594        2.327      217.088       98.580        0.206      339.085       12.174      864.400
03/12/2014  17:33:00      162.363      134.926      170.099      133.087      127.563       93.152    17712.205    16272.385     8677.247        5.807        2.133      211.108       81.182        0.148      339.065       12.142      864.403
03/12/2014  17:34:00      111.477      130.199      131.887      131.773      115.022       83.350    17364.240    13230.050     6947.268        4.215        1.877      171.403       83.718        0.239      339.175       12.325      864.386
03/12/2014  17:35:00      110.084      104.407       91.993       92.394       91.124       77.949     8536.721     8303.622     6076.041        2.719        1.146      151.721       62.426        0.169      339.218       12.399      864.413
03/12/2014  17:36:00      116.781       95.889       98.581       96.710      100.878       89.612     9352.733    10176.394     8030.350        3.005        1.378      151.104       70.802        0.220      339.278       12.499      864.422
03/12/2014  17:37:00       77.018       94.534       99.456       96.350       94.784       75.791     9283.374     8984.061     5744.225        2.438        1.201      121.937       68.109        0.312      339.356       12.632      864.430
03/12/2014  17:38:00       85.077     -158.252       -1.804       80.087       82.470       54.001     6413.868     6801.310     2916.120        2.420        0.807      179.671       51.443        0.082      339.450       12.790      864.423
03/12/2014  17:39:00      107.066     -170.099      -18.337       63.758      101.367       58.916     4065.081    10275.192     3471.068        2.927        0.891      200.989       35.072        0.030      339.399       12.702      864.415
03/12/2014  17:40:00       77.023     -112.441       12.377       74.047      135.450       66.356     5482.985    18346.834     4403.164        2.348        1.412      136.292       73.932        0.294      339.337       12.598      864.415
03/12/2014  17:41:00      130.446      -97.256       38.100       77.179      112.738       57.537     5956.565    12709.836     3310.495        2.495        1.099      162.711       61.324        0.142      339.306       12.545      864.415
03/12/2014  17:42:00       61.662       10.412       55.124       55.786       57.441       56.272     3112.075     3299.458     3166.570        0.826        0.479       62.535       48.473        0.601      339.257       12.467      864.412
03/12/2014  17:43:00       94.312     -104.279        9.887       88.584      111.263       51.531     7847.068    12379.541     2655.414        2.137        1.144      140.601       52.483        0.139      339.315       12.562      864.395
03/12/2014  17:44:00       71.858      -44.400       35.386       83.968       70.819       53.017     7050.558     5015.295     2810.751        1.163        0.744       84.468       52.822        0.391      339.329       12.585      864.386
03/12/2014  17:45:00       29.569      -13.360       44.745       46.441       70.575       49.201     2156.739     4980.780     2420.748        0.630        0.478       32.447       38.412        1.401      339.399       12.706      864.384
03/12/2014  17:46:00      109.068     -157.459      -17.949       62.689       85.743       53.122     3929.853     7351.780     2821.931        2.555        0.705      191.544       43.128        0.051      339.255       12.463      864.363
03/12/2014  17:47:00      132.171      -12.422       44.992       93.549      116.840       66.837     8751.358    13651.593     4467.149        2.325        1.344      132.753       79.150        0.355      339.091       12.186      864.360
03/12/2014  17:48:00      158.994       64.568       64.779      140.556       90.379       72.631    19756.057     8168.327     5275.205        3.342        1.660      171.604       36.645        0.046      339.167       12.313      864.361
03/12/2014  17:49:00      171.589      130.874       97.824      118.020       97.732       89.901    13928.772     9551.522     8082.167        4.385        1.578      215.803       64.184        0.088      339.001       12.034      864.353
03/12/2014  17:50:00       77.856        5.696       51.841       88.674      103.334       69.032     7863.017    10677.993     4765.383        1.604        1.165       78.064       57.953        0.551      339.174       12.326      864.348
03/12/2014  17:51:00      169.712      -49.041       49.335      121.937      146.470       88.435    14868.717    21453.379     7820.719        3.888        2.207      176.655       95.188        0.290      339.193       12.356      864.333
03/12/2014  17:52:00       95.692      101.587      163.558      123.872      146.392       97.727    15344.177    21430.684     9550.476        4.627        2.316      139.559      110.866        0.631      339.172       12.319      864.345
03/12/2014  17:53:00      100.842       20.706      110.677      101.329      169.547       88.494    10267.615    28746.286     7831.141        3.484        2.342      102.946      107.675        1.094      339.202       12.372      864.336
03/12/2014  17:54:00      155.185       56.677      132.890      131.197      105.501       87.674    17212.710    11130.420     7686.663        4.048        1.801      165.211       82.168        0.247      339.147       12.280      864.345
03/12/2014  17:55:00      153.722       89.911       83.665      195.512      113.863       88.950    38224.803    12964.798     7912.092        4.890        2.955      178.086       92.242        0.268      339.205       12.376      864.331
03/12/2014  17:56:00      124.746       57.384       82.529      140.622      101.993       71.770    19774.428    10402.643     5151.002        3.049        1.766      137.312       70.283        0.262      339.179       12.334      864.348
03/12/2014  17:57:00       94.078      -36.788       68.717      114.995      134.925       82.393    13223.807    18204.670     6788.536        2.656        1.911      101.015       92.877        0.845      339.253       12.459      864.349
03/12/2014  17:58:00       64.876       62.492       98.854       80.060      109.820       75.441     6409.579    12060.333     5691.419        2.102        1.208       90.079       73.826        0.672      339.274       12.493      864.374
03/12/2014  17:59:00      139.424      100.871       93.114      143.466       97.690       85.336    20582.486     9543.354     7282.243        3.784        1.870      172.087       78.427        0.208      339.122       12.238      864.377
03/12/2014  18:00:00       35.418      128.599      143.085       86.905       70.070       54.384     7552.467     4909.792     2957.674        2.684        0.771      133.387       44.916        0.113      339.217       12.397      864.372
03/12/2014  18:01:00      131.812       71.581      106.496      159.192      113.597       98.447    25342.225    12904.263     9691.718        4.088        2.397      149.995       98.213        0.429      339.152       12.288      864.363
03/12/2014  18:02:00       57.218     -114.601       28.330       69.328      125.438       63.375     4806.381    15734.697     4016.392        2.088        1.228      128.091       68.137        0.283      339.285       12.511      864.348
03/12/2014  18:03:00      109.783      -68.745       38.229       76.012      121.711       76.960     5777.835    14813.449     5922.895        2.237        1.326      129.531       82.391        0.405      339.161       12.304      864.338
03/12/2014  18:04:00      113.582       19.298       80.505       99.494      108.771       80.796     9899.008    11831.115     6528.037        2.400        1.413      115.210       73.775        0.410      339.139       12.266      864.338
03/12/2014  18:05:00      181.345       62.072       94.350      121.127       94.011       80.601    14671.747     8838.109     6496.593        3.782        1.500      191.674       60.734        0.100      339.092       12.186      864.331
03/12/2014  18:06:00      146.203      130.309      115.906      110.264      100.754       90.227    12158.059    10151.436     8140.863        4.111        1.523      195.846       77.271        0.156      339.038       12.095      864.303
03/12/2014  18:07:00       88.941      103.804      109.935       96.761       61.022       53.013     9362.663     3723.715     2810.416        2.333        0.795      136.697       41.860        0.094      339.070       12.150      864.304
03/12/2014  18:08:00       25.485       16.298      106.457       84.402      171.322       71.870     7123.670    29351.196     5165.315        2.694        2.082       30.250       92.868        9.425      339.163       12.306      864.300
03/12/2014  18:09:00      181.604       97.759       98.021      141.091      144.993      105.578    19906.775    21023.109    11146.706        5.210        2.604      206.245       91.436        0.197      339.048       12.112      864.304
03/12/2014  18:10:00       92.026     -131.696       28.182      110.438      167.220       79.652    12196.528    27962.652     6344.449        3.655        2.325      160.663      107.265        0.446      339.137       12.263      864.303
03/12/2014  18:11:00      145.722      -75.262       48.008      105.496      147.386       84.782    11129.395    21722.501     7187.933        3.461        2.002      164.010       95.171        0.337      339.056       12.126      864.291
03/12/2014  18:12:00      130.715     -149.973       21.646       71.438      107.148       51.236     5103.373    11480.609     2625.139        2.962        0.960      198.943       56.273        0.080      339.124       12.240      864.296
03/12/2014  18:13:00       70.568      -33.705       74.004       85.559      132.042       89.217     7320.267    17435.132     7959.674        2.215        1.636       78.204      100.503        1.652      339.067       12.145      864.279
03/12/2014  18:14:00      148.547       23.660       94.143      119.606      151.809       86.535    14305.624    23045.861     7488.373        3.816        2.242      150.419      107.883        0.514      339.100       12.199      864.294
03/12/2014  18:15:00      108.199       26.578       90.177      117.516      108.164       80.137    13809.895    11699.420     6421.951        2.623        1.597      111.416       61.449        0.304      339.118       12.231      864.306
03/12/2014  18:16:00      170.044      135.123       93.672      149.498      112.905       96.250    22349.622    12747.454     9263.984        5.015        2.218      217.194       91.705        0.178      338.966       11.976      864.297
03/12/2014  18:17:00       70.022      -66.702       25.793       86.598       81.624       50.636     7499.130     6662.551     2564.017        1.337        0.836       96.707       51.698        0.286      339.213       12.393      864.321
03/12/2014  18:18:00      169.552      -23.799       61.136      116.462      132.053      102.414    13563.434    17437.911    10488.586        3.726        2.074      171.214       88.752        0.269      339.014       12.055      864.314
03/12/2014  18:19:00       93.900       50.817      118.699       89.792      104.600       72.164     8062.677    10941.058     5207.604        2.485        1.211      106.769       74.575        0.488      338.972       11.985      864.307
03/12/2014  18:20:00       28.309       50.987       71.955       74.123       79.305       67.836     5494.163     6289.207     4601.666        1.248        0.819       58.319       66.446        1.298      339.027       12.078      864.295
03/12/2014  18:21:00      136.967     -106.370       22.981      149.123      120.454       70.172    22237.708    14509.237     4924.052        3.613        2.084      173.420       72.593        0.175      339.102       12.205      864.285
03/12/2014  18:22:00      101.884       63.630      111.461      113.899      117.401       67.473    12972.901    13783.059     4552.598        2.907        1.565      120.121       77.214        0.413      339.026       12.075      864.268
03/12/2014  18:23:00        2.865       42.611      107.066       62.572      120.333       77.259     3915.303    14479.918     5968.972        1.882        1.218       42.707       87.888        4.235      339.099       12.199      864.275
03/12/2014  18:24:00       28.633       47.732      108.213       65.871       77.573       52.726     4338.983     6017.524     2780.033        1.397        0.657       55.661       47.755        0.736      339.027       12.079      864.260
03/12/2014  18:25:00      205.065      -86.563       83.716      121.245      186.180      113.637    14700.345    34662.888    12913.290        5.940        3.114      222.587      138.797        0.389      338.922       11.899      864.230
03/12/2014  18:26:00       89.549       51.781       86.123      102.292      103.613       62.498    10463.745    10735.670     3905.955        2.161        1.255      103.443       62.888        0.370      338.967       11.979      864.238
03/12/2014  18:27:00      111.209       82.942       88.895       92.825       76.607       63.536     8616.546     5868.637     4036.813        2.283        0.926      138.733       38.807        0.078      338.944       11.938      864.225
03/12/2014  18:28:00      138.310     -162.961      -13.520      111.092      150.142       67.164    12341.342    22542.544     4511.045        4.262        1.970      213.743       83.879        0.154      338.948       11.945      864.203
03/12/2014  18:29:00      202.056     -279.286      -33.122       61.490       74.879       37.291     3781.010     5606.894     1390.626        6.535        0.539      344.713       23.491        0.005      338.934       11.921      864.190
03/12/2014  18:30:00      212.947     -231.156      -41.610       94.540      112.498       57.162     8937.795    12655.887     3267.460        6.268        1.243      314.292       56.490        0.032      338.939       11.929      864.177
03/12/2014  18:31:00       90.681      -42.384       49.561       87.284       98.541       58.095     7618.545     9710.386     3375.019        1.659        1.035      100.097       66.968        0.448      338.934       11.923      864.180
03/12/2014  18:32:00       90.122      -32.968       64.707       78.108      111.124       76.396     6100.935    12348.649     5836.293        1.884        1.214       95.963       76.138        0.629      338.961       11.968      864.166
03/12/2014  18:33:00      117.555      -40.980       46.169       85.128      103.773       64.924     7246.752    10768.767     4215.099        1.993        1.112      124.493       70.978        0.325      338.959       11.963      864.172
03/12/2014  18:34:00       84.007       37.111       99.655      100.531       94.545       67.429    10106.541     8938.735     4546.735        2.097        1.180       91.839       78.104        0.723      338.932       11.919      864.178
03/12/2014  18:35:00       49.002       -7.234       64.050       61.918       72.837       47.597     3833.841     5305.216     2265.433        0.898        0.570       49.534       45.613        0.848      338.988       12.014      864.174
03/12/2014  18:36:00      128.496      -77.630       35.423      109.972      115.439       73.325    12093.946    13326.199     5376.521        2.729        1.540      150.125       71.671        0.228      338.934       11.921      864.156
03/12/2014  18:37:00       38.825       79.473      125.259       88.928      101.919       65.892     7908.236    10387.548     4341.704        2.307        1.132       88.450       73.374        0.688      338.958       11.962      864.153
03/12/2014  18:38:00      101.865       89.543       99.245       95.185       63.806       64.397     9060.153     4071.154     4147.038        2.276        0.864      135.626       62.044        0.209      338.922       11.900      864.162
03/12/2014  18:39:00      111.810       98.164      108.327       91.345       87.057       67.316     8343.994     7578.938     4531.380        2.716        1.023      148.788       60.060        0.163      338.893       11.851      864.173
03/12/2014  18:40:00       53.990      100.719      110.001       73.937       63.316       51.354     5466.735     4008.898     2637.217        1.863        0.606      114.277       43.333        0.144      338.893       11.853      864.178
03/12/2014  18:41:00       82.061       39.959       64.024       76.103       62.826       55.048     5791.690     3947.096     3030.270        1.260        0.638       91.273       47.617        0.272      338.879       11.831      864.191
03/12/2014  18:42:00       18.190       41.779       73.236       46.136       66.130       41.762     2128.525     4373.170     1744.039        0.784        0.412       45.567       37.877        0.691      338.962       11.969      864.195
03/12/2014  18:43:00       75.901      -28.140       62.540       91.255      102.099       62.619     8327.511    10424.308     3921.100        1.656        1.134       80.950       62.957        0.605      338.900       11.864      864.197
03/12/2014  18:44:00       58.725       43.126       90.067       95.295       99.448       68.526     9081.141     9889.881     4695.859        1.854        1.183       72.859       78.176        1.151      338.891       11.849      864.211
03/12/2014  18:45:00       34.670       61.219       89.801       58.006       56.376       44.201     3364.654     3178.289     1953.756        1.075        0.425       70.355       39.088        0.309      338.845       11.774      864.224
03/12/2014  18:46:00       12.421      -42.150       13.624       40.615       66.528       37.354     1649.602     4425.997     1395.348        0.479        0.374       43.942       38.794        0.779      338.940       11.933      864.215
03/12/2014  18:47:00       56.626      -37.944       26.120       46.409       59.403       47.021     2153.821     3528.761     2210.942        0.661        0.395       68.164       44.874        0.433      338.894       11.856      864.216
03/12/2014  18:48:00       49.134        2.841       64.402       61.954       65.641       36.830     3838.292     4308.784     1356.447        0.803        0.475       49.216       25.038        0.259      338.830       11.747      864.211
03/12/2014  18:49:00       44.586       25.969       61.023       51.627       66.115       46.566     2665.349     4371.149     2168.434        0.779        0.460       51.598       42.131        0.667      338.790       11.680      864.189
03/12/2014  18:50:00       82.904      -25.361       35.957       69.284       96.800       48.538     4800.238     9370.268     2355.939        1.266        0.826       86.696       53.558        0.382      338.795       11.690      864.187
03/12/2014  18:51:00       85.978     -102.015       13.259       86.369       86.379       55.450     7459.590     7461.291     3074.710        1.798        0.900      133.414       63.861        0.229      338.863       11.803      864.174
03/12/2014  18:52:00       78.875     -119.556       20.103       90.684      135.116       77.749     8223.644    18256.245     6044.930        2.672        1.626      143.231       93.192        0.423      338.838       11.760      864.164
03/12/2014  18:53:00       98.932     -171.301      -20.128       97.426       93.261       52.167     9491.808     8697.680     2721.436        3.022        1.046      197.817       45.878        0.054      338.878       11.826      864.161
03/12/2014  18:54:00       99.422       -3.513       70.869       93.086      109.144       69.404     8665.046    11912.359     4816.965        2.015        1.270       99.484       76.495        0.591      338.771       11.648      864.170
03/12/2014  18:55:00       52.958       29.611       83.836       69.681       99.121       65.251     4855.499     9825.062     4257.638        1.482        0.947       60.674       69.306        1.305      338.744       11.603      864.175
03/12/2014  18:56:00       30.959       91.854      121.651       72.769       81.466       55.595     5295.399     6636.734     3090.782        1.961        0.751       96.931       51.842        0.286      338.717       11.557      864.189
03/12/2014  18:57:00       59.977       54.098       88.070       90.191       64.093       48.215     8134.452     4107.960     2324.707        1.442        0.728       80.770       50.791        0.395      338.705       11.537      864.185
03/12/2014  18:58:00       41.095       10.755       61.485       60.319      101.428       58.899     3638.357    10287.595     3469.149        1.149        0.870       42.479       73.694        3.010      338.757       11.625      864.191
03/12/2014  18:59:00       93.035      -90.718       -2.250       57.180       61.054       34.558     3269.562     3727.647     1194.287        1.254        0.410      129.943       24.540        0.036      338.808       11.712      864.186
03/12/2014  19:00:00      125.043      -58.901       16.327      114.867       67.224       46.849    13194.497     4519.028     2194.823        1.964        0.995      138.221       44.091        0.102      338.757       11.624      864.187
03/12/2014  19:01:00       86.264       -7.644       28.848       98.477      103.881       52.318     9697.758    10791.223     2737.126        1.577        1.161       86.602       46.890        0.293      338.742       11.600      864.179
03/12/2014  19:02:00       97.012     -112.195       24.094       65.149       86.910       49.210     4244.437     7553.366     2421.638        1.840        0.711      148.321       47.653        0.103      338.733       11.585      864.175
03/12/2014  19:03:00      112.780       15.394       70.599       73.585       67.826       54.615     5414.735     4600.348     2982.806        1.547        0.650      113.826       49.537        0.189      338.677       11.491      864.161
03/12/2014  19:04:00       58.868      -53.125       38.059       44.423       84.174       48.041     1973.365     7085.285     2307.927        0.955        0.568       79.295       55.427        0.489      338.697       11.524      864.163
03/12/2014  19:05:00       75.157      -42.450       12.650       50.379       59.603       38.771     2538.046     3552.523     1503.222        0.760        0.380       86.317       38.079        0.195      338.674       11.486      864.149
03/12/2014  19:06:00       48.435      -43.306       22.390       50.136       78.878       48.195     2513.665     6221.734     2322.728        0.789        0.553       64.972       56.187        0.748      338.699       11.527      864.139
03/12/2014  19:07:00       47.249       17.479       60.194       63.215       89.412       63.100     3996.086     7994.478     3981.620        1.106        0.799       50.378       74.977        2.215      338.714       11.551      864.137
03/12/2014  19:08:00       91.286      -16.842       15.002       69.503       55.670       41.185     4830.641     3099.170     1696.176        0.923        0.481       92.827       40.752        0.193      338.683       11.499      864.121
03/12/2014  19:09:00       19.148        0.813       44.943       36.082       46.570       28.310     1301.917     2168.757      801.458        0.333        0.214       19.166       28.113        2.152      338.628       11.408      864.120
03/12/2014  19:10:00       53.288       -8.066       45.404       37.387       69.358       37.193     1397.798     4810.593     1383.350        0.628        0.380       53.895       37.371        0.481      338.665       11.471      864.115
03/12/2014  19:11:00       30.427       46.033       72.787       39.214       47.049       26.876     1537.713     2213.583      722.297        0.641        0.224       55.180       25.304        0.210      338.631       11.413      864.101
03/12/2014  19:12:00       64.066        5.485       58.880       75.433       57.019       35.555     5690.203     3251.154     1264.152        0.890        0.510       64.300       36.188        0.317      338.621       11.397      864.092
03/12/2014  19:13:00       68.425      -38.632       21.419       56.000       78.412       33.068     3135.956     6148.478     1093.523        0.850        0.519       78.577       40.928        0.271      338.626       11.406      864.082
03/12/2014  19:14:00       28.946       -2.942       27.598       33.694       63.531       24.790     1135.257     4036.218      614.540        0.370        0.289       29.095       19.650        0.456      338.592       11.350      864.087
03/12/2014  19:15:00       37.090       52.686       60.353       43.453       33.438       29.485     1888.203     1118.074      869.338        0.583        0.194       64.432       28.044        0.189      338.498       11.189      864.074
03/12/2014  19:16:00       54.583       46.279       53.942       56.106       45.845       31.070     3147.853     2101.783      965.356        0.712        0.311       71.562       21.573        0.091      338.512       11.214      864.069
03/12/2014  19:17:00       64.570       89.595       85.342       59.197       51.087       47.711     3504.260     2609.881     2276.333        1.393        0.420      110.438       36.624        0.110      338.530       11.245      864.068
03/12/2014  19:18:00       66.118       82.266       67.483       43.741       41.373       33.936     1913.283     1711.763     1151.653        1.023        0.239      105.543       25.912        0.060      338.570       11.312      864.065
03/12/2014  19:19:00       97.746       31.412       63.969       68.129       71.238       41.228     4641.517     5074.820     1699.764        1.302        0.571      102.670       48.111        0.220      338.551       11.279      864.057
03/12/2014  19:20:00      108.585       31.294       33.504       61.676       43.781       42.709     3803.890     1916.818     1824.034        1.072        0.377      113.005       24.316        0.046      338.519       11.224      864.052
03/12/2014  19:21:00       96.327       32.060       54.085       66.754       52.592       37.702     4456.159     2765.884     1421.416        1.094        0.432      101.522       36.068        0.126      338.480       11.160      864.044
03/12/2014  19:22:00       65.502       45.444       28.472       59.666       35.952       36.850     3559.987     1292.559     1357.913        0.669        0.311       79.723       33.512        0.177      338.424       11.066      864.030
03/12/2014  19:23:00       87.119       17.491       29.931       32.602       41.448       34.415     1062.869     1717.906     1184.406        0.638        0.198       88.858       18.009        0.041      338.414       11.049      864.014
03/12/2014  19:24:00       70.981       12.858       24.925       48.481       38.774       25.466     2350.395     1503.387      648.510        0.516        0.225       72.136       24.549        0.116      338.349       10.941      864.009
03/12/2014  19:25:00       90.778       55.914       15.565       25.839       16.775       20.810      667.642      281.394      433.058        0.650        0.069      106.616       15.033        0.020      338.344       10.933      864.014
03/12/2014  19:26:00       89.913       43.082       12.122       33.112       25.909       23.388     1096.387      671.298      546.982        0.620        0.116       99.702       16.708        0.028      338.388       11.006      864.012
03/12/2014  19:27:00       72.487       24.348        2.261       35.542       33.856       24.132     1263.226     1146.209      582.342        0.442        0.150       76.467       12.440        0.026      338.312       10.879      864.025
03/12/2014  19:28:00      123.451       68.578        4.402       30.194       26.139       18.673      911.704      683.250      348.698        1.095        0.097      141.220       13.708        0.009      338.402       11.030      864.027
03/12/2014  19:29:00       99.785       61.436       19.604       34.264       26.146       27.201     1174.016      683.631      739.881        0.836        0.130      117.181       21.400        0.033      338.348       10.938      864.047
03/12/2014  19:30:00       75.979       56.862       10.331       37.071       35.376       22.672     1374.277     1251.456      514.036        0.613        0.157       94.901       17.242        0.033      338.274       10.814      864.066
03/12/2014  19:31:00       60.193      109.203        0.228       56.931       68.724       45.325     3241.107     4722.988     2054.328        1.278        0.501      124.694       41.914        0.113      338.156       10.615      864.107
03/12/2014  19:32:00       72.659      141.100      -15.810       52.417       76.842       42.244     2747.533     5904.620     1784.519        1.794        0.522      158.709       38.982        0.060      338.082       10.490      864.106
03/12/2014  19:33:00       62.499       71.407       -0.689       53.116       51.486       33.180     2821.348     2650.797     1100.938        0.779        0.329       94.895       31.585        0.111      337.998       10.351      864.102
03/12/2014  19:34:00       49.277       85.157       -8.370       49.477       62.699       35.738     2448.022     3931.139     1277.226        0.870        0.383       98.387       36.509        0.138      337.899       10.185      864.098
03/12/2014  19:35:00       64.049      106.728       -5.096       57.786       63.823       44.166     3339.192     4073.419     1950.651        1.244        0.468      124.471       42.686        0.118      337.885       10.162      864.079
03/12/2014  19:36:00       69.976       93.052       -4.073       48.587       58.977       41.991     2360.707     3478.340     1763.226        1.059        0.380      116.427       35.148        0.091      337.854       10.109      864.078
03/12/2014  19:37:00       73.535       55.510       12.221       31.324       30.856       29.295      981.193      952.086      858.186        0.571        0.140       92.135       22.511        0.060      337.741        9.920      864.057
03/12/2014  19:38:00       24.345      184.040      -21.111       71.939       99.167       43.071     5175.214     9834.029     1855.137        2.588        0.843      185.643       55.086        0.088      337.908       10.199      864.044
03/12/2014  19:39:00       -7.037      160.948      -30.365       51.029       68.607       23.989     2603.969     4706.971      575.491        1.738        0.394      161.102       27.712        0.030      337.826       10.061      864.047
03/12/2014  19:40:00       56.845      160.752      -35.336       44.731       62.910       32.094     2000.887     3957.660     1030.002        1.865        0.349      170.507       34.655        0.041      337.786        9.995      864.044
03/12/2014  19:41:00       50.020      218.107      -31.295       65.323       86.084       48.342     4267.087     7410.380     2336.932        3.253        0.701      223.769       53.840        0.058      337.873       10.140      864.032
03/12/2014  19:42:00       96.495      128.399      -15.730       57.067       79.445       45.733     3256.660     6311.530     2091.540        1.885        0.583      160.616       37.995        0.056      337.767        9.962      864.022
03/12/2014  19:43:00       71.879      141.373      -24.922       40.131       79.914       33.606     1610.507     6386.313     1129.355        1.745        0.456      158.597       39.818        0.063      337.810       10.035      864.019
03/12/2014  19:44:00       55.325       74.175       -3.644       47.360       53.018       32.656     2243.000     2810.892     1066.404        0.735        0.306       92.535       30.243        0.107      337.819       10.050      863.997
03/12/2014  19:45:00       56.063       84.797       -6.244       42.951       46.257       29.668     1844.767     2139.719      880.165        0.762        0.243      101.654       29.641        0.085      337.917       10.214      863.995
03/12/2014  19:46:00       61.974      104.522      -10.779       43.960       49.484       35.521     1932.449     2448.657     1261.755        1.026        0.282      121.514       33.029        0.074      337.879       10.151      863.990
03/12/2014  19:47:00       48.284       92.029       -9.748       37.670       48.454       30.901     1419.037     2347.828      954.874        0.781        0.236      103.927       33.450        0.104      337.855       10.111      863.987
03/12/2014  19:48:00       -6.024      130.632      -21.264       29.908       29.700       17.092      894.503      882.096      292.130        0.981        0.103      130.771       16.987        0.017      337.870       10.136      863.973
03/12/2014  19:49:00       32.196      119.420      -10.655       48.201       51.222       30.040     2323.383     2623.679      902.403        1.063        0.292      123.684       30.276        0.060      337.812       10.040      863.977
03/12/2014  19:50:00       38.239      103.556      -13.943       36.100       58.771       29.116     1303.179     3454.078      847.723        0.899        0.280      110.390       25.628        0.054      337.794       10.008      863.970
03/12/2014  19:51:00       53.249      103.037      -12.167       36.702       55.851       38.636     1347.033     3119.361     1492.736        0.978        0.298      115.983       35.907        0.096      337.738        9.915      863.973
03/12/2014  19:52:00       26.350      104.236      -18.270       40.079       52.066       29.801     1606.341     2710.835      888.086        0.855        0.260      107.515       28.097        0.068      337.782        9.989      863.974
03/12/2014  19:53:00       14.487       74.889      -16.066       32.617       27.047       16.875     1063.887      731.538      284.749        0.408        0.104       76.277       13.813        0.033      337.782        9.988      863.977
03/12/2014  19:54:00       25.338      126.185      -22.828       34.305       31.792       15.171     1176.834     1010.725      230.168        0.975        0.121      128.704       16.245        0.016      337.754        9.942      863.981
03/12/2014  19:55:00       19.515       85.070      -13.856       25.432       30.549       17.476      646.796      933.246      305.410        0.485        0.094       87.280       13.093        0.023      337.689        9.831      863.987
03/12/2014  19:56:00        5.630       96.440      -20.362       29.574       22.302        9.217      874.626      497.393       84.948        0.560        0.073       96.604        7.077        0.005      337.749        9.932      863.998
03/12/2014  19:57:00      -26.261       87.260      -18.622       43.548       30.489       21.264     1896.403      929.561      452.139        0.596        0.164       91.126       18.994        0.043      337.938       10.251      863.990
03/12/2014  19:58:00      -66.340       50.660       -7.960       42.611       33.263       32.127     1815.712     1106.433     1032.150        0.549        0.198       83.471       16.167        0.038      337.882       10.156      864.000
03/12/2014  19:59:00      -14.981       99.979      -14.907       38.515       29.976       25.225     1483.375      898.559      636.298        0.673        0.151      101.095       18.256        0.033      337.733        9.907      863.993
03/12/2014  20:00:00       14.278      120.185      -24.434       22.254       24.367       10.832      495.253      593.769      117.330        0.823        0.060      121.030        7.868        0.004      337.642        9.755      863.988
03/12/2014  20:01:00       -1.675       51.368       -6.479       18.696       34.553       12.201      349.545     1193.934      148.866        0.219        0.085       51.395       12.035        0.055      337.766        9.962      863.981
03/12/2014  20:02:00      -32.361       22.982        1.876       45.287       24.420       13.187     2050.912      596.338      173.896        0.220        0.141       39.691        7.291        0.034      337.642        9.753      863.976
03/12/2014  20:03:00      -68.534       -3.196       -8.650       44.045       28.908       13.489     1940.004      835.701      181.957        0.387        0.148       68.609       15.488        0.051      337.531        9.568      863.992
03/12/2014  20:04:00      -92.333      -19.371      -13.592       23.535       21.616       16.620      553.905      467.246      276.213        0.519        0.065       94.343       15.481        0.027      337.351        9.265      863.992
03/12/2014  20:05:00      -65.608        0.359      -11.890       28.556       23.597       17.873      815.420      556.821      319.439        0.307        0.085       65.609       16.252        0.061      337.404        9.355      864.000
03/12/2014  20:06:00      -85.495       -7.111       -8.643       52.652       19.612       16.610     2772.274      384.645      275.881        0.543        0.172       85.790       22.589        0.069      337.473        9.472      864.008
03/12/2014  20:07:00      -86.366      -19.752      -12.197       24.430       20.176       15.133      596.829      407.086      229.009        0.462        0.062       88.596       12.754        0.021      337.367        9.294      864.008
03/12/2014  20:08:00      -98.062      -24.855      -17.255       14.486       16.972       10.681      209.848      288.046      114.094        0.557        0.031      101.163        5.380        0.003      337.296        9.174      864.013
03/12/2014  20:09:00      -88.662      -32.709       -9.661       13.464       17.041        9.537      181.276      290.399       90.950        0.479        0.028       94.503        7.822        0.007      337.369        9.297      864.016
03/12/2014  20:10:00      -92.694       -9.998       -9.210       38.021       19.296       16.433     1445.630      372.349      270.050        0.543        0.104       93.232       16.896        0.033      337.431        9.401      864.015
03/12/2014  20:11:00     -130.639      -27.569      -13.207       25.150       26.102       15.870      632.535      681.318      251.857        0.978        0.078      133.516       11.420        0.007      337.244        9.087      864.023
03/12/2014  20:12:00      -84.113      -40.869        3.033       42.676       19.067       20.276     1821.272      363.568      411.098        0.567        0.130       93.516       24.478        0.069      337.233        9.070      864.029
03/12/2014  20:13:00     -113.293      -39.332       -7.775       15.883       22.795       15.216      252.270      519.602      231.524        0.772        0.050      119.926        9.544        0.006      337.166        8.955      864.028
03/12/2014  20:14:00      -78.415      -36.029       -0.212       47.224       25.119       20.129     2230.115      630.967      405.180        0.536        0.163       86.295       22.863        0.070      337.183        8.986      864.025
03/12/2014  20:15:00      -97.470      -55.340       -7.349       24.593       28.793       22.233      604.816      829.047      494.312        0.727        0.096      112.084       17.708        0.025      337.264        9.122      864.029
03/12/2014  20:16:00      -65.359      -19.506       -4.802       16.983       15.026        9.384      288.419      225.772       88.055        0.264        0.030       68.207        4.652        0.005      337.273        9.135      864.024
03/12/2014  20:17:00      -79.164      -37.419       -5.881       19.907       23.953       13.978      396.277      573.747      195.389        0.443        0.058       87.562        4.202        0.002      337.345        9.256      864.033
03/12/2014  20:18:00      -36.164      -15.685       -2.496       46.425       41.588       17.218     2155.270     1729.572      296.448        0.287        0.209       39.419       16.400        0.173      337.291        9.166      864.038
03/12/2014  20:19:00       -2.889      -16.767        5.759       36.519       24.149       20.912     1333.653      583.167      437.322        0.134        0.118       17.014       20.922        1.512      337.356        9.274      864.029
03/12/2014  20:20:00      -23.346      -31.528       13.276       38.137       20.154       21.278     1454.428      406.189      452.752        0.201        0.116       39.230       25.074        0.409      337.291        9.166      864.041
03/12/2014  20:21:00      -63.758      -48.365       -2.748       32.860       21.959       13.740     1079.812      482.185      188.778        0.408        0.088       80.026       14.831        0.034      337.335        9.240      864.056
03/12/2014  20:22:00      -18.001      -27.585        8.184       33.191       20.844       16.097     1101.673      434.457      259.104        0.147        0.090       32.939       11.777        0.128      337.328        9.228      864.066
03/12/2014  20:23:00      -69.417      -46.270       -5.093       32.904       26.345       15.720     1082.641      694.045      247.126        0.450        0.101       83.425       15.095        0.033      337.314        9.205      864.064
03/12/2014  20:24:00        5.029      -40.304       12.735       34.646       28.593       20.290     1200.339      817.573      411.669        0.212        0.121       40.616       20.542        0.256      337.288        9.161      864.066
03/12/2014  20:25:00      -32.791      -35.796        6.770       55.294       44.519       24.395     3057.480     1981.939      595.126        0.402        0.282       48.545       27.941        0.331      337.153        8.936      864.070
03/12/2014  20:26:00      -71.640      -61.795       -7.621       36.120       27.309       19.034     1304.686      745.755      362.297        0.571        0.121       94.609       21.256        0.050      337.209        9.029      864.078
03/12/2014  20:27:00      -34.666      -47.778        6.429       32.677       24.941       19.650     1067.811      622.048      386.134        0.280        0.104       59.029       18.071        0.094      337.298        9.178      864.076
03/12/2014  20:28:00     -103.710      -53.394       -3.883       42.290       29.573       27.536     1788.464      874.562      758.239        0.852        0.171      116.648       26.439        0.051      337.079        8.810      864.081
03/12/2014  20:29:00      -97.209      -32.754      -12.656       44.503       18.313       12.055     1980.521      335.365      145.320        0.657        0.123      102.579       12.775        0.016      337.144        8.920      864.094
03/12/2014  20:30:00      -29.363      -30.656        9.311       33.987       19.160       16.900     1155.095      367.119      285.623        0.185        0.090       42.450       13.534        0.102      337.220        9.048      864.087
03/12/2014  20:31:00      -60.675      -42.181        6.893       38.628       30.594       21.784     1492.154      935.968      474.527        0.420        0.145       73.896       21.703        0.086      337.208        9.026      864.073
03/12/2014  20:32:00       15.653      -28.188       11.111       27.951       26.081       18.581      781.273      680.195      345.261        0.148        0.090       32.242       11.271        0.122      337.294        9.171      864.066
03/12/2014  20:33:00       26.763      -60.781       -1.474       20.952       23.564       17.716      438.970      555.265      313.867        0.286        0.065       66.412       11.300        0.029      337.306        9.191      864.067
03/12/2014  20:34:00       14.188      -53.475      -14.888       16.211       16.846       13.739      262.812      283.787      188.759        0.201        0.037       55.325        8.364        0.023      337.289        9.163      864.067
03/12/2014  20:35:00      -41.429      -34.266        2.176       26.867       20.790       18.312      721.839      432.229      335.345        0.219        0.074       53.764       14.532        0.073      337.262        9.116      864.056
03/12/2014  20:36:00      -62.827      -43.946       -1.547       32.202       23.059       20.223     1036.960      531.703      408.953        0.393        0.099       76.671       12.539        0.027      337.163        8.951      864.060
03/12/2014  20:37:00      -40.343      -43.194       12.159       46.015       24.737       21.981     2117.381      611.938      483.172        0.343        0.161       59.104       21.634        0.134      337.175        8.972      864.074
03/12/2014  20:38:00      -37.997      -47.458        6.553       33.953       22.628       17.068     1152.784      512.006      291.326        0.285        0.098       60.795       14.960        0.061      337.199        9.012      864.081
03/12/2014  20:39:00      -96.502      -67.242        2.009       43.662       25.024       21.697     1906.365      626.221      470.776        0.842        0.150      117.619       17.732        0.023      337.101        8.848      864.080
03/12/2014  20:40:00      -67.291      -28.236       -5.686       34.376       25.887       14.205     1181.706      670.132      201.773        0.371        0.103       72.975        9.444        0.017      337.141        8.915      864.085
03/12/2014  20:41:00      -99.743      -22.739       -8.670       28.610       30.211       20.420      818.561      912.686      416.972        0.634        0.107      102.302       13.755        0.018      336.977        8.640      864.082
03/12/2014  20:42:00      -89.976       15.632      -13.301       51.438       21.605       17.214     2645.853      466.791      296.311        0.596        0.170       91.324       10.161        0.012      336.972        8.631      864.086
03/12/2014  20:43:00      -50.246        0.502        4.514       30.494       23.284       14.798      929.873      542.131      218.986        0.212        0.085       50.249       15.103        0.090      336.981        8.647      864.094
03/12/2014  20:44:00     -100.025       -2.982       -5.867       46.225       27.982       24.798     2136.739      783.001      614.924        0.679        0.177      100.069       18.321        0.034      337.029        8.727      864.104
03/12/2014  20:45:00     -141.777      -39.058      -12.729       28.680       27.211       18.050      822.550      740.434      325.810        1.184        0.094      147.059       11.926        0.007      336.823        8.383      864.122
03/12/2014  20:46:00     -115.237      -53.087       -6.544       25.552       30.809       22.021      652.919      949.173      484.925        0.911        0.104      126.877       16.219        0.016      336.738        8.243      864.135
03/12/2014  20:47:00     -123.968      -34.764      -13.603       32.794       30.130       22.953     1075.427      907.840      526.857        0.964        0.126      128.750       21.989        0.029      336.616        8.039      864.141
03/12/2014  20:48:00      -59.735      -33.583        2.499       47.067       26.450       20.626     2215.340      699.627      425.416        0.402        0.167       68.528       21.306        0.097      336.616        8.039      864.133
03/12/2014  20:49:00      -25.481      -16.529        7.380       39.255       27.735       21.555     1540.943      769.244      464.619        0.188        0.139       30.372       22.415        0.545      336.535        7.902      864.139
03/12/2014  20:50:00      -73.710      -21.300       -4.536       32.402       27.505       19.955     1049.871      756.512      398.209        0.406        0.110       76.726       14.826        0.037      336.716        8.206      864.164
03/12/2014  20:51:00     -114.752      -18.411      -12.919       20.633       35.050       18.052      425.721     1228.523      325.891        0.783        0.099      116.220       16.906        0.021      336.529        7.893      864.179
03/12/2014  20:52:00      -99.936      -69.648       -9.525       38.068       22.906       23.848     1449.154      524.667      568.728        0.874        0.127      121.812       21.782        0.032      336.577        7.973      864.175
03/12/2014  20:53:00     -106.883      -54.958       -0.948       50.450       30.344       23.592     2545.218      920.788      556.565        0.923        0.201      120.185       22.361        0.035      336.588        7.991      864.184
03/12/2014  20:54:00      -82.989      -63.303       -1.957       44.701       31.603       21.732     1998.170      998.762      472.261        0.718        0.173      104.376       22.892        0.048      336.662        8.116      864.201
03/12/2014  20:55:00      -58.902      -63.521        5.890       58.354       36.306       31.930     3405.157     1318.097     1019.522        0.664        0.287       86.628       36.053        0.173      336.616        8.039      864.205
03/12/2014  20:56:00      -96.052      -91.476      -11.230       28.942       25.405       21.937      837.639      645.403      481.245        0.984        0.098      132.642       22.236        0.028      336.593        8.000      864.224
03/12/2014  20:57:00     -112.955      -75.466      -13.045       23.254       24.123       14.302      540.731      581.927      204.544        0.998        0.066      135.845        7.229        0.003      336.703        8.183      864.247
03/12/2014  20:58:00     -108.283      -72.256      -13.721       38.699       23.293       19.312     1497.605      542.553      372.952        0.977        0.121      130.178        6.382        0.002      336.778        8.310      864.252
03/12/2014  20:59:00     -131.476     -104.433       -7.819       68.814       44.875       27.159     4735.408     2013.760      737.615        1.787        0.374      167.905       33.578        0.040      336.629        8.059      864.238
03/12/2014  21:00:00      -23.092      -48.659       16.890       48.856       44.707       32.059     2386.954     1998.687     1027.778        0.430        0.271       53.860       31.562        0.343      336.629        8.060      864.239
03/12/2014  21:01:00     -100.855      -73.243        1.791       34.726       37.737       24.584     1205.886     1424.089      604.389        0.939        0.162      124.645       20.826        0.028      336.645        8.088      864.269
03/12/2014  21:02:00      -65.809      -22.930        1.101       33.716       30.214       19.778     1136.754      912.903      391.163        0.365        0.122       69.689       19.473        0.078      336.699        8.178      864.285
03/12/2014  21:03:00      -47.596      -41.763        5.092       41.534       27.573       22.861     1725.050      760.263      522.615        0.352        0.150       63.321       27.599        0.190      336.658        8.109      864.290
03/12/2014  21:04:00     -124.296      -34.607       -6.275       41.607       34.986       20.905     1731.108     1224.027      437.032        1.004        0.170      129.024       18.124        0.020      336.669        8.127      864.292
03/12/2014  21:05:00     -102.907      -56.602        7.678       55.337       42.960       26.592     3062.224     1845.577      707.148        0.973        0.281      117.447       28.642        0.059      336.620        8.045      864.278
03/12/2014  21:06:00      -73.467      -51.038        7.619       53.062       35.778       23.859     2815.548     1280.040      569.264        0.636        0.233       89.455       24.720        0.076      336.584        7.986      864.279
03/12/2014  21:07:00     -136.825      -58.690       -3.145       25.739       27.236       18.210      662.480      741.807      331.621        1.196        0.087      148.881       15.688        0.011      336.617        8.040      864.286
03/12/2014  21:08:00     -125.066      -71.294        4.648       40.607       29.254       26.451     1648.915      855.776      699.681        1.197        0.160      143.959       22.330        0.024      336.608        8.025      864.280
03/12/2014  21:09:00      -85.542      -55.810       -3.414       59.148       40.139       25.691     3498.520     1611.120      660.013        0.811        0.288      102.138       20.932        0.042      336.567        7.957      864.277
03/12/2014  21:10:00     -103.135      -52.868        0.793       36.749       31.086       21.622     1350.502      966.336      467.529        0.811        0.139      115.896       21.548        0.035      336.497        7.838      864.302
03/12/2014  21:11:00      -71.909      -47.086        0.016       42.408       19.236       20.276     1798.445      370.037      411.122        0.498        0.129       85.954       22.217        0.067      336.515        7.869      864.313
03/12/2014  21:12:00      -66.896      -53.824        5.685       47.530       37.402       23.616     2259.067     1398.898      557.725        0.581        0.211       85.861       22.654        0.070      336.538        7.907      864.313
03/12/2014  21:13:00      -47.087      -72.617        4.781       62.344       47.400       33.282     3886.763     2246.767     1107.667        0.738        0.362       86.547       34.556        0.159      336.587        7.990      864.310
03/12/2014  21:14:00      -82.504      -67.613        8.653       56.139       51.167       31.528     3151.611     2618.070      993.988        0.911        0.338      106.670       32.963        0.095      336.532        7.897      864.318
03/12/2014  21:15:00      -38.028      -45.819       18.571       58.017       50.907       33.228     3365.961     2591.496     1104.125        0.547        0.353       59.544       33.804        0.322      336.484        7.817      864.323
03/12/2014  21:16:00     -155.353      -63.784      -11.437       47.125       30.635       25.156     2220.804      938.513      632.818        1.606        0.190      167.937       22.044        0.017      336.460        7.777      864.323
03/12/2014  21:17:00     -153.588      -37.391       -2.620       52.507       32.821       24.732     2756.947     1077.202      611.688        1.472        0.222      158.074       27.654        0.031      336.323        7.547      864.331
03/12/2014  21:18:00      -86.134      -46.285        4.376       44.073       33.642       24.804     1942.473     1131.782      615.235        0.663        0.184       97.783       22.842        0.055      336.474        7.800      864.335
03/12/2014  21:19:00      -94.001      -42.319        4.619       47.148       35.635       23.435     2222.949     1269.888      549.178        0.734        0.202      103.087       21.905        0.045      336.511        7.862      864.341
03/12/2014  21:20:00      -99.468      -20.638       -9.314       41.435       32.827       20.573     1716.862     1077.605      423.254        0.681        0.161      101.587       19.732        0.038      336.601        8.013      864.341
03/12/2014  21:21:00      -85.470      -49.652       -4.965       49.179       35.958       23.191     2418.599     1292.996      537.815        0.702        0.212       98.846       11.014        0.012      336.698        8.176      864.344
03/12/2014  21:22:00     -133.274      -35.983      -11.753       29.899       19.494       16.071      893.925      380.028      258.273        1.036        0.077      138.046       16.156        0.014      336.592        8.000      864.343
03/12/2014  21:23:00      -94.571      -21.213       -5.683       34.083       27.929       19.584     1161.646      780.052      383.532        0.588        0.116       96.921       16.025        0.027      336.753        8.267      864.340
03/12/2014  21:24:00      -98.746      -61.204       -4.118       21.870       24.048       18.688      478.302      578.317      349.250        0.746        0.070      116.176       14.248        0.015      336.742        8.248      864.323
03/12/2014  21:25:00      -49.983      -42.054       11.688       39.659       28.231       25.119     1572.843      796.969      630.962        0.370        0.150       65.321       24.051        0.136      336.930        8.561      864.297
03/12/2014  21:26:00      -82.945      -32.370        3.440       45.849       37.594       21.121     2102.138     1413.335      446.079        0.595        0.198       89.038       20.298        0.052      337.029        8.728      864.301
03/12/2014  21:27:00      -68.311      -37.564        3.211       45.767       29.090       23.913     2094.612      846.242      571.823        0.480        0.176       77.958       20.765        0.071      336.947        8.589      864.313
03/12/2014  21:28:00      -80.722      -63.065        0.557       47.793       28.681       22.911     2284.165      822.616      524.906        0.706        0.182      102.437       26.086        0.065      336.929        8.559      864.314
03/12/2014  21:29:00      -70.716      -51.208       -0.203       49.074       29.321       23.398     2408.273      859.750      547.465        0.572        0.191       87.310       24.333        0.078      336.853        8.433      864.329
03/12/2014  21:30:00      -50.585      -45.385        8.083       41.796       29.863       23.599     1746.872      891.795      556.912        0.394        0.160       67.961       21.289        0.098      336.858        8.442      864.347
03/12/2014  21:31:00     -110.097      -36.997       -6.005       43.508       28.758       22.846     1892.944      826.995      521.917        0.838        0.162      116.147       26.624        0.053      336.807        8.356      864.368
03/12/2014  21:32:00     -130.097      -62.342       -5.369       27.294       24.422       20.984      744.945      596.419      440.323        1.131        0.089      144.263       16.029        0.012      336.846        8.421      864.364
03/12/2014  21:33:00      -22.945       -7.744        2.482       65.622       24.271       18.958     4306.208      589.078      359.408        0.292        0.263       24.217       16.680        0.474      336.742        8.248      864.373
03/12/2014  21:34:00      -37.301      -27.312        9.023       33.862       23.053       13.894     1146.624      531.430      193.035        0.204        0.094       46.231       14.043        0.092      336.766        8.288      864.383
03/12/2014  21:35:00      -86.545       -8.942       -4.076       34.353       31.912       14.706     1180.132     1018.406      216.263        0.500        0.121       87.005       17.631        0.041      336.768        8.291      864.377
03/12/2014  21:36:00     -134.297       -9.639       -6.095       35.645       28.234       21.504     1270.584      797.177      462.402        1.035        0.127      134.643       19.298        0.021      336.730        8.229      864.373
03/12/2014  21:37:00     -146.462       -9.929       -9.536       43.210       28.811       27.156     1867.121      830.094      737.440        1.254        0.172      146.798       25.937        0.031      337.007        8.690      864.385
03/12/2014  21:38:00     -127.290        2.641      -16.752       57.227       33.948       25.167     3274.910     1152.478      633.353        1.077        0.253      127.318       25.952        0.042      337.046        8.757      864.410
03/12/2014  21:39:00     -148.230      -36.722      -23.344       24.988       15.936       12.218      624.415      253.952      149.276        1.245        0.051      152.711        4.086        0.001      337.033        8.734      864.434
03/12/2014  21:40:00      -74.032      -44.922       -7.276       38.249       23.457       23.772     1462.962      550.247      565.100        0.506        0.129       86.595       25.173        0.085      337.181        8.982      864.407
03/12/2014  21:41:00     -148.919      -39.401      -13.616       18.634       20.123       14.615      347.227      404.933      213.599        1.244        0.048      154.043       10.585        0.005      336.943        8.584      864.394
03/12/2014  21:42:00     -154.470      -20.674      -17.716       30.380       25.300       19.575      922.941      640.089      383.197        1.327        0.097      155.848       15.801        0.010      336.954        8.602      864.405
03/12/2014  21:43:00     -124.868       -3.137      -11.649       37.460       35.007       17.121     1403.261     1225.477      293.113        0.933        0.146      124.908       16.648        0.018      336.824        8.387      864.411
03/12/2014  21:44:00     -173.815      -24.378      -23.020       41.767       29.129       25.464     1744.491      848.500      648.420        1.729        0.162      175.517       23.379        0.018      336.613        8.032      864.418
03/12/2014  21:45:00     -197.890      -13.524      -25.511       28.734       35.856       24.269      825.627     1285.628      588.978        2.135        0.135      198.352       19.019        0.009      336.597        8.005      864.416
03/12/2014  21:46:00     -138.964       35.050      -17.033       38.262       53.075       26.970     1464.009     2816.915      727.407        1.292        0.250      143.316       21.530        0.023      336.732        8.232      864.419
03/12/2014  21:47:00     -162.296      -26.888      -19.562       46.535       46.822       25.050     2165.473     2192.327      627.495        1.621        0.249      164.509       20.719        0.016      336.663        8.117      864.421
03/12/2014  21:48:00     -127.015      -10.997      -12.049       32.578       39.573       19.405     1061.315     1566.026      376.553        0.970        0.150      127.490        9.716        0.006      336.802        8.349      864.423
03/12/2014  21:49:00      -91.633      -11.558       -9.176       41.294       22.584       16.466     1705.195      510.017      271.114        0.555        0.124       92.359       13.706        0.022      336.553        7.933      864.420
03/12/2014  21:50:00     -116.959      -16.499       -9.874       38.169       32.094       21.740     1456.890     1030.041      472.647        0.850        0.148      118.117       24.687        0.044      336.531        7.896      864.427
03/12/2014  21:51:00     -106.126      -22.284      -15.705       20.120       21.495       15.303      404.798      462.019      234.192        0.655        0.055      108.440       12.462        0.013      336.625        8.053      864.419
03/12/2014  21:52:00      -91.674      -39.831      -10.464       24.140       23.694       15.767      582.722      561.428      248.595        0.575        0.070       99.953       11.732        0.014      336.580        7.979      864.409
03/12/2014  21:53:00      -66.877       -9.451       -8.827       29.090       22.825       13.789      846.202      520.976      190.137        0.310        0.078       67.541       12.142        0.032      336.630        8.063      864.411
03/12/2014  21:54:00      -72.911        4.224       -5.140       41.611       23.975       18.048     1731.493      574.815      325.734        0.400        0.132       73.033       20.843        0.081      336.770        8.296      864.416
03/12/2014  21:55:00     -113.412      -27.363       -5.939       28.181       27.641       20.716      794.192      764.012      429.149        0.782        0.099      116.666       12.353        0.011      336.565        7.953      864.425
03/12/2014  21:56:00      -76.709      -25.245       -1.579       36.824       23.689       21.478     1356.019      561.192      461.307        0.445        0.119       80.756       20.732        0.066      336.540        7.911      864.418
03/12/2014  21:57:00      -99.002      -40.275       -7.911       29.626       26.021       16.336      877.715      677.114      266.869        0.665        0.091      106.881       14.714        0.019      336.531        7.897      864.413
03/12/2014  21:58:00     -123.250      -39.495      -17.581       16.638       15.045        9.917      276.836      226.351       98.357        0.883        0.030      129.423        5.002        0.001      336.355        7.600      864.408
03/12/2014  21:59:00      -95.047      -32.219       -7.117       28.201       20.271       16.645      795.300      410.909      277.048        0.580        0.074      100.359       17.242        0.030      336.419        7.707      864.411
03/12/2014  22:00:00     -107.940      -12.701       -7.660       33.424       21.584       18.561     1117.133      465.886      344.526        0.690        0.096      108.685       18.970        0.030      336.536        7.905      864.422
03/12/2014  22:01:00     -100.250      -18.545      -10.252       43.307       23.006       18.085     1875.531      529.258      327.061        0.661        0.137      101.951       21.110        0.043      336.528        7.892      864.432
03/12/2014  22:02:00      -54.390       -1.734        3.665       37.450       28.838       17.053     1402.519      831.651      290.819        0.275        0.126       54.418       16.370        0.090      336.420        7.710      864.444
03/12/2014  22:03:00     -113.760        9.596       -9.836       21.559       16.469       15.078      464.778      271.223      227.352        0.705        0.048      114.164       10.485        0.008      336.568        7.956      864.451
03/12/2014  22:04:00      -95.082        0.112       -3.890       25.377       30.836       18.663      644.001      950.871      348.296        0.550        0.097       95.083       15.205        0.026      336.474        7.799      864.469
03/12/2014  22:05:00      -72.270        7.371       -5.337       35.351       29.368       17.825     1249.659      862.479      317.742        0.387        0.121       72.645       16.326        0.051      336.601        8.013      864.464
03/12/2014  22:06:00      -33.147        4.401        2.697       50.127       25.757       21.062     2512.738      663.424      443.615        0.237        0.181       33.438       26.123        0.610      336.446        7.752      864.454
03/12/2014  22:07:00      -69.451       32.276       -9.098       25.472       23.703       15.888      648.829      561.830      252.429        0.371        0.073       76.585        9.881        0.017      336.522        7.881      864.459
03/12/2014  22:08:00      -41.213        4.389       -3.881       24.351       21.015       12.255      592.986      441.614      150.191        0.146        0.059       41.446       10.620        0.066      336.369        7.626      864.465
03/12/2014  22:09:00      -56.303      -12.179       -3.276       22.925       18.793       12.570      525.556      353.163      158.005        0.218        0.052       57.606        3.979        0.005      336.142        7.244      864.467
03/12/2014  22:10:00      -26.211       -3.663       -7.348       28.353       21.029       17.696      803.865      442.217      313.137        0.116        0.078       26.465       18.516        0.489      336.172        7.295      864.471
03/12/2014  22:11:00      -48.378      -20.673       -6.489       22.279       28.052       16.149      496.333      786.916      260.804        0.218        0.077       52.610       15.835        0.091      336.165        7.283      864.466
03/12/2014  22:12:00      -26.832      -12.793       -1.451       17.200       13.799       11.662      295.824      190.404      136.004        0.075        0.031       29.726       10.612        0.127      336.048        7.087      864.463
03/12/2014  22:13:00      -60.346      -31.868       -0.812       22.800       11.686       13.930      519.840      136.556      194.043        0.275        0.043       68.244       14.267        0.044      335.980        6.974      864.454
03/12/2014  22:14:00      -80.170      -27.592      -17.102       16.041       19.160       10.032      257.320      367.118      100.640        0.410        0.036       84.785        5.820        0.005      335.871        6.793      864.456
03/12/2014  22:15:00      -64.036      -21.967      -13.203       30.126       22.576       20.022      907.595      509.671      400.887        0.329        0.091       67.699       18.822        0.077      335.768        6.624      864.445
03/12/2014  22:16:00      -58.201      -12.918      -11.580       25.907       19.465       15.429      671.186      378.874      238.046        0.249        0.064       59.617        3.523        0.003      335.737        6.573      864.442
03/12/2014  22:17:00      -25.926      -27.109      -10.615       21.894       12.848       11.479      479.364      165.067      131.771        0.115        0.039       37.511        7.232        0.037      335.915        6.866      864.437
03/12/2014  22:18:00      -56.630      -13.504       -5.117       15.185       16.265        9.545      230.594      264.561       91.109        0.200        0.029       58.218        8.303        0.020      335.714        6.533      864.438
03/12/2014  22:19:00      -47.438      -20.344       -7.875       13.726        7.797       13.592      188.414       60.799      184.735        0.158        0.022       51.616       10.172        0.039      335.865        6.783      864.433
03/12/2014  22:20:00      -72.432      -22.819      -10.915       19.721       10.313       12.587      388.917      106.360      158.430        0.327        0.033       75.941       11.451        0.023      335.754        6.599      864.431
03/12/2014  22:21:00      -77.771      -18.041      -13.094       17.157       21.408       13.698      294.356      458.292      187.625        0.374        0.047       79.836       10.901        0.019      335.630        6.393      864.437
03/12/2014  22:22:00      -34.835      -33.212       -2.369       27.287       18.157       14.884      744.572      329.689      221.520        0.181        0.065       48.130       10.163        0.045      335.662        6.444      864.436
03/12/2014  22:23:00      -36.805        4.012       -2.197       27.377       22.545       11.653      749.501      508.278      135.800        0.138        0.070       37.023        9.823        0.070      336.107        7.188      864.428
03/12/2014  22:24:00      -82.345       -3.120      -11.918       16.443       20.359       11.934      270.356      414.470      142.427        0.388        0.041       82.404        9.268        0.013      336.139        7.241      864.413
03/12/2014  22:25:00      -54.842       -4.118       -5.290       21.294       14.290       12.678      453.440      204.206      160.740        0.194        0.041       54.996       11.815        0.046      335.912        6.862      864.404
03/12/2014  22:26:00      -66.181       17.313      -10.433       24.164       26.021       13.248      583.875      677.071      175.513        0.311        0.072       68.409       13.114        0.037      336.118        7.204      864.401
03/12/2014  22:27:00      -81.898        3.033      -11.582       15.964       18.981       12.258      254.852      360.264      150.265        0.381        0.038       81.954        6.396        0.006      336.136        7.235      864.405
03/12/2014  22:28:00      -92.482       -1.798      -11.418       28.189       19.432       15.783      794.628      377.602      249.091        0.505        0.071       92.499       15.714        0.029      335.774        6.633      864.435
03/12/2014  22:29:00      -88.757       16.048       -7.769       35.349       24.659       14.477     1249.532      608.076      209.588        0.513        0.103       90.196       13.047        0.021      336.204        7.349      864.432
03/12/2014  22:30:00      -96.968       20.609       -7.739       30.630       28.246       19.024      938.209      797.863      361.907        0.599        0.105       99.134       17.330        0.031      336.354        7.599      864.437
03/12/2014  22:31:00     -105.597       32.680      -21.470       16.279       29.253       15.266      265.009      855.736      233.053        0.702        0.068      110.539       13.755        0.015      336.609        8.028      864.439
03/12/2014  22:32:00      -77.726      -15.024       -8.858       22.011       20.097       15.267      484.477      403.878      233.082        0.373        0.056       79.165       13.202        0.028      336.348        7.589      864.437
03/12/2014  22:33:00      -80.650      -13.692       -6.606       15.407       17.647       12.802      237.379      311.417      163.904        0.372        0.036       81.804       10.749        0.017      336.094        7.166      864.441
03/12/2014  22:34:00      -81.906       -7.090      -13.376       21.239       12.738        9.544      451.091      162.245       91.082        0.382        0.035       82.213        9.216        0.013      335.862        6.777      864.461
03/12/2014  22:35:00      -77.188       46.352      -20.672       30.837       46.406       15.851      950.924     2153.472      251.241        0.594        0.168       90.036       21.453        0.057      336.413        7.698      864.460
03/12/2014  22:36:00      -62.289       63.550      -10.798       21.951       34.083       22.784      481.856     1161.661      519.099        0.510        0.108       88.987       19.281        0.047      336.534        7.901      864.459
03/12/2014  22:37:00      -57.453      -17.271      -10.416       11.856       17.278        8.686      140.559      298.534       75.440        0.211        0.026       59.993        5.554        0.009      335.985        6.983      864.461
03/12/2014  22:38:00      -46.042        3.557       -7.227       17.188       21.629       11.127      295.413      467.825      123.808        0.154        0.044       46.179        9.835        0.045      336.349        7.592      864.466
03/12/2014  22:39:00      -43.267      -17.096      -10.901       12.961        8.057        5.181      167.996       64.912       26.844        0.127        0.013       46.522        4.172        0.008      336.260        7.442      864.472
03/12/2014  22:40:00      -45.803       -4.587       -6.898        9.028        5.755        8.190       81.496       33.122       67.082        0.117        0.009       46.032        1.384        0.001      336.148        7.256      864.479
03/12/2014  22:41:00      -30.107       -4.265       -4.070       12.860        9.745        7.670      165.390       94.960       58.826        0.063        0.016       30.407        6.625        0.047      336.317        7.537      864.475
03/12/2014  22:42:00      -30.034       10.789       -5.989       20.726       20.663       11.914      429.562      426.949      141.938        0.103        0.050       31.913       11.375        0.127      336.460        7.777      864.466
03/12/2014  22:43:00       -9.844       26.357       -0.611       18.254       28.742       15.678      333.207      826.107      245.801        0.110        0.070       28.135       17.673        0.395      336.542        7.913      864.474
03/12/2014  22:44:00      -14.659       21.683       -5.192       22.559       24.113       11.466      508.908      581.437      131.463        0.097        0.061       26.173        7.621        0.085      336.527        7.889      864.470
03/12/2014  22:45:00      -79.199       40.188      -14.338       19.723       45.898       18.588      389.014     2106.644      345.517        0.547        0.142       88.811       24.180        0.074      336.414        7.700      864.454
03/12/2014  22:46:00      -53.817       55.597       -7.538       25.846       30.184       13.711      668.011      911.088      187.986        0.391        0.088       77.378       12.027        0.024      336.443        7.748      864.465
03/12/2014  22:47:00      -65.292       89.540      -21.979       30.245       35.088       17.865      914.756     1231.169      319.159        0.761        0.123      110.817       17.257        0.024      336.496        7.837      864.481
03/12/2014  22:48:00      -98.554       27.738      -14.667       24.347       42.059       22.899      592.795     1768.961      524.359        0.679        0.144      102.383       23.320        0.052      336.296        7.503      864.459
03/12/2014  22:49:00     -107.769      121.074      -31.480       33.798       47.449       21.458     1142.280     2251.449      460.462        1.556        0.193      162.089       21.301        0.017      336.493        7.831      864.448
03/12/2014  22:50:00      -72.891       35.519       -7.525       35.221       34.207       17.692     1240.495     1170.134      312.998        0.468        0.136       81.084       23.351        0.083      336.203        7.347      864.433
03/12/2014  22:51:00      -99.920       90.356      -26.704       28.361       45.067       19.352      804.365     2031.039      374.482        1.103        0.160      134.715       19.168        0.020      336.432        7.729      864.433
03/12/2014  22:52:00     -104.979      116.331      -30.403       34.188       29.562       18.185     1168.826      873.909      330.706        1.393        0.119      156.695       18.168        0.013      336.453        7.766      864.433
03/12/2014  22:53:00      -63.717       52.280       -7.487       30.238       39.032       20.453      914.330     1523.481      418.329        0.485        0.143       82.420       17.084        0.043      336.307        7.521      864.421
03/12/2014  22:54:00      -61.221       81.184       -9.933       31.184       42.834       21.436      972.414     1834.710      459.494        0.685        0.163      101.680       22.427        0.049      336.363        7.615      864.419
03/12/2014  22:55:00      -54.270       95.258      -20.825       32.092       44.170       21.764     1029.901     1950.997      473.681        0.795        0.173      109.632       21.957        0.040      336.370        7.627      864.427
03/12/2014  22:56:00      -78.872       23.823       -8.421       37.172       32.314       20.871     1381.740     1044.214      435.578        0.486        0.143       82.392       17.665        0.046      336.093        7.164      864.412
03/12/2014  22:57:00      -80.652        7.088      -13.457       26.286       55.423       22.681      690.976     3071.655      514.409        0.551        0.214       80.963       28.299        0.122      336.089        7.156      864.404
03/12/2014  22:58:00      -87.495       39.762      -20.614       31.805       52.853       17.975     1011.545     2793.476      323.097        0.689        0.206       96.106       22.560        0.055      336.096        7.167      864.405
03/12/2014  22:59:00     -111.341      109.026      -23.718       46.353       66.241       32.681     2148.602     4387.879     1068.043        1.622        0.380      155.832       28.928        0.034      336.375        7.633      864.389
03/12/2014  23:00:00      -97.196      -14.815      -14.307       22.809       44.725       22.702      520.228     2000.330      515.369        0.645        0.152       98.319       15.774        0.026      336.144        7.248      864.383
03/12/2014  23:01:00      -86.325       15.575       -2.299       41.980       43.955       27.921     1762.348     1932.054      779.571        0.609        0.224       87.718       25.116        0.082      336.191        7.327      864.390
03/12/2014  23:02:00      -50.418       20.648       -0.527       23.139       21.406       19.534      535.401      458.220      381.563        0.217        0.069       54.482       11.093        0.041      336.325        7.549      864.390
03/12/2014  23:03:00      -61.650       83.957      -14.753       24.280       47.676       19.926      589.515     2273.005      397.033        0.716        0.163      104.161       14.766        0.020      336.254        7.432      864.411
03/12/2014  23:04:00      -67.942       75.484      -10.854       38.117       28.788       26.707     1452.888      828.777      713.290        0.671        0.150      101.558       18.681        0.034      336.162        7.279      864.446
03/12/2014  23:05:00      -44.807       98.833       -9.188       35.291       35.457       23.607     1245.469     1257.201      557.307        0.746        0.153      108.515       24.057        0.049      336.162        7.278      864.457
03/12/2014  23:06:00      -28.645       71.757       -5.490       24.075       40.565       17.415      579.583     1645.519      303.297        0.426        0.126       77.263       14.286        0.034      336.075        7.134      864.469
03/12/2014  23:07:00      -34.279       56.403       -8.554       27.406       43.974       13.190      751.088     1933.727      173.982        0.364        0.143       66.003       12.526        0.036      335.984        6.982      864.463
03/12/2014  23:08:00      -84.943       21.466      -14.321       24.679       24.034       16.337      609.057      577.647      266.905        0.467        0.073       87.613       10.401        0.014      336.125        7.216      864.452
03/12/2014  23:09:00      -92.444       -7.647      -19.202       18.564       16.312       13.718      344.630      266.094      188.192        0.489        0.040       92.759       11.139        0.014      335.688        6.490      864.460
03/12/2014  23:10:00      -98.016      -13.085       -6.520       25.203       18.627       17.103      635.204      346.949      292.518        0.555        0.064       98.886       10.425        0.011      335.603        6.347      864.465
03/12/2014  23:11:00      -86.831       14.822       -8.102       29.106       41.980       21.770      847.171     1762.317      473.947        0.545        0.154       88.086       15.696        0.032      335.687        6.486      864.474
03/12/2014  23:12:00     -108.173      -18.861       -9.401       22.954       26.300       14.613      526.901      691.666      213.527        0.679        0.072      109.805        7.812        0.005      335.652        6.429      864.466
03/12/2014  23:13:00     -110.209      -10.611      -17.802       27.199       25.673       19.391      739.771      659.091      375.998        0.717        0.089      110.719       16.603        0.022      335.584        6.315      864.469
03/12/2014  23:14:00     -120.671       10.897      -16.666       34.972       36.201       19.928     1223.031     1310.515      397.121        0.894        0.147      121.162       18.035        0.022      335.885        6.816      864.477
03/12/2014  23:15:00      -73.232       -8.859      -11.665       27.240       30.839       20.128      741.996      951.038      405.147        0.384        0.105       73.766       15.019        0.041      335.709        6.523      864.473
03/12/2014  23:16:00      -72.172        6.014      -13.160       31.904       22.628       17.996     1017.882      512.013      323.857        0.364        0.093       72.422        8.341        0.013      335.788        6.655      864.471
03/12/2014  23:17:00      -92.673      -11.760       -9.785       22.560       24.982       16.370      508.976      624.109      267.971        0.511        0.070       93.417       10.981        0.014      335.640        6.409      864.465
03/12/2014  23:18:00      -92.599       16.616      -17.615       32.869       56.592       17.675     1080.399     3202.651      312.402        0.688        0.230       94.078       21.133        0.050      335.996        7.003      864.465
03/12/2014  23:19:00      -65.493       13.973       -6.018       32.460       40.276       22.724     1053.632     1622.174      516.382        0.386        0.160       66.967       11.060        0.027      335.802        6.679      864.451
03/12/2014  23:20:00      -64.531       -6.417       -2.043       26.787       26.476       15.198      717.554      701.002      230.978        0.293        0.082       64.849       15.530        0.057      335.859        6.775      864.443
03/12/2014  23:21:00     -105.142        6.124      -17.209       26.096       31.245       18.491      681.019      976.269      341.925        0.669        0.100      105.320        9.103        0.007      335.800        6.675      864.433
03/12/2014  23:22:00     -105.260       -9.057       -9.306       33.522       31.635       22.608     1123.716     1000.748      511.140        0.694        0.132      105.649       16.660        0.025      335.832        6.729      864.421
03/12/2014  23:23:00      -76.800      -10.555       -3.325       52.804       28.345       16.289     2788.257      803.417      265.345        0.494        0.193       77.522       24.265        0.098      335.618        6.373      864.428
03/12/2014  23:24:00      -38.804      -14.572       -0.418       40.982       21.512       16.191     1679.514      462.773      262.156        0.206        0.120       41.450       13.045        0.099      335.685        6.483      864.420
03/12/2014  23:25:00      -59.581      -31.257        1.298       36.230       19.963       18.797     1312.642      398.521      353.321        0.330        0.103       67.282       19.174        0.081      335.559        6.274      864.395
03/12/2014  23:26:00      -66.114      -37.425       -4.912       34.173       27.411       12.569     1167.787      751.374      157.983        0.394        0.104       75.972       10.058        0.018      335.592        6.328      864.395
03/12/2014  23:27:00     -106.552      -49.758       -2.331       40.319       32.360       22.497     1625.609     1047.139      506.094        0.851        0.159      117.598       17.488        0.022      335.715        6.533      864.391
03/12/2014  23:28:00      -79.562      -58.163        0.144       46.520       38.940       26.120     2164.075     1516.318      682.261        0.704        0.218       98.555       25.218        0.065      335.495        6.167      864.386
03/12/2014  23:29:00      -93.565      -71.196       -3.722       34.560       45.778       28.140     1194.401     2095.646      791.843        0.896        0.204      117.572        8.432        0.005      335.487        6.153      864.379
03/12/2014  23:30:00      -84.138      -48.258        2.755       70.317       43.059       34.940     4944.501     1854.062     1220.792        0.872        0.401       96.995       31.867        0.108      335.303        5.846      864.372
03/12/2014  23:31:00     -103.051      -72.252       -0.433       63.911       42.729       30.548     4084.667     1825.778      933.160        1.134        0.342      125.856       21.627        0.030      335.254        5.763      864.391
03/12/2014  23:32:00     -114.512     -100.721        1.407       57.072       48.234       29.643     3257.224     2326.481      878.733        1.486        0.323      152.505       27.648        0.033      335.142        5.580      864.406
03/12/2014  23:33:00     -119.181     -106.104       -6.667       50.780       45.454       27.542     2578.604     2066.085      758.564        1.545        0.270      159.569       26.435        0.027      335.172        5.628      864.413
03/12/2014  23:34:00     -145.262      -97.887       -1.247       43.644       47.655       29.031     1904.828     2270.959      842.812        1.785        0.251      175.166       28.564        0.027      335.143        5.580      864.431
03/12/2014  23:35:00      -77.597      -81.785        8.551       49.527       38.741       25.752     2452.970     1500.891      663.156        0.870        0.231      112.739       15.589        0.019      335.097        5.507      864.451
03/12/2014  23:36:00      -48.962     -115.791       -9.938       44.680       50.789       21.992     1996.307     2579.492      483.630        1.048        0.253      125.717       12.229        0.009      335.179        5.641      864.443
03/12/2014  23:37:00      -15.205     -141.538       -6.527       58.060       47.308       28.498     3371.001     2238.079      812.142        1.336        0.321      142.352       20.058        0.020      335.247        5.751      864.436
03/12/2014  23:38:00      -17.900     -112.990      -11.590       43.625       46.514       26.261     1903.160     2163.582      689.664        0.899        0.238      114.399       19.019        0.028      335.538        6.239      864.446
03/12/2014  23:39:00      -32.482      -84.546       -2.665       37.417       54.146       17.936     1400.047     2931.787      321.701        0.643        0.233       90.571       20.091        0.049      335.325        5.884      864.448
03/12/2014  23:40:00      -15.010      -96.155       -1.271       31.558       53.403       20.315      995.881     2851.918      412.685        0.687        0.213       97.320       21.745        0.050      335.306        5.852      864.448
03/12/2014  23:41:00      -62.117     -109.444        4.604       47.003       37.586       26.883     2209.262     1412.743      722.685        1.010        0.217      125.843       25.227        0.040      335.554        6.266      864.453
03/12/2014  23:42:00      -81.152      -65.635        8.308       60.789       63.227       24.695     3695.259     3997.685      609.832        0.963        0.415      104.372       31.605        0.092      335.372        5.962      864.442
03/12/2014  23:43:00     -120.033     -127.391       -2.855       74.090       51.778       35.182     5489.402     2680.970     1237.750        2.002        0.470      175.032       40.464        0.053      335.260        5.774      864.442
03/12/2014  23:44:00     -125.449     -142.395       -9.774       50.218       35.943       30.909     2521.843     1291.934      955.342        2.044        0.238      189.773       25.193        0.018      335.399        6.005      864.441
03/12/2014  23:45:00      -87.240      -72.615       -5.656       54.385       50.376       28.398     2957.750     2537.736      806.441        0.961        0.315      113.506       28.335        0.062      335.469        6.123      864.429
03/12/2014  23:46:00      -80.955      -29.409        1.717       57.501       48.253       27.164     3306.332     2328.383      737.895        0.690        0.319       86.132       27.674        0.103      335.370        5.957      864.443
03/12/2014  23:47:00      -17.828       -0.485       11.711       31.032       25.510       19.895      962.966      650.757      395.793        0.123        0.100       17.835       22.026        1.525      335.171        5.629      864.464
03/12/2014  23:48:00      -67.567      -51.062       -2.168       41.110       25.085       19.118     1690.015      629.263      365.508        0.493        0.134       84.691       16.531        0.038      335.106        5.519      864.460
03/12/2014  23:49:00      -53.148      -40.429      -17.178       13.542       13.694        8.868      183.375      187.535       78.642        0.260        0.022       66.778        4.263        0.004      335.147        5.589      864.458
03/12/2014  23:50:00      -92.861      -35.620      -13.734       14.496       19.596       10.709      210.136      384.018      114.686        0.539        0.035       99.458        5.170        0.003      335.044        5.417      864.446
03/12/2014  23:51:00      -92.952      -27.956      -16.306       37.159       21.429       12.132     1380.783      459.222      147.179        0.584        0.099       97.065        5.167        0.003      334.988        5.323      864.446
03/12/2014  23:52:00      -39.184      -31.061        4.669       25.366       18.451       18.607      643.425      340.447      346.203        0.193        0.067       50.002       15.678        0.098      334.982        5.313      864.447
03/12/2014  23:53:00       -4.839      -42.751       -0.231       19.003       21.310       15.963      361.105      454.114      254.825        0.146        0.054       43.024        7.608        0.031      335.143        5.583      864.441
03/12/2014  23:54:00      -18.832      -70.638       -6.177       21.146       28.686       19.547      447.136      822.915      382.079        0.352        0.083       73.105       11.743        0.026      335.230        5.725      864.433
03/12/2014  23:55:00      -44.580      -65.450       -0.207       58.995       61.201       24.767     3480.354     3745.552      613.381        0.705        0.392       79.190       25.797        0.106      334.927        5.221      864.441
03/12/2014  23:56:00      -36.636     -115.983       12.031       66.364       58.381       40.486     4404.218     3408.383     1639.083        1.219        0.473      121.631       39.849        0.107      334.651        4.764      864.448
03/12/2014  23:57:00      -59.316     -128.150        3.637       62.966       59.320       35.347     3964.732     3518.840     1249.422        1.434        0.437      141.211       42.001        0.088      334.644        4.751      864.447
03/12/2014  23:58:00      -84.889     -177.866      -11.019       52.862       46.640       29.572     2794.415     2175.306      874.525        2.240        0.292      197.085       22.826        0.013      334.612        4.696      864.445
03/12/2014  23:59:00     -120.823      -99.567       -7.161       63.929       46.800       30.922     4086.966     2190.212      956.151        1.590        0.362      156.562       29.599        0.036      334.550        4.595      864.437
